[[{"header":{"parameterUnit":"m.s-1","parameterCategory":1,"la1":30.6,"la2":28.766,"lo1":-90.7593,"lo2":-88.6598,"dx":0.0162,"dy":0.0183,"nx":116,"ny":114,"refTime":"2023-01-13T06:00:00:Z","depth":0,"parameterNumber":2,"parameterNumberName":"U-component_of_WINDS"},"data":[0.0,0.0,0.0,0.0,0.0,0.0,0.0,0.0,0.0,0.0,0.0,0.0,0.0,0.0,0.0,0.0,0.0,0.0,0.0,0.0,0.0,0.0,0.0,0.0,0.0,0.0,0.0,0.0,0.0,0.0,0.0,0.0,0.0,0.0,0.0,0.0,0.0,0.0,0.0,0.0,0.0,0.0,0.0,0.0,0.0,0.0,0.0,0.0,0.0,0.0,0.0,0.0,0.0,0.0,0.0,0.0,0.0,0.0,0.0,0.0,0.0,0.0,0.0,0.0,0.0,0.0,0.0,0.0,0.0,0.0,0.0,0.0,0.0,0.0,0.0,0.0,0.0,0.0,0.0,0.0,0.0,0.0,0.0,0.0,0.0,0.0,0.0,0.0,0.0,0.0,0.0,0.0,0.0,0.0,0.0,0.0,0.0,0.0,0.0,0.0,0.0,0.0,0.0,0.0,0.0,0.0,0.0,0.0,0.0,0.0,0.0,0.0,0.0,0.0,0.0,0.0,0.0,0.0,0.0,0.0,0.0,0.0,0.0,0.0,0.0,0.0,0.0,0.0,0.0,0.0,0.0,0.0,0.0,0.0,0.0,0.0,0.0,0.0,0.0,0.0,0.0,0.0,0.0,0.0,0.0,0.0,0.0,0.0,0.0,0.0,0.0,0.0,0.0,0.0,0.0,0.0,0.0,0.0,0.0,0.0,0.0,0.0,0.0,0.0,0.0,0.0,0.0,0.0,0.0,0.0,0.0,0.0,0.0,0.0,0.0,0.0,0.0,0.0,0.0,0.0,0.0,0.0,0.0,0.0,0.0,0.0,0.0,0.0,0.0,0.0,0.0,0.0,0.0,0.0,0.0,0.0,0.0,0.0,0.0,0.0,0.0,0.0,0.0,0.0,0.0,0.0,0.0,0.0,0.0,0.0,0.0,0.0,0.0,0.0,0.0,0.0,0.0,0.0,0.0,0.0,0.0,0.0,0.0,0.0,0.0,0.0,0.0,0.0,0.0,0.0,0.0,0.0,0.0,0.0,0.0,0.0,0.0,0.0,0.0,0.0,0.0,0.0,0.0,0.0,0.0,0.0,0.0,0.0,0.0,0.0,0.0,0.0,0.0,0.0,0.0,0.0,0.0,0.0,0.0,0.0,0.0,0.0,0.0,0.0,0.0,0.0,0.0,0.0,0.0,0.0,0.0,0.0,0.0,0.0,0.0,0.0,0.0,0.0,0.0,0.0,0.0,0.0,0.0,0.0,0.0,0.0,0.0,0.0,0.0,0.0,0.0,0.0,0.0,0.0,0.0,0.0,0.0,0.0,0.0,0.0,0.0,0.0,0.0,0.0,0.0,0.0,0.0,0.0,0.0,0.0,0.0,0.0,0.0,0.0,0.0,0.0,0.0,0.0,0.0,0.0,0.0,0.0,0.0,0.0,0.0,0.0,0.0,0.0,0.0,0.0,0.0,0.0,0.0,0.0,0.0,0.0,0.0,0.0,0.0,0.0,0.0,0.0,0.0,0.0,0.0,0.0,0.0,0.0,0.0,0.0,0.0,0.0,0.0,0.0,0.0,0.0,0.0,0.0,0.0,0.0,0.0,0.0,0.0,0.0,0.0,0.0,0.0,0.0,0.0,0.0,0.0,0.0,0.0,0.0,0.0,0.0,0.0,0.0,0.0,0.0,0.0,0.0,0.0,0.0,0.0,0.0,0.0,0.0,0.0,0.0,0.0,0.0,0.0,0.0,0.0,0.0,0.0,0.0,0.0,0.0,0.0,0.0,0.0,0.0,0.0,0.0,0.0,0.0,0.0,0.0,0.0,0.0,0.0,0.0,0.0,0.0,0.0,0.0,0.0,0.0,0.0,0.0,0.0,0.0,0.0,0.0,0.0,0.0,0.0,0.0,0.0,0.0,0.0,0.0,0.0,0.0,0.0,0.0,0.0,0.0,0.0,0.0,0.0,0.0,0.0,0.0,0.0,0.0,0.0,0.0,0.0,0.0,0.0,0.0,0.0,0.0,0.0,0.0,0.0,0.0,0.0,0.0,0.0,0.0,0.0,0.0,0.0,0.0,0.0,0.0,0.0,0.0,0.0,0.0,0.0,0.0,0.0,0.0,0.0,0.0,0.0,0.0,0.0,0.0,0.0,0.0,0.0,0.0,0.0,0.0,0.0,0.0,0.0,0.0,0.0,0.0,0.0,0.0,0.0,0.0,0.0,0.0,0.0,0.0,0.0,0.0,0.0,0.0,0.0,0.0,0.0,0.0,0.0,0.0,0.0,0.0,0.0,0.0,0.0,0.0,0.0,0.0,0.0,0.0,0.0,0.0,0.0,0.0,0.0,0.0,0.0,0.0,0.0,0.0,0.0,0.0,0.0,0.0,0.0,0.0,0.0,0.0,0.0,0.0,0.0,0.0,0.0,0.0,0.0,0.0,0.0,0.0,0.0,0.0,0.0,0.0,0.0,0.0,0.0,0.0,0.0,0.0,0.0,0.0,0.0,0.0,0.0,0.0,0.0,0.0,0.0,0.0,0.0,0.0,0.0,0.0,0.0,0.0,0.0,0.0,0.0,0.0,0.0,0.0,0.0,0.0,0.0,0.0,0.0,0.0,0.0,0.0,0.0,0.0,0.0,0.0,0.0,0.0,0.0,0.0,0.0,0.0,0.0,0.0,0.0,0.0,0.0,0.0,0.0,0.0,0.0,0.0,0.0,0.0,0.0,0.0,0.0,0.0,0.0,0.0,0.0,0.0,0.0,0.0,0.0,0.0,0.0,0.0,0.0,0.0,0.0,0.0,0.0,0.0,0.0,0.0,0.0,0.0,0.0,0.0,0.0,0.0,0.0,0.0,0.0,0.0,0.0,0.0,0.0,0.0,0.0,0.0,0.0,0.0,0.0,0.0,0.0,0.0,0.0,0.0,0.0,0.0,0.0,0.0,0.0,0.0,0.0,0.0,0.0,0.0,0.0,0.0,0.0,0.0,0.0,0.0,0.0,0.0,0.0,0.0,0.0,0.0,0.0,0.0,0.0,0.0,0.0,0.0,0.0,0.0,0.0,0.0,0.0,0.0,0.0,0.0,0.0,0.0,0.0,0.0,0.0,0.0,0.0,0.0,0.0,0.0,0.0,0.0,0.0,0.0,0.0,0.0,0.0,0.0,0.0,0.0,0.0,0.0,0.0,0.0,0.0,0.0,0.0,0.0,0.0,0.0,0.0,0.0,0.0,0.0,0.0,0.0,0.0,0.0,0.0,0.0,0.0,0.0,0.0,0.0,0.0,0.0,0.0,0.0,0.0,0.0,0.0,0.0,0.0,0.0,0.0,0.0,0.0,0.0,0.0,0.0,0.0,0.0,0.0,0.0,0.0,0.0,0.0,0.0,0.0,0.0,0.0,0.0,0.0,0.0,0.0,0.0,0.0,0.0,0.0,0.0,0.0,0.0,0.0,0.0,0.0,0.0,0.0,0.0,0.0,0.0,0.0,0.0,0.0,0.0,0.0,0.0,0.0,0.0,0.0,0.0,0.0,0.0,0.0,0.0,0.0,0.0,0.0,0.0,0.0,0.0,0.0,0.0,0.0,0.0,0.0,0.0,0.0,0.0,0.0,0.0,0.0,0.0,0.0,0.0,0.0,0.0,0.0,0.0,0.0,0.0,0.0,0.0,0.0,0.0,0.0,0.0,0.0,0.0,0.0,0.0,0.0,0.0,0.0,0.0,0.0,0.0,0.0,0.0,0.0,0.0,0.0,0.0,0.0,0.0,0.0,0.0,0.0,0.0,0.0,0.0,0.0,0.0,0.0,0.0,0.0,0.0,0.0,0.0,0.0,0.0,0.0,0.0,0.0,0.0,0.0,0.0,0.0,0.0,0.0,0.0,0.0,0.0,0.0,0.0,0.0,0.0,0.0,0.0,0.0,0.0,0.0,0.0,0.0,0.0,0.0,0.0,0.0,0.0,0.0,0.0,0.0,0.0,0.0,0.0,0.0,0.0,0.0,0.0,0.0,0.0,0.0,0.0,0.0,0.0,0.0,0.0,0.0,0.0,0.0,0.0,0.0,0.0,0.0,0.0,0.0,0.0,0.0,0.0,0.0,0.0,0.0,0.0,0.0,0.0,0.0,0.0,0.0,0.0,0.0,0.0,0.0,0.0,0.0,0.0,0.0,0.0,0.0,0.0,0.0,0.0,0.0,0.0,0.0,0.0,0.0,0.0,0.0,0.0,0.0,0.0,0.0,0.0,0.0,0.0,0.0,0.0,0.0,0.0,0.0,0.0,0.0,0.0,0.0,0.0,0.0,0.0,0.0,0.0,0.0,0.0,0.0,0.0,0.0,0.0,0.0,0.0,0.0,0.0,0.0,0.0,0.0,0.0,0.0,0.0,0.0,0.0,0.0,0.0,0.0,0.0,0.0,0.0,0.0,0.0,0.0,0.0,0.0,0.0,0.0,0.0,0.0,0.0,0.0,0.0,0.0,0.0,0.0,0.0,0.0,0.0,0.0,0.0,0.0,0.0,0.0,0.0,0.0,0.0,0.0,0.0,0.0,0.0,0.0,0.0,0.0,0.0,0.0,0.0,0.0,0.0,0.0,0.0,0.0,0.0,0.0,0.0,0.0,0.0,0.0,0.0,0.0,0.0,0.0,0.0,0.0,0.0,0.0,0.0,0.0,0.0,0.0,0.0,0.0,0.0,0.0,0.0,0.0,0.0,0.0,0.0,0.0,0.0,0.0,0.0,0.0,0.0,0.0,0.0,0.0,0.0,0.0,0.0,0.0,0.0,0.0,0.0,0.0,0.0,0.0,0.0,0.0,0.0,0.0,0.0,0.0,0.0,0.0,0.0,0.0,0.0,0.0,0.0,0.0,0.0,0.0,0.0,0.0,0.0,0.0,0.0,0.0,0.0,0.0,0.0,0.0,0.0,0.0,0.0,0.0,0.0,0.0,0.0,0.0,0.0,0.0,0.0,0.0,0.0,0.0,0.0,0.0,0.0,0.0,0.0,0.0,0.0,0.0,0.0,0.0,0.0,0.0,0.0,0.0,0.0,0.0,0.0,0.0,0.0,0.0,0.0,0.0,0.0,0.0,0.0,0.0,0.0,0.0,0.0,0.0,0.0,0.0,0.0,0.0,0.0,0.0,0.0,0.0,0.0,0.0,0.0,0.0,0.0,0.0,0.0,0.0,0.0,0.0,0.0,0.0,0.0,0.0,0.0,0.0,0.0,0.0,0.0,0.0,0.0,0.0,0.0,0.0,0.0,0.0,0.0,0.0,0.0,0.0,0.0,0.0,0.0,0.0,0.0,0.0,0.0,0.0,0.0,0.0,0.0,0.0,0.0,0.0,0.0,0.0,0.0,0.0,0.0,0.0,0.0,0.0,0.0,0.0,0.0,0.0,0.0,0.0,0.0,0.0,0.0,0.0,0.0,0.0,0.0,0.0,0.0,0.0,0.0,0.0,0.0,0.0,0.0,0.0,0.0,0.0,0.0,0.0,0.0,0.0,0.0,0.0,0.0,0.0,0.0,0.0,0.0,0.0,0.0,0.0,0.0,0.0,0.0,0.0,0.0,0.0,0.0,0.0,0.0,0.0,0.0,0.0,0.0,0.0,0.0,0.0,0.0,0.0,0.0,0.0,0.0,0.0,0.0,0.0,0.0,0.0,0.0,0.0,0.0,0.0,0.0,0.0,0.0,0.0,0.0,0.0,0.0,0.0,0.0,0.0,0.0,0.0,0.0,0.0,0.0,0.0,0.0,0.0,0.0,0.0,0.0,0.0,0.0,0.0,0.0,0.0,0.0,0.0,0.0,0.0,0.0,0.0,0.0,0.0,0.0,0.0,0.0,0.0,0.0,0.0,0.0,0.0,0.0,0.0,0.0,0.0,0.0,0.0,0.0,0.0,0.0,0.0,0.0,0.0,0.0,0.0,0.0,0.0,0.0,0.0,0.0,0.0,0.0,0.0,0.0,0.0,0.0,0.0,0.0,0.0,0.0,0.0,0.0,0.0,0.0,0.0,0.0,0.0,0.0,0.0,0.0,0.0,0.0,0.0,0.0,0.0,0.0,0.0,0.0,0.0,0.0,0.0,0.0,0.0,0.0,0.0,0.0,3.4694,0.0,0.0,0.0,0.0,0.0,0.0,0.0,0.0,0.0,0.0,0.0,0.0,0.0,0.0,0.0,0.0,0.0,0.0,0.0,0.0,0.0,0.0,0.0,0.0,0.0,0.0,0.0,0.0,0.0,0.0,0.0,0.0,0.0,0.0,0.0,0.0,0.0,0.0,0.0,0.0,0.0,0.0,0.0,0.0,0.0,0.0,0.0,0.0,0.0,0.0,0.0,0.0,0.0,0.0,0.0,0.0,0.0,0.0,0.0,0.0,0.0,0.0,0.0,0.0,0.0,0.0,0.0,0.0,0.0,0.0,0.0,0.0,0.0,0.0,0.0,0.0,0.0,0.0,0.0,0.0,0.0,0.0,0.0,0.0,0.0,0.0,0.0,0.0,0.0,0.0,0.0,0.0,0.0,0.0,0.0,0.0,0.0,0.0,0.0,0.0,0.0,0.0,0.0,0.0,0.0,0.0,0.0,0.0,0.0,0.0,0.0,0.0,0.0,0.0,0.0,0.0,3.5687,0.0,0.0,0.0,0.0,0.0,0.0,0.0,0.0,0.0,0.0,0.0,0.0,0.0,0.0,0.0,0.0,0.0,0.0,0.0,0.0,0.0,0.0,0.0,0.0,0.0,0.0,0.0,0.0,0.0,0.0,0.0,0.0,0.0,0.0,0.0,0.0,0.0,0.0,0.0,0.0,0.0,0.0,0.0,0.0,0.0,0.0,0.0,0.0,0.0,0.0,0.0,0.0,0.0,0.0,0.0,0.0,0.0,0.0,0.0,0.0,0.0,0.0,0.0,0.0,0.0,0.0,0.0,0.0,0.0,0.0,0.0,0.0,0.0,0.0,0.0,0.0,0.0,0.0,0.0,0.0,0.0,0.0,0.0,0.0,0.0,0.0,0.0,0.0,0.0,0.0,0.0,0.0,0.0,0.0,0.0,0.0,0.0,0.0,0.0,0.0,0.0,0.0,0.0,0.0,0.0,0.0,0.0,0.0,3.5594,3.5954,3.609,3.6222,3.674,3.7562,3.758,3.8935,4.0845,0.0,0.0,0.0,0.0,0.0,0.0,0.0,0.0,0.0,0.0,0.0,0.0,0.0,0.0,0.0,0.0,0.0,0.0,0.0,0.0,0.0,0.0,0.0,0.0,0.0,0.0,0.0,0.0,0.0,0.0,0.0,0.0,0.0,0.0,0.0,0.0,0.0,0.0,0.0,0.0,0.0,0.0,0.0,0.0,0.0,0.0,0.0,0.0,0.0,0.0,0.0,0.0,0.0,0.0,0.0,0.0,0.0,0.0,0.0,0.0,0.0,0.0,0.0,0.0,0.0,0.0,0.0,0.0,0.0,0.0,0.0,0.0,0.0,0.0,0.0,0.0,0.0,0.0,0.0,0.0,0.0,0.0,0.0,0.0,0.0,0.0,0.0,2.8869,3.0752,0.0,0.0,0.0,0.0,0.0,0.0,0.0,0.0,0.0,0.0,0.0,0.0,0.0,3.5547,3.7201,3.7221,3.7964,3.9451,3.882,3.8878,3.9567,4.033,4.1074,4.1774,4.1914,0.0,3.9355,3.9661,0.0,0.0,0.0,0.0,0.0,0.0,0.0,0.0,0.0,0.0,0.0,0.0,0.0,0.0,0.0,0.0,0.0,0.0,0.0,0.0,0.0,0.0,0.0,0.0,0.0,0.0,0.0,0.0,0.0,0.0,0.0,0.0,0.0,0.0,0.0,0.0,0.0,0.0,0.0,0.0,0.0,0.0,0.0,0.0,0.0,0.0,0.0,0.0,0.0,0.0,0.0,0.0,0.0,0.0,0.0,0.0,0.0,0.0,0.0,0.0,0.0,0.0,0.0,0.0,0.0,0.0,0.0,0.0,0.0,0.0,0.0,0.0,0.0,0.0,0.0,0.0,0.0,0.0,0.0,0.0,0.0,0.0,0.0,0.0,0.0,2.9613,3.0724,3.2601,3.3177,3.3805,0.0,0.0,0.0,0.0,0.0,0.0,0.0,0.0,0.0,3.5813,3.6234,3.6843,3.7566,3.808,3.869,3.9451,3.9566,4.0062,4.0822,4.1205,4.1833,4.2591,4.2671,4.2044,4.1053,4.1494,4.1189,4.0272,0.0,0.0,0.0,0.0,3.7343,3.7649,0.0,0.0,0.0,0.0,0.0,0.0,0.0,0.0,0.0,0.0,0.0,0.0,0.0,0.0,0.0,0.0,0.0,0.0,0.0,0.0,0.0,0.0,0.0,0.0,0.0,0.0,0.0,0.0,0.0,0.0,0.0,0.0,0.0,0.0,0.0,0.0,0.0,0.0,0.0,0.0,0.0,0.0,0.0,0.0,0.0,0.0,0.0,0.0,0.0,0.0,0.0,0.0,0.0,0.0,0.0,0.0,0.0,0.0,0.0,0.0,0.0,0.0,0.0,0.0,0.0,0.0,0.0,0.0,0.0,0.0,0.0,0.0,0.0,0.0,0.0,0.0,0.0,3.1057,3.2046,3.3933,3.3724,3.4008,0.0,0.0,0.0,0.0,0.0,0.0,3.5488,3.6006,3.6406,3.6596,3.7452,3.7851,3.7831,3.8669,3.9201,3.9447,4.0096,4.0819,4.1597,4.1846,4.2303,4.2867,4.314,4.3216,4.3216,4.3094,4.2563,4.1723,4.1112,4.012,3.9069,3.9697,4.0098,4.0537,0.0,0.0,0.0,0.0,0.0,0.0,0.0,0.0,0.0,0.0,0.0,0.0,0.0,0.0,0.0,0.0,0.0,0.0,0.0,0.0,0.0,0.0,0.0,0.0,0.0,0.0,0.0,0.0,0.0,0.0,0.0,0.0,0.0,0.0,0.0,0.0,0.0,0.0,0.0,0.0,0.0,0.0,0.0,0.0,0.0,0.0,0.0,0.0,0.0,0.0,0.0,0.0,0.0,0.0,0.0,0.0,0.0,0.0,0.0,0.0,0.0,0.0,0.0,0.0,0.0,0.0,0.0,0.0,0.0,0.0,0.0,0.0,0.0,0.0,0.0,0.0,0.0,0.0,0.0,3.324,3.3902,0.0,0.0,0.0,0.0,3.4689,3.4927,3.5435,3.6196,3.6274,3.6654,3.7413,3.8209,3.8664,3.8743,3.954,4.0359,4.1161,4.1199,4.1673,4.2465,4.3292,4.3665,4.3687,4.46,4.4966,4.482,4.4053,4.3276,4.2552,4.2514,4.246,4.2446,4.2484,4.3059,4.3978,0.0,0.0,0.0,0.0,0.0,0.0,0.0,0.0,0.0,0.0,0.0,0.0,0.0,0.0,0.0,0.0,0.0,0.0,0.0,0.0,0.0,0.0,0.0,0.0,0.0,0.0,0.0,0.0,0.0,0.0,0.0,0.0,0.0,0.0,0.0,0.0,0.0,0.0,0.0,0.0,0.0,0.0,0.0,0.0,0.0,0.0,0.0,0.0,0.0,0.0,0.0,0.0,0.0,0.0,0.0,0.0,0.0,0.0,0.0,0.0,0.0,0.0,0.0,0.0,0.0,0.0,0.0,0.0,0.0,0.0,0.0,0.0,0.0,0.0,0.0,0.0,0.0,0.0,0.0,3.4227,3.4054,0.0,0.0,3.519,3.5015,3.487,3.5496,3.6007,3.6255,3.728,3.7981,3.8247,3.9039,3.9494,3.9515,4.035,4.0919,4.1244,4.1759,4.2443,4.327,4.3582,4.4014,4.4497,4.4849,4.4962,4.4924,4.4621,4.4387,4.4227,4.4227,4.4227,4.4249,4.4249,4.4467,4.4857,0.0,0.0,0.0,0.0,0.0,0.0,0.0,0.0,0.0,0.0,0.0,0.0,0.0,0.0,0.0,0.0,0.0,0.0,0.0,0.0,0.0,0.0,0.0,0.0,0.0,0.0,0.0,0.0,0.0,0.0,0.0,0.0,0.0,0.0,0.0,0.0,0.0,0.0,0.0,0.0,0.0,0.0,2.1972,0.0,0.0,0.0,0.0,0.0,0.0,0.0,0.0,0.0,0.0,0.0,0.0,0.0,0.0,0.0,0.0,0.0,0.0,0.0,0.0,0.0,0.0,0.0,0.0,0.0,0.0,0.0,0.0,0.0,0.0,0.0,0.0,0.0,0.0,0.0,3.2901,3.4981,3.4203,3.406,3.5343,3.4839,3.4642,3.5128,3.5855,3.654,3.709,3.8112,3.8812,3.9077,3.9911,4.0366,4.0366,4.1177,4.1745,4.2071,4.2587,4.327,4.4118,4.408,4.4383,4.4914,4.4914,4.4914,4.4914,4.4914,4.4962,4.5033,4.5033,4.5247,4.546,4.5171,4.5278,4.5557,0.0,0.0,0.0,0.0,0.0,0.0,0.0,0.0,0.0,0.0,0.0,0.0,0.0,0.0,0.0,0.0,0.0,0.0,0.0,0.0,0.0,0.0,0.0,0.0,0.0,0.0,0.0,0.0,0.0,0.0,0.0,0.0,0.0,0.0,0.0,0.0,0.0,0.0,0.0,0.0,0.0,0.0,2.4882,0.0,0.0,0.0,0.0,0.0,0.0,0.0,0.0,0.0,0.0,0.0,0.0,0.0,0.0,0.0,0.0,0.0,0.0,0.0,0.0,0.0,0.0,0.0,0.0,0.0,0.0,0.0,0.0,0.0,0.0,0.0,0.0,0.0,3.2954,3.4062,3.4742,3.5293,3.446,3.4055,3.454,3.4408,3.4548,3.5318,3.6012,3.7032,3.8584,3.8698,3.9115,3.9927,4.0783,4.12,4.1237,4.2033,4.2867,4.3701,4.3739,4.4156,4.4914,4.4914,4.4914,4.4914,4.4914,4.4914,4.4914,4.4914,4.4914,4.4914,4.4914,4.5456,4.6149,4.5314,4.5589,4.6282,0.0,0.0,0.0,0.0,0.0,0.0,0.0,0.0,0.0,0.0,0.0,0.0,0.0,0.0,0.0,0.0,0.0,0.0,0.0,0.0,0.0,0.0,0.0,0.0,0.0,0.0,0.0,0.0,0.0,0.0,0.0,0.0,0.0,0.0,0.0,0.0,0.0,0.0,0.0,0.0,0.0,0.0,2.5541,0.0,0.0,0.0,0.0,0.0,0.0,0.0,0.0,0.0,0.0,0.0,0.0,0.0,0.0,0.0,0.0,0.0,0.0,0.0,0.0,0.0,0.0,0.0,0.0,0.0,0.0,0.0,0.0,0.0,0.0,0.0,0.0,3.1788,3.3139,3.3146,3.3388,3.4399,3.4447,3.4362,3.4312,3.4772,3.5144,3.5379,3.6803,3.789,3.8319,3.9142,3.9949,4.0821,4.1063,4.148,4.2071,4.2896,4.3464,4.3701,4.4308,4.4687,4.4914,4.4914,4.4914,4.4914,4.4914,4.4914,4.4914,4.4914,4.4914,4.4914,4.4914,4.5066,4.5242,4.5014,4.5518,4.6388,0.0,0.0,0.0,0.0,0.0,0.0,0.0,0.0,0.0,0.0,0.0,0.0,0.0,0.0,0.0,0.0,0.0,0.0,0.0,0.0,0.0,0.0,0.0,0.0,0.0,0.0,0.0,0.0,0.0,0.0,0.0,0.0,0.0,0.0,0.0,0.0,0.0,0.0,0.0,0.0,0.0,0.0,2.6223,2.6249,2.5476,2.436,2.4562,2.4585,2.4587,2.5239,0.0,0.0,0.0,0.0,0.0,0.0,0.0,0.0,0.0,0.0,0.0,0.0,0.0,0.0,0.0,0.0,0.0,0.0,0.0,0.0,0.0,0.0,0.0,0.0,3.1111,3.2391,3.375,3.3999,3.4185,3.4636,3.5118,3.5293,3.488,3.5403,3.5917,3.6408,3.7555,3.8399,3.8893,3.9898,4.0707,4.12,4.1859,4.2465,4.2943,4.3791,4.4208,4.4194,4.4687,4.4914,4.4914,4.4914,4.4914,0.0,4.4914,4.4914,4.4914,4.4914,4.5103,0.0,0.0,0.0,0.0,0.0,4.6304,4.6846,0.0,0.0,0.0,0.0,0.0,0.0,0.0,0.0,0.0,0.0,0.0,0.0,0.0,0.0,0.0,0.0,0.0,0.0,0.0,0.0,0.0,0.0,0.0,0.0,0.0,0.0,0.0,0.0,0.0,0.0,0.0,0.0,0.0,0.0,0.0,0.0,0.0,0.0,0.0,0.0,0.0,0.0,2.6914,2.6914,2.6408,2.5672,2.5853,2.5906,2.5932,2.6136,0.0,0.0,0.0,0.0,0.0,0.0,0.0,0.0,0.0,0.0,0.0,0.0,0.0,0.0,0.0,0.0,0.0,0.0,0.0,0.0,0.0,0.0,0.0,0.0,3.0844,3.2368,3.4832,3.5855,3.6168,3.5653,3.6185,3.6417,3.5908,3.6163,3.672,3.7765,3.8165,3.8846,3.9921,0.0,0.0,0.0,0.0,4.3739,4.3815,4.4535,4.4914,4.4914,4.4914,4.4914,4.4914,4.4914,4.4914,4.4914,4.4914,4.4914,4.4914,4.5028,4.5558,4.6241,4.5483,4.5634,4.643,4.7264,4.7529,4.7593,0.0,0.0,0.0,0.0,0.0,0.0,0.0,0.0,0.0,0.0,0.0,0.0,0.0,0.0,0.0,0.0,0.0,0.0,0.0,0.0,0.0,0.0,0.0,0.0,0.0,0.0,0.0,0.0,0.0,0.0,0.0,0.0,0.0,0.0,0.0,0.0,0.0,0.0,0.0,0.0,0.0,0.0,2.7549,2.7549,2.7414,2.7245,2.7302,2.7302,2.7302,2.736,2.6972,2.6666,2.7651,0.0,0.0,0.0,0.0,0.0,0.0,0.0,0.0,0.0,0.0,0.0,0.0,0.0,0.0,0.0,0.0,0.0,0.0,0.0,0.0,3.2367,3.2978,3.4092,3.6577,3.705,3.7062,3.6738,3.6634,3.6461,3.6164,3.6751,3.725,3.7456,3.8585,3.9639,4.0478,4.0972,0.0,4.317,4.3549,4.4004,4.4649,4.4838,4.4914,4.4914,0.0,0.0,4.4914,4.4914,4.4914,4.4914,4.4914,4.4914,4.4952,4.5672,4.643,4.715,4.6961,4.6999,4.7264,4.8136,4.8439,4.8515,0.0,0.0,0.0,0.0,0.0,0.0,0.0,0.0,0.0,0.0,0.0,0.0,0.0,0.0,0.0,0.0,0.0,0.0,0.0,0.0,0.0,0.0,0.0,0.0,0.0,0.0,0.0,0.0,0.0,0.0,0.0,0.0,0.0,0.0,0.0,0.0,0.0,0.0,0.0,0.0,0.0,0.0,2.7582,2.7582,2.7587,2.7496,2.7587,2.7582,2.7612,2.7672,2.7455,2.7267,2.7875,2.778,2.7335,0.0,0.0,0.0,0.0,0.0,0.0,0.0,0.0,0.0,0.0,0.0,0.0,0.0,0.0,2.9502,0.0,0.0,3.2135,3.3799,3.4507,3.5587,3.765,3.7953,3.7851,3.7529,3.7779,3.7829,3.7434,3.7771,3.8235,3.8818,3.9509,4.0323,4.1304,4.1883,4.2599,4.3429,4.3932,4.4399,4.4815,4.4889,4.4914,4.4914,4.4914,4.4914,4.4914,4.4914,4.4914,4.4914,4.4914,4.5141,4.5634,4.6923,4.7681,4.8098,4.8477,4.8401,4.8136,4.8969,4.9273,4.9349,0.0,0.0,0.0,0.0,0.0,0.0,0.0,0.0,0.0,0.0,0.0,0.0,0.0,0.0,0.0,0.0,0.0,0.0,0.0,0.0,0.0,0.0,0.0,0.0,0.0,0.0,0.0,0.0,0.0,0.0,0.0,0.0,0.0,0.0,0.0,0.0,0.0,0.0,0.0,0.0,0.0,0.0,2.7526,2.7465,2.7407,2.7313,2.7404,2.7361,2.7257,2.7547,2.7507,2.7402,2.7607,2.7672,2.7596,2.7106,2.6957,0.0,0.0,0.0,0.0,0.0,0.0,0.0,0.0,0.0,2.9616,2.8792,2.9393,3.0181,3.0528,3.1875,3.3426,3.4824,3.5684,3.6782,3.8463,3.8577,3.8418,3.8286,3.8852,3.911,3.8737,3.8854,3.9312,4.0205,4.0514,4.1101,4.2179,4.2844,4.3294,4.3444,4.4229,4.4685,4.4712,4.4815,4.4889,4.4914,4.4914,4.4914,4.4914,4.4914,4.499,4.5141,4.5331,4.5862,4.6771,4.8136,4.878,4.9007,4.9652,4.95,4.9007,4.9652,4.9879,4.9879,0.0,0.0,0.0,0.0,0.0,0.0,0.0,0.0,0.0,0.0,0.0,0.0,0.0,0.0,0.0,0.0,0.0,0.0,0.0,0.0,0.0,0.0,0.0,0.0,0.0,0.0,0.0,0.0,0.0,0.0,0.0,0.0,0.0,0.0,0.0,0.0,0.0,0.0,0.0,0.0,0.0,0.0,2.7642,2.7438,2.7313,2.7282,2.7313,2.6864,2.6381,2.7103,2.6861,2.6411,2.7257,2.7526,2.7522,2.7572,0.0,2.728,0.0,0.0,0.0,2.7036,2.7841,2.8262,0.0,0.0,2.962,2.9485,3.0096,3.0964,3.1901,3.301,3.4375,3.6186,3.6718,3.746,3.9171,3.8785,3.8527,3.908,3.9137,3.9082,3.9027,3.9694,4.0168,4.0308,4.1268,4.2152,4.3031,4.3144,4.3557,4.4346,4.4458,4.4578,4.4712,4.4712,4.4789,4.4914,4.4914,4.4914,4.4914,4.4914,4.5331,4.6089,4.6809,4.7605,4.8439,4.8628,4.9121,4.9765,4.9841,4.9841,4.9765,4.9841,4.9879,4.9879,0.0,0.0,0.0,0.0,0.0,0.0,0.0,0.0,0.0,0.0,0.0,0.0,0.0,0.0,0.0,0.0,0.0,0.0,0.0,0.0,0.0,0.0,0.0,0.0,0.0,0.0,0.0,0.0,0.0,0.0,0.0,0.0,0.0,0.0,0.0,0.0,0.0,0.0,0.0,0.0,0.0,0.0,2.7853,2.7617,2.7465,2.7438,2.7313,2.6764,0.0,0.0,2.6764,2.6316,2.7618,2.7411,2.6957,2.8467,2.7971,0.0,2.7356,0.0,0.0,0.0,2.8386,2.8025,2.8167,2.8699,2.9053,2.8592,2.9869,3.1351,3.2373,3.4135,3.5964,0.0,3.8015,3.8462,3.9252,3.9102,3.8988,3.9147,3.912,3.9082,3.9082,3.9863,4.0531,4.1014,4.1911,4.2789,4.3639,4.3647,4.3834,4.4199,4.4325,4.4411,4.4468,4.4632,4.4738,4.4789,4.4865,4.4914,4.4914,4.5445,4.6089,4.6961,4.7795,4.8363,4.8742,4.9197,4.9576,4.9879,4.9879,4.9879,4.9879,4.9879,4.9879,4.9879,0.0,0.0,0.0,0.0,0.0,0.0,0.0,0.0,0.0,0.0,0.0,0.0,0.0,0.0,0.0,0.0,0.0,0.0,0.0,0.0,0.0,0.0,0.0,0.0,0.0,0.0,0.0,0.0,0.0,0.0,0.0,0.0,0.0,0.0,0.0,0.0,0.0,0.0,0.0,0.0,0.0,0.0,2.7968,2.776,2.7537,2.7243,2.7157,2.658,0.0,0.0,2.6234,2.5754,2.7134,2.6788,2.6303,2.854,2.8154,2.7422,2.9323,0.0,0.0,2.9776,2.9316,2.8473,2.907,2.9382,2.9351,2.8789,3.0162,3.1843,3.3031,3.4898,0.0,3.8167,3.8759,3.9027,3.9192,3.9219,3.9192,3.911,3.9305,3.9454,3.9454,4.0234,4.1051,4.1869,4.2686,4.3392,4.3986,4.3986,4.4098,4.4358,4.4258,4.4349,4.4662,4.4608,4.4659,4.4764,4.5067,4.523,4.5293,4.6392,4.7188,4.7795,4.8666,4.9007,4.9083,4.9652,4.9879,4.9879,4.9879,4.9879,4.9879,4.9879,4.9879,4.9879,0.0,0.0,0.0,0.0,0.0,0.0,0.0,0.0,0.0,0.0,0.0,0.0,0.0,0.0,0.0,0.0,0.0,0.0,0.0,0.0,0.0,0.0,0.0,0.0,0.0,0.0,0.0,0.0,0.0,0.0,0.0,0.0,0.0,0.0,0.0,0.0,0.0,0.0,0.0,0.0,0.0,0.0,2.7968,2.776,2.7245,2.6619,2.6619,0.0,0.0,0.0,2.4863,2.4232,2.517,2.5387,0.0,2.7262,2.8111,0.0,0.0,0.0,2.8955,3.0622,3.0512,2.9951,2.9951,3.0582,3.1109,3.1109,3.1705,3.2757,3.4337,3.515,3.6121,3.7675,3.8517,3.9007,3.9007,3.9064,3.9082,3.9082,3.9863,4.0346,0.0,4.1089,4.1906,4.2686,4.3503,4.3986,4.3986,4.3986,4.4395,4.5212,4.4432,4.455,4.5669,4.4766,4.4524,4.4914,4.5621,4.6036,4.6203,4.787,4.8628,4.8704,4.95,4.9841,4.9841,4.9879,4.9879,4.9879,4.9879,4.9879,4.9879,4.9879,4.9879,4.9879,0.0,0.0,0.0,0.0,0.0,0.0,0.0,0.0,0.0,0.0,0.0,0.0,0.0,0.0,0.0,0.0,0.0,0.0,0.0,0.0,0.0,0.0,0.0,0.0,0.0,0.0,0.0,0.0,0.0,0.0,0.0,0.0,0.0,0.0,0.0,0.0,0.0,0.0,0.0,0.0,0.0,0.0,2.746,2.8443,2.7614,2.6012,0.0,0.0,0.0,0.0,0.0,0.0,2.5687,0.0,0.0,2.7139,0.0,0.0,0.0,0.0,3.1046,3.1462,3.1011,3.0317,2.9797,3.0283,3.0699,3.0179,3.2295,3.4376,3.4931,3.5465,3.6613,3.8867,3.8016,3.7521,3.883,3.9007,3.9249,3.99,4.0197,0.0,0.0,0.0,0.0,4.276,4.354,4.3986,4.3986,4.4544,4.4989,4.5287,4.5547,4.5834,4.6227,4.5469,4.5498,4.629,4.6717,4.7276,4.787,4.8439,4.8969,4.95,4.9765,4.9879,4.9879,4.9879,4.9879,4.9879,4.9879,4.9879,4.9955,5.0561,5.0751,5.0751,0.0,0.0,0.0,0.0,0.0,0.0,0.0,0.0,0.0,0.0,0.0,0.0,0.0,0.0,0.0,0.0,0.0,0.0,0.0,0.0,0.0,0.0,0.0,0.0,0.0,0.0,0.0,0.0,0.0,0.0,0.0,0.0,0.0,0.0,0.0,0.0,0.0,0.0,0.0,0.0,0.0,0.0,2.796,2.8719,2.7807,0.0,0.0,0.0,0.0,0.0,0.0,0.0,0.0,0.0,0.0,0.0,0.0,0.0,0.0,3.2965,3.2194,3.2605,3.2081,3.142,3.1179,3.1524,3.1765,3.1248,3.3524,3.5663,3.5973,3.6291,3.7496,4.061,3.9331,3.8493,4.003,4.0533,4.0637,4.042,4.0903,0.0,0.0,0.0,0.0,4.3243,4.3726,4.4135,4.4432,4.4989,4.5547,4.6141,4.6364,4.6657,4.702,4.6296,4.6443,4.7513,4.7764,4.8287,4.9121,4.9121,4.9386,4.9879,4.9879,5.0069,5.0372,5.0372,5.0523,5.0789,5.0789,5.0789,5.0865,5.1433,5.1623,5.1623,0.0,0.0,0.0,0.0,0.0,0.0,0.0,0.0,0.0,0.0,0.0,0.0,0.0,0.0,0.0,0.0,0.0,0.0,0.0,0.0,0.0,0.0,0.0,0.0,0.0,0.0,0.0,0.0,0.0,0.0,0.0,0.0,0.0,0.0,0.0,0.0,0.0,0.0,0.0,0.0,0.0,0.0,2.9331,2.8622,0.0,0.0,0.0,0.0,0.0,0.0,0.0,0.0,0.0,0.0,0.0,0.0,0.0,3.2004,3.434,3.367,3.2648,3.4004,3.3679,3.3214,3.3938,3.4076,3.4111,3.4145,3.5318,3.6628,0.0,0.0,3.8679,4.265,4.2014,4.1346,4.2258,4.3204,4.2971,0.0,0.0,0.0,0.0,0.0,0.0,4.3986,0.0,4.4395,4.5249,4.5324,4.6067,4.7664,4.6995,4.7057,4.7965,4.7249,4.7395,4.84,4.8651,4.9159,4.9879,4.9879,4.9917,4.9955,4.9955,5.0448,5.1282,5.1282,5.1736,5.2419,5.2419,5.2419,5.2419,5.2456,5.2494,5.2494,0.0,0.0,0.0,0.0,0.0,0.0,0.0,0.0,0.0,0.0,0.0,0.0,0.0,0.0,0.0,0.0,0.0,0.0,0.0,0.0,0.0,0.0,0.0,0.0,0.0,0.0,0.0,0.0,0.0,0.0,0.0,0.0,0.0,0.0,0.0,0.0,0.0,0.0,0.0,0.0,0.0,0.0,2.7877,0.0,0.0,0.0,0.0,0.0,0.0,0.0,0.0,0.0,0.0,0.0,2.8941,0.0,0.0,3.2983,3.5226,3.5436,3.5113,3.5196,3.5009,3.4723,3.4219,3.4076,3.4249,3.48,3.6111,3.7594,0.0,0.0,0.0,4.1145,3.987,0.0,4.0577,4.1533,0.0,0.0,0.0,4.302,4.3652,4.3875,0.0,0.0,4.3986,4.4395,4.5249,4.5881,4.6661,4.7664,4.8073,4.8472,4.8861,4.8889,4.8767,4.8438,4.9219,4.969,4.9879,4.9879,5.0258,5.0865,5.0865,5.1319,5.2115,5.2115,5.2229,5.2419,5.2419,5.2419,5.2494,5.3139,5.3366,5.3442,0.0,0.0,0.0,0.0,0.0,0.0,0.0,0.0,0.0,0.0,0.0,0.0,0.0,0.0,0.0,0.0,0.0,0.0,0.0,0.0,0.0,0.0,0.0,0.0,0.0,0.0,0.0,0.0,0.0,0.0,0.0,0.0,0.0,0.0,0.0,0.0,0.0,0.0,0.0,0.0,0.0,0.0,0.0,0.0,0.0,0.0,0.0,0.0,0.0,0.0,0.0,2.7049,2.8191,2.9333,3.0654,3.2652,0.0,3.3832,3.5723,3.5935,3.5648,3.5741,3.5696,3.5584,3.5397,3.564,3.5948,3.6365,3.8056,0.0,0.0,0.0,0.0,0.0,0.0,0.0,4.2125,4.305,4.341,0.0,4.3095,0.0,4.3949,4.3986,4.4172,0.0,4.4581,4.4952,4.5769,4.6587,4.7404,4.8184,4.8736,4.9347,4.9909,4.9755,4.9683,4.9617,4.9814,5.0107,5.0486,5.0486,5.094,5.1736,0.0,5.2191,5.2987,5.2987,5.3177,5.3518,5.3518,5.3518,5.3556,5.4048,5.4238,5.4276,0.0,0.0,0.0,0.0,0.0,0.0,0.0,0.0,0.0,0.0,0.0,0.0,0.0,0.0,0.0,0.0,0.0,0.0,0.0,0.0,0.0,0.0,0.0,0.0,0.0,0.0,0.0,0.0,0.0,0.0,0.0,0.0,0.0,0.0,0.0,0.0,0.0,0.0,0.0,0.0,0.0,0.0,0.0,0.0,0.0,0.0,0.0,0.0,0.0,0.0,2.8452,2.862,3.019,3.1719,3.3152,3.465,3.4686,3.4579,3.6006,3.583,3.5368,3.6112,3.6107,3.6101,3.6876,3.7439,3.7862,3.8285,0.0,0.0,4.2967,0.0,4.205,4.6266,0.0,4.3024,4.442,4.5416,4.5263,4.3206,4.3578,4.3986,4.3986,4.4098,4.4506,4.5249,4.5504,4.5951,4.6657,4.7363,4.8107,4.8959,4.9272,4.9909,5.09,5.0325,5.0421,5.1206,5.0523,5.0561,5.1206,5.1319,5.1812,5.257,0.0,0.0,5.3859,5.3859,5.4276,5.492,5.492,5.492,5.492,5.492,5.492,5.492,0.0,0.0,0.0,0.0,0.0,0.0,0.0,0.0,0.0,0.0,0.0,0.0,0.0,0.0,0.0,0.0,0.0,0.0,0.0,0.0,0.0,0.0,0.0,0.0,0.0,0.0,0.0,0.0,0.0,0.0,0.0,0.0,0.0,0.0,0.0,0.0,0.0,0.0,0.0,0.0,0.0,0.0,0.0,0.0,0.0,0.0,0.0,0.0,0.0,0.0,2.9322,2.9554,3.1094,3.2179,3.308,3.4008,3.465,3.5221,3.6149,3.6257,3.6364,3.7184,3.6827,3.6506,3.7363,3.6682,0.0,0.0,0.0,4.0341,4.3068,0.0,0.0,4.2849,0.0,0.0,0.0,0.0,0.0,0.0,0.0,0.0,0.0,0.0,0.0,0.0,0.0,4.7596,4.7708,4.7858,4.837,4.9283,5.0146,5.0719,5.09,5.1584,5.1708,5.1206,5.1736,5.1698,5.1244,5.1888,5.2684,5.348,5.348,0.0,5.4693,5.4693,5.4769,5.492,5.492,5.492,5.492,5.492,5.492,5.492,0.0,0.0,0.0,0.0,0.0,0.0,0.0,0.0,0.0,0.0,0.0,0.0,0.0,0.0,0.0,0.0,0.0,0.0,0.0,0.0,0.0,0.0,0.0,0.0,0.0,0.0,0.0,0.0,0.0,0.0,0.0,0.0,0.0,0.0,0.0,0.0,0.0,0.0,0.0,0.0,0.0,0.0,0.0,0.0,0.0,0.0,0.0,0.0,0.0,0.0,3.0803,3.055,3.1505,3.2317,3.3045,3.3865,3.4715,3.5567,3.6357,3.7032,3.7422,3.7419,3.7094,3.6877,3.7272,0.0,0.0,0.0,0.0,0.0,4.4378,0.0,0.0,0.0,0.0,0.0,0.0,0.0,0.0,0.0,0.0,0.0,0.0,0.0,0.0,0.0,0.0,0.0,4.7965,4.8471,4.8971,4.9537,5.0417,5.0959,5.1055,5.1557,5.1812,5.1812,5.1812,5.204,5.2532,5.2911,5.3518,5.4314,5.4314,0.0,5.492,5.492,5.492,5.492,5.492,5.492,5.492,5.492,5.5185,5.5564,0.0,0.0,0.0,0.0,0.0,0.0,0.0,0.0,0.0,0.0,0.0,0.0,0.0,0.0,0.0,0.0,0.0,0.0,0.0,0.0,0.0,0.0,0.0,0.0,0.0,0.0,0.0,0.0,0.0,0.0,0.0,0.0,0.0,0.0,0.0,0.0,0.0,0.0,0.0,0.0,0.0,0.0,0.0,0.0,0.0,0.0,0.0,0.0,0.0,0.0,3.2265,3.1869,3.219,3.2559,3.305,3.4135,3.5051,3.5928,3.6841,3.762,3.7963,3.7332,3.693,3.6784,3.7174,3.7613,0.0,0.0,0.0,0.0,0.0,0.0,0.0,0.0,0.0,0.0,0.0,0.0,0.0,0.0,0.0,0.0,0.0,0.0,0.0,0.0,0.0,0.0,4.829,4.9077,4.9642,5.0014,5.0619,5.113,5.1471,5.1661,5.1964,5.2419,5.2115,5.2608,5.3707,5.3897,5.4314,5.492,5.492,0.0,0.0,5.492,5.492,5.492,5.492,5.4996,5.5185,5.5185,5.5716,5.6474,0.0,0.0,0.0,0.0,0.0,0.0,0.0,0.0,0.0,0.0,0.0,0.0,0.0,0.0,0.0,0.0,0.0,0.0,0.0,0.0,0.0,0.0,0.0,0.0,0.0,0.0,0.0,0.0,0.0,0.0,0.0,0.0,0.0,0.0,0.0,0.0,0.0,0.0,0.0,0.0,0.0,0.0,0.0,0.0,0.0,0.0,0.0,0.0,0.0,0.0,0.0,3.3734,3.3783,3.325,3.302,3.5126,0.0,0.0,3.7624,3.7584,3.7265,3.7434,3.636,3.5717,3.7451,0.0,0.0,0.0,0.0,0.0,0.0,0.0,0.0,0.0,0.0,0.0,0.0,0.0,0.0,0.0,0.0,0.0,0.0,0.0,0.0,0.0,0.0,0.0,4.9271,4.9646,5.0231,5.1026,5.114,5.1519,5.2305,5.3063,5.3101,5.2419,5.3859,5.4276,5.3707,5.4465,5.4844,5.492,5.492,0.0,0.0,5.492,5.492,5.492,5.492,5.5375,5.6095,5.6095,5.6588,5.727,0.0,0.0,0.0,0.0,0.0,0.0,0.0,0.0,0.0,0.0,0.0,0.0,0.0,0.0,0.0,0.0,0.0,0.0,0.0,0.0,0.0,0.0,0.0,0.0,0.0,0.0,0.0,0.0,0.0,0.0,0.0,0.0,0.0,0.0,0.0,0.0,0.0,0.0,0.0,0.0,0.0,0.0,0.0,0.0,0.0,0.0,0.0,0.0,0.0,0.0,0.0,0.0,3.4379,3.3627,0.0,0.0,3.5155,3.6361,3.5892,3.6767,3.7734,3.7366,3.7131,3.7317,3.8473,0.0,0.0,0.0,0.0,0.0,0.0,0.0,0.0,0.0,0.0,0.0,0.0,0.0,0.0,0.0,0.0,0.0,0.0,0.0,0.0,0.0,0.0,0.0,5.0282,5.0525,5.0827,5.1206,5.2191,5.2608,5.2419,5.3252,5.3518,5.3177,5.3859,5.4276,5.4427,5.4769,5.492,5.492,5.492,0.0,0.0,5.492,5.5223,5.5678,5.5678,5.6171,5.6929,5.6929,5.746,5.818,0.0,0.0,0.0,0.0,0.0,0.0,0.0,0.0,0.0,0.0,0.0,0.0,0.0,0.0,0.0,0.0,0.0,0.0,0.0,0.0,0.0,0.0,0.0,0.0,0.0,0.0,0.0,0.0,0.0,0.0,0.0,0.0,0.0,0.0,0.0,0.0,0.0,0.0,0.0,0.0,0.0,0.0,0.0,0.0,0.0,0.0,0.0,0.0,0.0,0.0,0.0,0.0,0.0,0.0,0.0,0.0,3.4982,3.6109,3.6074,3.6956,3.7925,3.785,3.8061,3.8488,0.0,0.0,0.0,0.0,4.3074,4.3602,4.4692,4.6062,4.7467,0.0,0.0,0.0,0.0,0.0,0.0,0.0,0.0,0.0,0.0,0.0,0.0,0.0,0.0,0.0,0.0,5.1695,5.1912,5.1585,5.2722,5.3025,5.2419,5.3252,5.3707,5.3707,5.3935,5.4352,5.492,5.492,5.492,5.492,0.0,0.0,0.0,5.5185,5.564,5.6209,5.6474,5.7043,5.7763,5.7763,5.8331,5.9051,0.0,0.0,0.0,0.0,0.0,0.0,0.0,0.0,0.0,0.0,0.0,0.0,0.0,0.0,0.0,0.0,0.0,0.0,0.0,0.0,0.0,0.0,0.0,0.0,0.0,0.0,0.0,0.0,0.0,0.0,0.0,0.0,0.0,0.0,0.0,0.0,0.0,0.0,0.0,0.0,0.0,0.0,0.0,0.0,0.0,0.0,0.0,0.0,0.0,0.0,0.0,0.0,0.0,0.0,0.0,0.0,3.5866,3.5571,3.9376,3.8802,3.7535,3.9188,3.8925,3.8549,0.0,0.0,0.0,0.0,4.3669,4.4237,4.4055,4.4817,4.6375,4.9047,0.0,0.0,0.0,0.0,0.0,0.0,0.0,0.0,0.0,0.0,0.0,0.0,0.0,0.0,0.0,5.3168,5.3632,5.2419,5.2419,5.2419,5.2419,5.3252,5.3707,5.3707,5.4503,5.4882,5.492,5.492,5.492,0.0,0.0,0.0,0.0,5.583,5.6171,5.6285,5.7081,5.7914,5.8672,5.8672,5.9203,5.9885,0.0,0.0,0.0,0.0,0.0,0.0,0.0,0.0,0.0,0.0,0.0,0.0,0.0,0.0,0.0,0.0,0.0,0.0,0.0,0.0,0.0,0.0,0.0,0.0,0.0,0.0,0.0,0.0,0.0,0.0,0.0,0.0,0.0,0.0,0.0,0.0,0.0,0.0,0.0,0.0,0.0,0.0,0.0,0.0,0.0,0.0,0.0,0.0,0.0,0.0,0.0,0.0,0.0,0.0,0.0,0.0,0.0,0.0,3.7246,3.7888,3.8439,3.9535,4.0443,4.1288,4.2096,0.0,0.0,0.0,4.384,4.3774,4.4242,4.5134,4.6619,4.9221,4.983,5.0924,0.0,0.0,0.0,0.0,0.0,0.0,0.0,0.0,0.0,0.0,0.0,0.0,0.0,5.389,5.3948,5.3427,5.3971,5.4258,5.4124,5.4389,5.4541,5.4541,5.4769,5.492,5.492,5.492,0.0,0.0,0.0,0.0,0.0,5.6891,5.7384,5.7914,5.818,5.8786,5.9506,5.9506,5.9658,5.9885,0.0,0.0,0.0,0.0,0.0,0.0,0.0,0.0,0.0,0.0,0.0,0.0,0.0,0.0,0.0,0.0,0.0,0.0,0.0,0.0,0.0,0.0,0.0,0.0,0.0,0.0,0.0,0.0,0.0,0.0,0.0,0.0,0.0,0.0,0.0,0.0,0.0,0.0,0.0,0.0,0.0,0.0,0.0,0.0,0.0,0.0,0.0,0.0,0.0,0.0,0.0,0.0,0.0,0.0,0.0,0.0,0.0,0.0,0.0,3.8933,3.9578,4.1038,4.2177,0.0,0.0,0.0,0.0,0.0,4.4697,4.461,4.5386,4.5824,4.7086,4.9999,5.0527,5.1438,0.0,0.0,0.0,0.0,0.0,0.0,0.0,0.0,0.0,0.0,0.0,0.0,0.0,5.4203,5.4507,5.4633,5.5071,5.5084,5.4645,5.495,5.5113,5.5028,5.5028,5.4971,5.492,5.5223,0.0,0.0,0.0,0.0,0.0,5.7763,5.8218,5.871,5.9014,5.9468,5.9885,5.9885,5.9918,5.995,0.0,0.0,0.0,0.0,0.0,0.0,0.0,0.0,0.0,0.0,0.0,0.0,0.0,0.0,0.0,0.0,0.0,0.0,0.0,0.0,0.0,0.0,0.0,0.0,0.0,0.0,0.0,0.0,0.0,0.0,0.0,0.0,0.0,0.0,0.0,0.0,0.0,0.0,0.0,0.0,0.0,0.0,0.0,0.0,0.0,0.0,0.0,0.0,0.0,0.0,0.0,0.0,0.0,0.0,0.0,0.0,0.0,0.0,0.0,0.0,0.0,0.0,0.0,0.0,0.0,0.0,0.0,0.0,0.0,4.6415,4.7049,4.6763,4.7601,5.1239,5.0469,5.0297,0.0,0.0,0.0,0.0,0.0,0.0,0.0,0.0,0.0,0.0,0.0,0.0,0.0,5.4336,5.5186,5.5768,5.5621,5.5148,5.4296,5.5101,5.5389,5.521,5.521,5.514,5.5026,5.586,0.0,0.0,0.0,0.0,0.0,5.8445,5.8786,5.8894,5.9652,5.9918,5.9918,5.9918,5.9982,6.0007,0.0,0.0,0.0,0.0,0.0,0.0,0.0,0.0,0.0,0.0,0.0,0.0,0.0,0.0,0.0,0.0,0.0,0.0,0.0,0.0,0.0,0.0,0.0,0.0,0.0,0.0,0.0,0.0,0.0,0.0,0.0,0.0,0.0,0.0,0.0,0.0,0.0,0.0,0.0,0.0,0.0,0.0,0.0,0.0,0.0,0.0,0.0,0.0,0.0,0.0,0.0,0.0,0.0,0.0,0.0,0.0,0.0,0.0,0.0,0.0,0.0,0.0,0.0,0.0,0.0,0.0,0.0,0.0,0.0,0.0,4.6572,4.6682,4.7912,5.1395,5.1699,5.1871,0.0,0.0,0.0,0.0,0.0,0.0,0.0,0.0,0.0,0.0,0.0,0.0,0.0,5.532,5.583,5.5959,5.5956,5.5731,5.5178,5.5408,5.5461,5.5413,5.5413,5.5658,5.6054,5.6245,0.0,0.0,0.0,0.0,5.9412,5.9602,5.9678,5.9716,5.9906,5.9982,5.9982,5.9982,6.0121,6.0272,0.0,0.0,0.0,0.0,0.0,0.0,0.0,0.0,0.0,0.0,0.0,0.0,0.0,0.0,0.0,0.0,0.0,0.0,0.0,0.0,0.0,0.0,0.0,0.0,0.0,0.0,0.0,0.0,0.0,0.0,0.0,0.0,0.0,0.0,0.0,0.0,0.0,0.0,0.0,0.0,0.0,0.0,0.0,0.0,0.0,0.0,0.0,0.0,0.0,3.5083,3.5801,3.6311,0.0,0.0,0.0,0.0,0.0,0.0,0.0,0.0,0.0,0.0,0.0,0.0,0.0,0.0,0.0,0.0,0.0,0.0,0.0,0.0,0.0,0.0,5.1639,0.0,0.0,0.0,0.0,0.0,0.0,0.0,0.0,0.0,0.0,0.0,0.0,0.0,0.0,5.5345,5.5744,5.6087,5.6132,5.6001,5.5728,5.5768,5.573,5.5686,5.6028,5.6345,5.6697,5.7417,5.8165,0.0,0.0,0.0,6.0038,6.0038,6.0038,6.0038,6.0038,6.0091,6.017,6.017,6.0353,6.0589,0.0,0.0,0.0,0.0,0.0,0.0,0.0,0.0,0.0,0.0,0.0,0.0,0.0,0.0,0.0,0.0,0.0,0.0,0.0,0.0,0.0,0.0,0.0,0.0,0.0,0.0,0.0,0.0,0.0,0.0,0.0,0.0,0.0,0.0,0.0,0.0,0.0,0.0,0.0,0.0,0.0,0.0,0.0,0.0,0.0,0.0,0.0,0.0,0.0,3.5049,3.6095,3.6696,3.6936,0.0,0.0,0.0,0.0,0.0,0.0,0.0,0.0,0.0,0.0,0.0,0.0,0.0,0.0,0.0,0.0,0.0,0.0,0.0,0.0,0.0,0.0,0.0,0.0,0.0,0.0,0.0,0.0,0.0,0.0,0.0,0.0,0.0,0.0,0.0,0.0,5.5151,5.5488,5.6175,5.6226,5.6199,5.6239,5.6281,5.6265,5.6149,5.6927,5.7313,5.7448,5.8803,5.9418,0.0,0.0,0.0,6.0208,6.0217,6.0179,6.0208,6.0217,6.0283,6.0507,6.0507,6.0657,6.0944,0.0,0.0,0.0,0.0,0.0,0.0,0.0,0.0,0.0,0.0,0.0,0.0,0.0,0.0,0.0,0.0,0.0,0.0,0.0,0.0,0.0,0.0,0.0,0.0,0.0,0.0,0.0,0.0,0.0,0.0,0.0,0.0,0.0,0.0,0.0,0.0,0.0,0.0,0.0,0.0,0.0,0.0,0.0,0.0,0.0,0.0,0.0,0.0,0.0,3.5228,3.5872,3.6144,3.6798,0.0,0.0,0.0,0.0,0.0,0.0,0.0,0.0,0.0,0.0,0.0,0.0,0.0,0.0,0.0,0.0,0.0,0.0,0.0,0.0,0.0,0.0,0.0,0.0,0.0,0.0,0.0,0.0,0.0,0.0,0.0,0.0,0.0,0.0,0.0,0.0,5.5714,5.6119,5.6214,5.6275,5.6613,5.7275,5.7288,5.7275,5.7261,5.8115,5.8832,5.9374,5.9609,5.9998,0.0,0.0,6.0702,6.0762,6.0594,6.0618,6.0762,6.0594,6.0666,6.0825,6.0825,6.1,6.1221,0.0,0.0,0.0,0.0,0.0,0.0,0.0,0.0,0.0,0.0,0.0,0.0,0.0,0.0,0.0,0.0,0.0,0.0,0.0,0.0,0.0,0.0,0.0,0.0,0.0,0.0,0.0,0.0,0.0,0.0,0.0,0.0,0.0,0.0,0.0,0.0,0.0,0.0,0.0,0.0,0.0,0.0,0.0,0.0,0.0,0.0,0.0,0.0,0.0,0.0,0.0,0.0,3.6356,0.0,0.0,0.0,0.0,0.0,0.0,0.0,0.0,0.0,0.0,0.0,0.0,0.0,0.0,0.0,0.0,0.0,0.0,0.0,0.0,0.0,0.0,0.0,0.0,0.0,0.0,0.0,0.0,0.0,0.0,0.0,0.0,0.0,0.0,0.0,0.0,0.0,5.6378,5.6358,5.6378,5.6768,5.7603,5.807,5.8293,5.8258,5.9115,5.9685,6.01,6.0483,6.0809,6.1014,0.0,6.0963,6.0964,6.0864,6.0884,6.0964,6.0864,6.0945,6.1142,6.1221,6.1344,6.1456,0.0,0.0,0.0,0.0,0.0,0.0,0.0,0.0,0.0,0.0,0.0,0.0,0.0,0.0,0.0,0.0,0.0,0.0,0.0,0.0,0.0,0.0,0.0,0.0,0.0,0.0,0.0,0.0,0.0,0.0,0.0,0.0,0.0,0.0,0.0,0.0,0.0,0.0,0.0,0.0,0.0,0.0,0.0,0.0,0.0,0.0,0.0,0.0,0.0,0.0,0.0,0.0,0.0,0.0,0.0,0.0,0.0,3.78,3.913,0.0,0.0,0.0,0.0,0.0,0.0,0.0,0.0,0.0,0.0,0.0,0.0,0.0,0.0,0.0,0.0,0.0,0.0,0.0,0.0,0.0,0.0,0.0,0.0,0.0,0.0,0.0,0.0,0.0,0.0,0.0,5.658,5.6775,5.6775,5.7282,5.8295,5.8957,5.929,5.9249,6.0059,6.0511,6.0633,6.1211,6.1434,6.1357,6.1342,6.1229,6.1126,6.1092,6.1092,6.1126,6.1092,6.1174,6.1408,6.1539,6.1607,6.1607,0.0,0.0,0.0,0.0,0.0,0.0,0.0,0.0,0.0,0.0,0.0,0.0,0.0,0.0,0.0,0.0,0.0,0.0,0.0,0.0,0.0,0.0,0.0,0.0,0.0,0.0,0.0,0.0,0.0,0.0,0.0,0.0,0.0,0.0,0.0,0.0,0.0,0.0,0.0,0.0,0.0,0.0,0.0,0.0,0.0,0.0,0.0,0.0,0.0,0.0,0.0,0.0,0.0,0.0,0.0,0.0,0.0,3.8436,3.8553,3.9774,0.0,0.0,0.0,0.0,0.0,0.0,0.0,0.0,0.0,0.0,0.0,0.0,0.0,0.0,0.0,0.0,0.0,0.0,0.0,0.0,0.0,0.0,0.0,0.0,0.0,0.0,0.0,0.0,0.0,0.0,0.0,5.7594,5.7594,5.8412,6.0088,6.0165,6.0204,6.0204,6.1091,6.1481,6.149,6.1559,6.1598,6.1598,6.1559,6.1588,6.1539,6.1344,6.1408,6.1539,6.1344,6.1421,6.1598,6.1607,6.1607,6.1607,0.0,0.0,0.0,0.0,0.0,0.0,0.0,0.0,0.0,0.0,0.0,0.0,0.0,0.0,0.0,0.0,0.0,0.0,0.0,0.0,0.0,0.0,0.0,0.0,0.0,0.0,0.0,0.0,0.0,0.0,0.0,0.0,0.0,0.0,0.0,0.0,0.0,0.0,0.0,0.0,0.0,0.0,0.0,0.0,0.0,0.0,0.0,0.0,0.0,0.0,0.0,0.0,0.0,0.0,0.0,0.0,0.0,3.7042,3.7627,3.9387,0.0,0.0,0.0,0.0,0.0,0.0,0.0,0.0,0.0,0.0,0.0,0.0,0.0,0.0,0.0,0.0,0.0,0.0,0.0,0.0,0.0,0.0,0.0,0.0,0.0,0.0,0.0,0.0,0.0,0.0,0.0,5.7672,5.7711,5.8529,6.0282,6.0282,6.0555,6.1101,6.1451,6.1607,6.1607,6.1607,6.1607,6.1607,6.1607,6.1607,6.1607,6.1528,6.1528,6.1607,6.1528,6.1539,6.1607,6.1607,6.1607,6.1607,0.0,0.0,0.0,0.0,0.0,0.0,0.0,0.0,0.0,0.0,0.0,0.0,0.0,0.0,0.0,0.0,0.0,0.0,0.0,0.0,0.0,0.0,0.0,0.0,0.0,0.0,0.0,0.0,0.0,0.0,0.0,0.0,0.0,0.0,0.0,0.0,0.0,0.0,0.0,0.0,0.0,0.0,0.0,0.0,0.0,0.0,0.0,0.0,0.0,0.0,0.0,0.0,0.0,0.0,0.0,0.0,0.0,3.697,3.7555,3.9351,0.0,0.0,0.0,0.0,0.0,0.0,0.0,0.0,0.0,0.0,0.0,0.0,0.0,0.0,0.0,0.0,0.0,0.0,0.0,0.0,0.0,0.0,0.0,0.0,0.0,0.0,0.0,0.0,0.0,0.0,0.0,0.0,5.8373,5.923,6.0711,6.0711,6.1023,6.1607,6.1607,6.1607,6.1607,6.1607,6.1607,6.1607,6.1607,6.1607,6.1607,6.1607,6.1607,6.1607,6.1607,6.1607,6.1607,6.1607,6.1607,6.1607,0.0,0.0,0.0,0.0,0.0,0.0,0.0,0.0,0.0,0.0,0.0,0.0,0.0,0.0,0.0,0.0,0.0,0.0,0.0,0.0,0.0,0.0,0.0,0.0,0.0,0.0,0.0,0.0,0.0,0.0,0.0,0.0,0.0,0.0,0.0,0.0,0.0,0.0,0.0,0.0,0.0,0.0,0.0,0.0,0.0,0.0,0.0,0.0,0.0,0.0,0.0,0.0,0.0,0.0,0.0,0.0,0.0,3.8612,3.8573,3.9819,0.0,0.0,0.0,0.0,0.0,0.0,0.0,0.0,0.0,0.0,0.0,0.0,0.0,0.0,0.0,0.0,0.0,0.0,0.0,0.0,0.0,0.0,0.0,0.0,0.0,0.0,0.0,0.0,0.0,0.0,0.0,0.0,5.9854,6.0711,6.1607,6.1607,6.1607,6.1607,6.1607,6.1607,6.1607,6.1607,6.1607,6.1607,6.1607,6.1607,6.1607,6.1607,6.1607,6.1607,6.1607,6.1607,6.1607,6.1607,6.1607,6.1607,0.0,0.0,0.0,0.0,0.0,0.0,0.0,0.0,0.0,0.0,0.0,0.0,0.0,0.0,0.0,0.0,0.0,0.0,0.0,0.0,0.0,0.0,0.0,0.0,0.0,0.0,0.0,0.0,0.0,0.0,0.0,0.0,0.0,0.0,0.0,0.0,0.0,0.0,0.0,0.0,0.0,0.0,0.0,0.0,0.0,0.0,0.0,0.0,0.0,0.0,0.0,0.0,0.0,0.0,0.0,0.0,3.7711,3.8456,3.7867,0.0,0.0,0.0,0.0,0.0,0.0,0.0,0.0,0.0,0.0,0.0,0.0,0.0,0.0,0.0,0.0,0.0,0.0,0.0,0.0,0.0,0.0,0.0,0.0,0.0,0.0,0.0,0.0,0.0,0.0,0.0,0.0,0.0,6.0165,6.0711,6.1607,6.1607,6.1607,6.1607,6.1607,6.1607,6.1607,6.1607,6.1607,6.1607,6.1607,6.1607,6.1607,6.1607,6.1607,6.1607,6.1607,6.1607,6.1607,6.1607,6.1607,6.1685,0.0,0.0,0.0,0.0,0.0,0.0,0.0,0.0,0.0,0.0,0.0,0.0,0.0,0.0,0.0,0.0,0.0,0.0,0.0,0.0,0.0,0.0,0.0,0.0,0.0,0.0,0.0,0.0,0.0,0.0,0.0,0.0,0.0,0.0,0.0,0.0,0.0,0.0,0.0,0.0,0.0,0.0,0.0,0.0,0.0,0.0,0.0,0.0,0.0,0.0,0.0,0.0,0.0,0.0,0.0,0.0,3.8921,4.0054,0.0,0.0,0.0,0.0,0.0,0.0,0.0,0.0,0.0,0.0,0.0,0.0,0.0,0.0,0.0,0.0,0.0,0.0,0.0,0.0,0.0,0.0,0.0,0.0,0.0,0.0,0.0,0.0,0.0,0.0,0.0,0.0,0.0,0.0,6.0633,6.1062,6.1607,6.1607,6.1607,6.1607,6.1607,6.1607,6.1607,6.1607,6.1607,6.1607,6.1607,6.1607,6.1607,6.1607,6.1607,6.1607,6.1607,6.1607,6.1607,6.1607,6.1802,6.2192,0.0,0.0,0.0,0.0,0.0,0.0,0.0,0.0,0.0,0.0,0.0,0.0,0.0,0.0,0.0,0.0,0.0,0.0,0.0,0.0,0.0,0.0,0.0,0.0,0.0,0.0,0.0,0.0,0.0,0.0,0.0,0.0,0.0,0.0,0.0,0.0,0.0,0.0,0.0,0.0,0.0,0.0,0.0,0.0,0.0,0.0,0.0,0.0,0.0,0.0,0.0,0.0,0.0,0.0,0.0,0.0,0.0,0.0,0.0,0.0,0.0,0.0,0.0,0.0,0.0,0.0,0.0,0.0,0.0,0.0,0.0,0.0,0.0,0.0,0.0,0.0,0.0,0.0,0.0,0.0,0.0,0.0,0.0,0.0,0.0,0.0,0.0,0.0,0.0,0.0,0.0,6.0438,6.1179,6.1607,6.1607,6.1607,6.1607,0.0,6.1607,6.1607,6.1607,6.1607,6.1607,6.1607,6.1607,6.1607,6.1607,6.1607,6.1607,6.1607,6.1607,6.1607,6.1607,6.1685,6.2231,6.2932,0.0,0.0,0.0,0.0,0.0,0.0,0.0,0.0,0.0,0.0,0.0,0.0,0.0,0.0,0.0,0.0,0.0,0.0,0.0,0.0,0.0,0.0,0.0,0.0,0.0,0.0,0.0,0.0,0.0,0.0,0.0,0.0,0.0,0.0,0.0,0.0,0.0,0.0,0.0,0.0,0.0,0.0,0.0,0.0,0.0,0.0,0.0,0.0,0.0,0.0,0.0,0.0,0.0,3.5859,3.7321,3.7516,0.0,0.0,0.0,0.0,0.0,0.0,0.0,0.0,0.0,0.0,0.0,0.0,0.0,0.0,0.0,0.0,0.0,0.0,0.0,0.0,0.0,0.0,0.0,0.0,0.0,0.0,0.0,0.0,0.0,0.0,0.0,0.0,0.0,0.0,0.0,6.1295,6.149,6.1607,6.1607,6.1607,6.1607,0.0,6.1607,6.1607,6.1607,6.1607,6.1607,6.1607,6.1607,6.1607,6.1607,6.1607,6.1607,6.1607,6.1607,6.1607,6.1685,6.2387,6.2737,6.3088,0.0,0.0,0.0,0.0,0.0,0.0,0.0,0.0,0.0,0.0,0.0,0.0,0.0,0.0,0.0,0.0,0.0,0.0,0.0,0.0,0.0,0.0,0.0,0.0,0.0,0.0,0.0,0.0,0.0,0.0,0.0,0.0,0.0,0.0,0.0,0.0,0.0,0.0,0.0,0.0,0.0,0.0,0.0,0.0,0.0,0.0,0.0,0.0,0.0,0.0,0.0,0.0,0.0,0.0,3.7338,3.7795,0.0,0.0,0.0,0.0,0.0,0.0,0.0,0.0,0.0,0.0,0.0,0.0,0.0,0.0,0.0,0.0,0.0,0.0,0.0,0.0,0.0,0.0,0.0,0.0,0.0,0.0,0.0,0.0,0.0,0.0,0.0,0.0,0.0,6.0481,6.1127,6.1586,6.1586,6.1616,6.1607,6.1607,6.1607,6.1607,6.1607,6.1607,6.1607,6.1607,6.1607,6.1607,6.1607,6.1607,6.1607,6.1607,6.1607,6.1607,6.1607,6.1841,6.227,6.2737,6.34,6.4218,0.0,0.0,0.0,0.0,0.0,0.0,0.0,0.0,0.0,0.0,0.0,0.0,0.0,0.0,0.0,0.0,0.0,0.0,0.0,0.0,0.0,0.0,0.0,0.0,0.0,0.0,0.0,0.0,0.0,0.0,0.0,0.0,0.0,0.0,0.0,0.0,0.0,0.0,0.0,0.0,0.0,0.0,0.0,0.0,0.0,0.0,0.0,0.0,0.0,0.0,0.0,0.0,0.0,0.0,3.7146,3.7926,3.9867,4.2123,0.0,0.0,0.0,0.0,0.0,0.0,0.0,0.0,0.0,0.0,0.0,0.0,0.0,0.0,0.0,0.0,0.0,0.0,0.0,0.0,0.0,0.0,0.0,0.0,0.0,0.0,0.0,0.0,0.0,0.0,6.0353,6.1173,6.1588,6.1612,6.1612,6.1603,6.1578,6.1578,6.1616,6.1616,6.1607,6.1607,6.1607,6.1607,6.1607,6.1607,6.1607,6.1607,6.1607,6.1607,6.1607,6.1607,6.1763,6.227,6.2932,6.3205,6.4296,6.566,0.0,0.0,0.0,0.0,0.0,0.0,0.0,0.0,0.0,0.0,0.0,0.0,0.0,0.0,0.0,0.0,0.0,0.0,0.0,0.0,0.0,0.0,0.0,0.0,0.0,0.0,0.0,0.0,0.0,0.0,0.0,0.0,0.0,0.0,0.0,0.0,0.0,0.0,0.0,0.0,0.0,0.0,0.0,0.0,0.0,0.0,0.0,0.0,0.0,0.0,0.0,0.0,0.0,0.0,0.0,0.0,0.0,0.0,0.0,0.0,0.0,0.0,0.0,0.0,0.0,0.0,0.0,0.0,0.0,0.0,0.0,0.0,0.0,0.0,0.0,0.0,0.0,0.0,0.0,0.0,0.0,0.0,0.0,0.0,0.0,0.0,0.0,0.0,6.0372,6.1173,6.1595,6.1595,6.1595,6.1588,6.1588,6.1588,6.1619,6.1595,6.1616,6.1607,6.1607,6.1607,6.1607,6.1607,6.1607,6.1607,6.1607,6.1607,6.1607,6.1685,6.2426,6.2815,6.3088,6.453,6.5699,6.6634,0.0,0.0,0.0,0.0,0.0,0.0,0.0,0.0,0.0,0.0,0.0,0.0,0.0,0.0,0.0,0.0,0.0,0.0,0.0,0.0,0.0,0.0,0.0,0.0,0.0,0.0,0.0,0.0,0.0,0.0,0.0,2.793,2.7773,0.0,0.0,0.0,0.0,0.0,0.0,0.0,0.0,0.0,0.0,0.0,0.0,0.0,0.0,0.0,0.0,0.0,0.0,0.0,0.0,0.0,0.0,0.0,0.0,0.0,0.0,0.0,0.0,0.0,0.0,0.0,0.0,0.0,0.0,0.0,0.0,0.0,0.0,0.0,0.0,0.0,0.0,0.0,0.0,0.0,0.0,0.0,0.0,0.0,0.0,0.0,0.0,0.0,0.0,6.0617,6.1086,6.147,6.166,6.1648,6.1648,6.1648,6.1595,6.1595,6.1595,6.158,6.1595,6.1586,6.1586,6.1616,6.1607,6.1607,6.1607,6.1607,6.1607,6.1607,6.188,6.2387,6.2737,6.3478,6.4452,6.5699,6.6673,6.7569,0.0,0.0,0.0,0.0,0.0,0.0,0.0,0.0,0.0,0.0,0.0,0.0,0.0,0.0,0.0,0.0,0.0,0.0,0.0,0.0,0.0,0.0,0.0,0.0,0.0,0.0,0.0,0.0,0.0,0.0,2.7578,2.8047,2.7461,0.0,2.8516,0.0,0.0,0.0,0.0,0.0,0.0,0.0,0.0,0.0,0.0,0.0,0.0,0.0,0.0,0.0,0.0,0.0,0.0,0.0,0.0,0.0,0.0,0.0,0.0,0.0,0.0,0.0,0.0,0.0,0.0,0.0,0.0,0.0,0.0,0.0,0.0,0.0,0.0,0.0,0.0,0.0,0.0,0.0,0.0,0.0,0.0,0.0,0.0,0.0,0.0,0.0,0.0,6.1017,6.1681,6.172,6.1715,6.1705,6.1705,6.1699,6.1648,6.1641,6.1641,6.1641,6.1619,6.1603,6.1603,6.1595,6.1586,6.1616,6.1607,6.1607,6.1616,6.1841,6.2309,6.2932,6.3361,6.4413,6.5855,6.6712,6.7725,6.8738,0.0,0.0,0.0,0.0,0.0,0.0,0.0,0.0,0.0,0.0,0.0,0.0,0.0,0.0,0.0,0.0,0.0,0.0,0.0,0.0,0.0,0.0,0.0,0.0,0.0,0.0,0.0,0.0,0.0,0.0,2.5859,2.7461,2.7734,2.6992,2.8789,2.9101,2.8281,0.0,0.0,0.0,0.0,0.0,0.0,0.0,0.0,0.0,0.0,0.0,0.0,0.0,0.0,0.0,0.0,0.0,0.0,0.0,0.0,0.0,0.0,0.0,0.0,0.0,0.0,0.0,0.0,0.0,0.0,0.0,0.0,0.0,0.0,0.0,0.0,0.0,0.0,0.0,0.0,0.0,0.0,0.0,0.0,0.0,0.0,0.0,0.0,0.0,0.0,6.1642,6.172,6.172,6.172,6.1715,6.1715,6.1715,6.1676,6.1705,6.1699,6.1699,6.1641,6.158,6.1603,6.1588,6.158,6.1595,6.1616,6.1578,6.1673,6.2474,6.2854,6.3049,6.4647,6.5816,6.6751,6.7608,6.9011,7.0453,0.0,0.0,0.0,0.0,0.0,0.0,0.0,0.0,0.0,0.0,0.0,0.0,0.0,0.0,0.0,0.0,0.0,0.0,0.0,0.0,0.0,0.0,0.0,0.0,0.0,0.0,0.0,0.0,0.0,2.5822,2.6427,2.7061,2.75,2.7851,2.9648,2.9961,2.9141,2.9141,0.0,0.0,0.0,0.0,0.0,0.0,0.0,0.0,0.0,0.0,0.0,0.0,0.0,0.0,0.0,0.0,0.0,0.0,0.0,0.0,0.0,0.0,0.0,0.0,0.0,0.0,0.0,0.0,0.0,0.0,0.0,0.0,0.0,0.0,0.0,0.0,0.0,0.0,0.0,0.0,0.0,0.0,0.0,0.0,0.0,0.0,0.0,0.0,0.0,0.0,6.172,6.172,6.172,6.172,6.172,6.172,6.172,6.1715,6.171,6.171,6.1699,6.1648,6.1641,6.1634,6.1641,6.168,6.2204,6.243,6.2461,6.2765,6.3526,6.4608,6.5777,6.679,6.7725,6.9128,7.0063,7.0687,0.0,0.0,0.0,0.0,0.0,0.0,0.0,0.0,0.0,0.0,0.0,0.0,0.0,0.0,0.0,0.0,0.0,0.0,0.0,0.0,0.0,0.0,0.0,0.0,0.0,0.0,0.0,0.0,0.0,0.0,0.0,0.0,2.7208,2.7845,2.9335,0.0,0.0,0.0,0.0,2.9245,0.0,0.0,3.5046,0.0,0.0,0.0,0.0,0.0,0.0,0.0,0.0,0.0,0.0,0.0,0.0,0.0,0.0,0.0,0.0,0.0,0.0,0.0,0.0,0.0,0.0,0.0,0.0,0.0,0.0,0.0,0.0,0.0,0.0,0.0,0.0,0.0,0.0,0.0,0.0,0.0,0.0,0.0,0.0,0.0,0.0,0.0,0.0,0.0,6.172,6.172,6.172,6.172,6.172,6.172,6.172,6.172,6.172,6.172,6.171,6.1705,6.1699,6.1654,6.1654,6.1738,6.2551,6.2928,6.2984,6.353,6.4606,6.5961,6.6819,6.7872,6.9002,7.0172,7.0795,7.1107,0.0,0.0,0.0,0.0,0.0,0.0,0.0,0.0,0.0,0.0,0.0,0.0,0.0,0.0,0.0,0.0,0.0,0.0,0.0,0.0,0.0,0.0,0.0,0.0,0.0,0.0,0.0,0.0,0.0,0.0,0.0,0.0,2.6786,0.0,2.7806,2.8203,2.8242,0.0,0.0,2.8501,0.0,3.3235,0.0,0.0,0.0,0.0,3.8411,3.8373,0.0,0.0,0.0,0.0,0.0,0.0,0.0,0.0,0.0,0.0,0.0,0.0,0.0,0.0,0.0,0.0,0.0,0.0,0.0,0.0,0.0,0.0,0.0,0.0,0.0,0.0,0.0,0.0,0.0,0.0,0.0,0.0,0.0,0.0,0.0,0.0,0.0,0.0,0.0,6.172,6.172,6.172,6.172,6.172,6.172,6.172,6.172,6.172,6.172,6.172,6.172,6.171,6.1699,6.1715,6.171,6.1738,6.2652,6.3042,6.3182,6.484,6.6042,6.6939,6.7836,6.9163,7.0606,7.0645,7.1152,7.1893,0.0,0.0,0.0,0.0,0.0,0.0,0.0,0.0,0.0,0.0,0.0,0.0,0.0,0.0,0.0,0.0,0.0,0.0,0.0,0.0,0.0,0.0,0.0,0.0,0.0,0.0,0.0,0.0,0.0,0.0,0.0,0.0,0.0,0.0,2.7517,2.7537,2.6526,2.8396,0.0,0.0,0.0,3.5179,0.0,0.0,0.0,0.0,0.0,4.2009,0.0,0.0,4.0694,3.7212,0.0,0.0,0.0,0.0,0.0,0.0,3.7936,0.0,0.0,0.0,0.0,0.0,0.0,0.0,0.0,0.0,0.0,0.0,0.0,0.0,0.0,0.0,0.0,0.0,0.0,0.0,0.0,0.0,0.0,0.0,0.0,0.0,0.0,0.0,6.172,6.172,6.172,6.172,6.172,6.172,6.172,6.172,6.172,6.172,6.172,6.172,6.172,6.1715,6.1715,6.1715,6.1715,6.1793,6.3282,6.4297,6.4955,6.5992,6.6954,6.7875,6.9358,7.0177,7.0684,7.1308,7.1698,7.1893,0.0,0.0,0.0,0.0,0.0,0.0,0.0,0.0,0.0,0.0,0.0,0.0,0.0,0.0,0.0,0.0,0.0,0.0,0.0,0.0,0.0,0.0,0.0,0.0,0.0,0.0,0.0,0.0,0.0,0.0,0.0,0.0,0.0,0.0,0.0,0.0,0.0,0.0,0.0,0.0,3.2385,0.0,0.0,3.9881,4.1699,0.0,0.0,0.0,4.2473,4.5645,4.3788,0.0,0.0,0.0,0.0,0.0,0.0,0.0,0.0,0.0,0.0,0.0,0.0,0.0,0.0,4.7213,0.0,0.0,0.0,0.0,0.0,0.0,0.0,0.0,0.0,0.0,0.0,0.0,0.0,0.0,0.0,0.0,0.0,0.0,0.0,6.1642,6.172,6.172,6.172,6.172,6.172,6.172,6.172,6.172,6.172,6.172,6.172,6.172,6.172,6.172,6.172,6.172,6.1915,6.2345,6.4101,6.5312,6.6209,6.776,6.873,6.927,7.0239,7.0863,7.1253,7.176,7.1955,7.1955,0.0,0.0,0.0,0.0,0.0,0.0,0.0,0.0,0.0,0.0,0.0,0.0,0.0,0.0,0.0,0.0,0.0,0.0,0.0,0.0,0.0,0.0,0.0,0.0,0.0,0.0,0.0,0.0,0.0,0.0,0.0,0.0,0.0,0.0,0.0,0.0,0.0,0.0,0.0,2.8657,3.1911,3.4328,0.0,0.0,4.1119,0.0,4.3053,4.3131,4.3247,4.7734,4.7386,0.0,0.0,0.0,0.0,0.0,3.4737,0.0,0.0,0.0,0.0,0.0,0.0,0.0,4.6151,4.752,4.9046,0.0,0.0,0.0,0.0,0.0,0.0,0.0,0.0,0.0,0.0,0.0,0.0,0.0,0.0,0.0,0.0,6.1095,6.0978,6.1642,6.172,6.172,6.172,6.172,6.172,6.172,6.172,6.172,6.172,6.172,6.172,6.172,6.172,6.172,6.172,6.172,6.2189,6.3086,6.4843,6.6092,6.7146,6.9645,7.0699,7.0699,7.0816,7.1324,7.1987,7.1987,7.1987,7.1987,0.0,0.0,0.0,0.0,0.0,0.0,0.0,0.0,0.0,0.0,0.0,0.0,0.0,0.0,0.0,0.0,0.0,0.0,0.0,0.0,0.0,0.0,0.0,0.0,0.0,0.0,0.0,0.0,0.0,0.0,0.0,0.0,0.0,0.0,0.0,0.0,0.0,0.0,0.0,3.0298,3.2318,0.0,3.8025,4.0732,4.3053,4.4871,4.5181,4.5645,4.6148,0.0,4.7038,4.6689,0.0,0.0,0.0,0.0,0.0,0.0,0.0,0.0,0.0,0.0,0.0,0.0,4.4653,4.5247,4.6332,0.0,0.0,0.0,0.0,0.0,0.0,0.0,0.0,0.0,0.0,0.0,0.0,0.0,0.0,0.0,0.0,6.2189,6.2267,6.1759,6.172,6.172,6.172,6.172,6.172,6.172,6.172,6.172,6.172,6.172,6.172,6.172,6.172,6.172,6.172,6.172,6.2189,6.3086,6.4843,6.6444,6.8005,6.9918,7.0699,7.0777,7.148,7.1831,7.1987,7.1987,7.1987,7.1987,0.0,0.0,0.0,0.0,0.0,0.0,0.0,0.0,0.0,0.0,0.0,0.0,0.0,0.0,0.0,0.0,0.0,0.0,0.0,0.0,0.0,0.0,0.0,0.0,0.0,0.0,0.0,0.0,0.0,0.0,0.0,0.0,0.0,0.0,0.0,0.0,0.0,0.0,2.734,2.9583,3.254,0.0,3.9765,4.2318,4.4601,4.6457,4.6457,4.754,4.8856,4.8043,4.7734,0.0,0.0,4.3363,4.2009,0.0,3.8798,3.9881,0.0,0.0,0.0,4.0965,0.0,0.0,0.0,4.5233,4.6098,4.9079,0.0,0.0,0.0,0.0,0.0,0.0,0.0,0.0,0.0,0.0,0.0,0.0,0.0,0.0,0.0,6.3125,6.3282,6.2423,6.1954,6.172,6.172,6.172,6.172,6.172,6.172,6.172,6.172,6.172,6.172,6.172,6.172,6.172,6.172,6.2149,6.2813,6.375,6.5936,6.7576,6.8864,7.0621,7.1363,7.1402,7.1831,7.1987,7.1987,7.1987,7.1987,7.1987,0.0,0.0,0.0,0.0,0.0,0.0,0.0,0.0,0.0,0.0,0.0,0.0,0.0,0.0,0.0,0.0,0.0,0.0,0.0,0.0,0.0,0.0,0.0,2.5034,0.0,0.0,0.0,0.0,0.0,0.0,0.0,0.0,0.0,0.0,0.0,0.0,0.0,0.0,0.0,2.9785,0.0,3.6868,4.0152,4.3208,4.5297,4.6689,4.7347,4.901,5.0751,4.9784,0.0,4.8005,4.754,4.5722,0.0,0.0,0.0,0.0,0.0,0.0,0.0,0.0,0.0,4.2963,0.0,0.0,0.0,4.8508,0.0,0.0,0.0,0.0,0.0,0.0,0.0,0.0,0.0,0.0,0.0,0.0,0.0,0.0,0.0,6.3521,6.3828,6.3282,6.2306,6.1759,6.1954,6.1798,6.172,6.172,6.172,6.172,6.172,6.172,6.172,6.172,6.172,6.172,6.172,6.2618,6.3555,6.4687,6.7068,6.8708,6.9762,7.1363,7.1987,7.1987,7.1987,7.1987,7.1987,7.1987,7.1987,7.1987,0.0,0.0,0.0,0.0,0.0,0.0,0.0,0.0,0.0,0.0,0.0,0.0,0.0,0.0,0.0,0.0,0.0,0.0,2.5111,0.0,0.0,0.0,0.0,0.0,2.639,0.0,0.0,0.0,0.0,0.0,0.0,0.0,0.0,0.0,2.7885,0.0,0.0,0.0,3.1921,0.0,3.6118,3.6477,0.0,4.1622,4.4059,4.5297,4.8314,5.0055,5.0674,0.0,4.99,5.0712,0.0,4.6651,0.0,0.0,0.0,0.0,0.0,0.0,0.0,0.0,4.3048,0.0,0.0,0.0,4.5877,4.6187,0.0,0.0,0.0,0.0,0.0,0.0,0.0,0.0,0.0,0.0,0.0,0.0,0.0,0.0,0.0,0.0,6.3438,6.4101,6.2618,6.2032,6.2813,6.211,6.172,6.172,6.172,6.172,6.172,6.172,6.172,6.172,6.172,6.172,6.172,6.2618,6.3906,6.5546,6.7342,6.902,7.0621,7.1597,7.1987,7.1987,7.1987,7.1987,7.1987,7.1987,7.1987,7.1987,0.0,0.0,0.0,0.0,0.0,0.0,0.0,0.0,0.0,0.0,0.0,0.0,0.0,0.0,0.0,0.0,0.0,2.7044,0.0,0.0,0.0,0.0,0.0,0.0,0.0,0.0,0.0,0.0,2.5303,0.0,0.0,0.0,0.0,0.0,2.9704,0.0,3.1885,0.0,0.0,0.0,0.0,0.0,0.0,4.3015,4.638,4.7811,4.9707,5.0596,5.0867,0.0,4.9977,0.0,0.0,0.0,0.0,0.0,0.0,0.0,0.0,0.0,0.0,0.0,0.0,0.0,0.0,0.0,4.5206,0.0,0.0,0.0,0.0,0.0,0.0,0.0,0.0,0.0,0.0,0.0,0.0,0.0,0.0,0.0,0.0,0.0,0.0,0.0,0.0,6.1876,6.2228,6.2384,6.2228,6.172,6.172,6.172,6.172,6.172,6.172,6.172,6.172,6.1954,6.2501,6.3867,6.5155,6.6405,6.863,7.0035,7.0777,7.1636,7.1987,7.1987,7.1987,7.1987,7.1987,7.1987,7.1987,7.1987,0.0,0.0,0.0,0.0,0.0,0.0,0.0,0.0,0.0,0.0,0.0,0.0,2.7274,2.6167,0.0,0.0,0.0,2.8526,0.0,0.0,2.8544,0.0,0.0,0.0,0.0,0.0,0.0,0.0,0.0,0.0,0.0,0.0,0.0,0.0,0.0,3.2762,3.5162,0.0,0.0,3.5956,3.7873,3.898,4.0075,4.5181,4.8314,5.0132,5.0712,5.0906,5.0983,5.137,4.9861,0.0,5.195,0.0,0.0,0.0,0.0,0.0,4.3858,0.0,0.0,0.0,0.0,0.0,0.0,0.0,0.0,0.0,0.0,0.0,0.0,0.0,0.0,0.0,0.0,0.0,0.0,0.0,0.0,0.0,0.0,0.0,0.0,0.0,0.0,6.2501,6.1603,6.1408,6.2345,6.2774,6.2813,6.2423,6.2189,6.2071,6.2071,6.1837,6.172,6.172,6.1954,6.2501,6.3399,6.5155,6.6522,6.7615,6.9762,7.0855,7.1128,7.1753,7.1987,7.1987,7.1987,7.1987,7.1987,7.1987,7.1987,7.1987,0.0,2.4266,0.0,0.0,0.0,0.0,0.0,0.0,0.0,0.0,0.0,0.0,0.0,0.0,0.0,0.0,0.0,3.2477,3.2432,0.0,3.016,0.0,0.0,2.6428,0.0,0.0,0.0,0.0,0.0,0.0,0.0,0.0,0.0,0.0,0.0,3.1864,3.4353,3.6048,3.9147,4.2883,4.296,4.5486,4.9088,0.0,4.8662,5.0867,5.0906,0.0,0.0,5.0016,4.9707,0.0,0.0,0.0,0.0,0.0,0.0,0.0,0.0,0.0,0.0,4.5757,0.0,0.0,0.0,0.0,4.5761,0.0,0.0,0.0,0.0,0.0,0.0,0.0,0.0,0.0,0.0,0.0,0.0,0.0,0.0,0.0,0.0,0.0,0.0,6.1564,6.0159,6.0666,6.4023,6.3438,6.336,6.4179,6.3399,6.2969,6.2969,6.211,6.172,6.172,6.2579,6.3399,6.4336,6.6014,6.7693,6.9372,7.0309,7.1167,7.1948,7.1987,7.1987,7.1987,7.1987,7.1987,7.1987,7.1987,7.1987,7.1987,0.0,0.0,0.0,0.0,0.0,0.0,0.0,2.5731,0.0,0.0,0.0,0.0,0.0,0.0,3.2217,0.0,0.0,3.4525,3.5081,3.2914,0.0,0.0,0.0,2.7351,0.0,0.0,0.0,0.0,0.0,0.0,0.0,0.0,0.0,0.0,0.0,3.4314,0.0,0.0,0.0,0.0,0.0,4.5905,4.8864,0.0,0.0,5.0906,5.0906,5.0906,0.0,5.0596,5.048,5.0635,5.1486,5.137,5.1022,5.1602,5.0935,0.0,0.0,0.0,4.9875,4.8508,0.0,0.0,0.0,0.0,0.0,0.0,0.0,0.0,0.0,0.0,0.0,0.0,0.0,0.0,0.0,0.0,0.0,0.0,0.0,0.0,0.0,0.0,0.0,5.9846,6.051,6.1603,0.0,6.3711,6.3984,6.4297,6.3438,6.3008,6.3008,6.2149,6.172,6.172,6.3164,6.4336,6.5234,6.7498,6.9176,7.0309,7.1167,7.1714,7.1987,7.1987,7.1987,7.1987,7.1987,7.1987,7.1987,7.1987,7.1987,7.2065,2.4263,0.0,0.0,0.0,0.0,0.0,0.0,0.0,0.0,0.0,2.9639,0.0,3.2166,0.0,3.3559,0.0,3.6122,3.6174,3.6799,3.5215,0.0,3.6353,3.1852,0.0,0.0,0.0,0.0,0.0,0.0,2.7775,0.0,0.0,0.0,0.0,0.0,0.0,0.0,0.0,4.1632,0.0,0.0,4.67,0.0,0.0,5.0271,5.0094,0.0,5.0906,5.0945,5.1254,5.1177,5.1254,5.3304,5.3188,5.2608,5.4349,5.3584,5.2432,5.3242,5.2955,0.0,5.0702,4.972,0.0,4.7328,0.0,0.0,0.0,0.0,0.0,0.0,0.0,0.0,0.0,0.0,0.0,0.0,0.0,0.0,0.0,0.0,0.0,0.0,0.0,5.5513,5.8402,5.9417,6.0939,0.0,0.0,6.457,6.5155,6.4375,6.3789,6.3477,6.2618,6.2149,6.2189,6.3945,6.5351,6.6561,6.8825,7.0348,7.1206,7.1753,7.1987,7.1987,7.1987,7.1987,7.1987,7.1987,7.1987,7.1987,7.1987,7.2182,7.2612,0.0,0.0,0.0,0.0,2.5019,0.0,0.0,0.0,3.0151,0.0,3.1431,3.3162,3.2485,3.2997,3.4458,3.709,3.7406,0.0,3.7791,3.7118,0.0,0.0,3.5622,3.4699,3.5622,0.0,0.0,0.0,0.0,0.0,0.0,0.0,0.0,0.0,0.0,0.0,3.8046,3.8931,4.1809,4.5885,4.6822,4.8073,4.9461,4.9589,4.9119,4.8624,5.0287,5.0945,5.1099,5.1912,5.1718,5.1525,5.4039,5.4851,5.5238,5.6824,5.7255,5.7023,5.6194,5.4709,5.3205,5.2261,0.0,0.0,0.0,0.0,4.992,0.0,0.0,0.0,0.0,0.0,0.0,0.0,0.0,0.0,0.0,0.0,0.0,0.0,0.0,0.0,0.0,5.0663,5.2433,5.7352,5.7113,0.0,0.0,0.0,6.496,6.6678,6.5975,6.5116,6.4258,6.336,6.2969,6.3008,6.4804,6.6522,6.8239,6.9957,7.1206,7.1987,7.1987,7.1987,7.1987,7.1987,7.1987,7.1987,7.1987,7.2026,7.2065,7.2065,7.2651,7.3666,2.4373,2.4667,2.5474,0.0,2.6082,2.5719,0.0,0.0,0.0,0.0,3.2224,3.4266,3.5343,3.6705,3.7782,3.8536,3.8839,0.0,0.0,0.0,0.0,3.9777,3.6853,3.5853,3.7315,3.5507,0.0,3.2891,0.0,0.0,3.0789,0.0,0.0,0.0,0.0,0.0,3.8046,3.8931,4.2486,4.7604,4.9124,4.9258,0.0,0.0,4.9556,4.8539,5.0271,5.1331,5.1912,5.2105,5.2917,5.3923,5.4581,5.5664,5.6747,5.7172,5.7255,5.7159,5.6927,5.602,5.4939,5.4111,5.3301,5.2664,0.0,0.0,0.0,0.0,0.0,0.0,0.0,0.0,0.0,0.0,0.0,0.0,0.0,0.0,0.0,0.0,0.0,0.0,4.9223,5.2599,5.5312,5.6679,5.7796,0.0,0.0,0.0,0.0,6.5819,6.5077,6.4219,6.3321,6.2462,6.2345,6.3047,6.5351,6.7381,6.9137,7.0855,7.1792,7.1987,7.1987,7.1987,7.1987,7.1987,7.1987,7.1987,7.1987,7.2417,7.2963,7.2963,7.39,7.5227,2.4814,0.0,0.0,2.7163,0.0,0.0,2.8676,0.0,0.0,3.1236,3.3548,0.0,3.598,3.7794,3.9064,3.9219,3.9401,0.0,0.0,0.0,0.0,3.978,3.8808,3.8808,4.0032,3.8383,0.0,3.5572,0.0,0.0,3.1264,0.0,0.0,0.0,0.0,3.3231,0.0,3.9662,4.3316,4.7163,4.8856,0.0,0.0,4.9795,5.0079,5.0091,5.1122,5.1796,5.226,5.2647,5.342,5.431,5.4697,5.5702,5.6824,5.7211,5.7235,5.7197,5.7216,5.656,5.5789,5.5287,5.5094,5.4921,5.4496,5.4342,5.4496,0.0,0.0,0.0,0.0,0.0,0.0,0.0,0.0,0.0,0.0,0.0,0.0,0.0,0.0,0.0,4.8475,5.2635,5.5504,5.5858,0.0,0.0,0.0,0.0,0.0,6.5507,6.5116,6.4258,6.3008,6.2891,6.3282,6.4179,6.5936,6.7927,6.9996,7.1363,7.1987,7.1987,7.1987,7.1987,7.1987,7.1987,7.1987,7.2026,7.2417,7.308,7.3861,7.4251,7.4993,7.5852,0.0,0.0,0.0,0.0,0.0,0.0,0.0,3.1912,0.0,3.3077,0.0,3.638,3.5678,3.7618,3.9092,3.9324,0.0,3.8912,3.7683,3.9163,3.9795,3.9051,4.0743,4.2008,4.2619,4.1149,0.0,0.0,0.0,0.0,0.0,0.0,0.0,0.0,0.0,0.0,0.0,4.1053,4.4453,0.0,4.7817,4.8971,4.9721,4.9812,5.085,5.2296,5.2459,5.2531,5.2647,5.342,5.373,5.3962,5.4735,5.5432,5.6167,5.6902,5.7098,5.7023,5.7041,5.6598,5.6116,5.6078,5.6811,5.7332,5.6501,5.6981,5.7807,5.8473,5.6922,5.629,0.0,0.0,0.0,0.0,0.0,0.0,0.0,0.0,0.0,0.0,0.0,0.0,0.0,5.1795,0.0,0.0,0.0,0.0,0.0,0.0,0.0,6.5155,6.5351,0.0,6.3008,0.0,6.4804,6.578,6.6561,6.8357,7.0894,7.1636,7.1987,7.1987,7.1987,7.1987,7.1987,7.1987,7.1987,7.2104,7.308,7.3861,7.4603,7.5618,7.5969,7.6086,0.0,0.0,0.0,0.0,0.0,3.2852,3.4147,3.4394,3.4688,3.556,3.6654,3.7308,3.7304,3.8264,3.8979,3.9137,3.9165,0.0,0.0,0.0,0.0,3.9612,4.0642,4.1592,4.2344,4.2056,4.1108,0.0,0.0,0.0,0.0,0.0,0.0,0.0,0.0,0.0,4.0422,4.358,0.0,4.8817,4.9817,5.0741,5.1471,5.153,5.2203,5.3184,5.3971,5.4276,5.4387,5.4503,5.5006,5.5586,5.5741,5.5896,5.6051,5.6167,5.6209,5.6212,5.6227,5.6596,5.6984,5.6984,5.8201,5.936,5.9027,5.9644,6.0338,6.0342,6.0035,5.9733,5.9703,0.0,0.0,0.0,0.0,0.0,0.0,0.0,0.0,0.0,0.0,0.0,0.0,0.0,0.0,0.0,0.0,0.0,0.0,0.0,0.0,0.0,6.414,0.0,0.0,0.0,6.5077,6.66,6.7459,6.9255,7.1792,7.1948,7.1987,7.1987,7.1987,7.1987,7.1987,7.1987,7.1987,7.2143,7.3705,7.4369,7.4681,7.6281,7.6867,7.6906,0.0,0.0,0.0,0.0,0.0,0.0,0.0,3.6743,0.0,3.6413,3.6662,3.6969,3.7082,3.8182,3.8979,3.9082,3.9082,3.9219,3.9502,3.9609,4.017,4.1279,4.1838,0.0,4.3587,4.3741,4.217,3.8863,0.0,0.0,0.0,0.0,0.0,0.0,0.0,3.6595,0.0,0.0,0.0,4.8715,5.1085,5.1972,5.1972,5.2493,5.3205,5.4033,5.4532,5.5011,5.5432,5.5432,5.5664,5.6012,5.6012,5.6012,5.6012,5.6012,5.5995,5.6016,5.5995,5.6613,5.7253,5.7253,5.8567,5.9824,5.9665,6.0338,6.0933,6.0804,6.0843,6.0371,5.8703,5.6423,0.0,0.0,0.0,0.0,0.0,0.0,0.0,0.0,0.0,0.0,0.0,0.0,0.0,0.0,0.0,0.0,0.0,0.0,0.0,0.0,0.0,0.0,0.0,0.0,0.0,6.6834,6.8122,6.9918,7.1987,7.1987,7.1987,7.1987,7.1987,7.1987,7.1987,7.1987,7.226,7.2807,7.4017,7.4798,7.5345,7.6633,7.7101,7.7101,0.0,2.9647,0.0,0.0,3.4402,0.0,3.6964,3.8689,3.9203,3.7294,3.6948,3.6895,3.698,3.821,3.9007,3.9092,3.9082,3.9192,3.9401,3.9736,4.0602,4.2129,4.2754,4.3471,4.4386,4.4773,4.2824,0.0,0.0,0.0,0.0,0.0,0.0,0.0,0.0,0.0,0.0,0.0,4.8228,4.8999,5.1984,5.2895,5.2549,5.3263,5.4092,5.4863,5.4957,5.5418,5.5995,5.6012,5.6012,5.6012,5.6012,5.6012,5.6012,5.6012,5.6128,5.6283,5.6283,5.7056,5.7869,5.7869,5.8954,6.0036,5.9976,6.0475,6.0911,6.0866,6.0888,6.0222,5.7892,5.6596,0.0,0.0,0.0,0.0,0.0,0.0,0.0,0.0,0.0,0.0,0.0,0.0,0.0,0.0,0.0,5.621,6.0156,5.8741,0.0,0.0,0.0,6.3594,6.3282,0.0,6.7068,6.7654,6.902,7.0504,7.1987,7.1987,7.1987,7.1987,7.1987,7.1987,7.1987,7.1987,7.2495,7.3393,7.4173,7.5032,7.5891,7.6789,7.7101,7.7101,0.0,0.0,0.0,0.0,0.0,0.0,3.9533,3.9753,3.9827,3.957,3.8909,3.8499,3.8552,3.8789,3.8921,3.9007,3.9064,3.911,3.9137,3.9909,4.0421,4.0598,4.2043,4.2872,4.2962,4.3737,4.2813,0.0,0.0,0.0,0.0,0.0,0.0,0.0,0.0,0.0,0.0,4.7882,4.9936,5.2308,5.2944,5.3626,5.428,5.4341,5.4939,5.5691,5.5827,5.5941,5.598,5.5995,5.6012,5.6012,5.6012,5.6012,5.6012,5.6012,5.6553,5.7172,5.7172,5.841,5.9648,5.9648,6.0306,6.0944,6.0886,6.0941,6.0976,6.0911,6.0955,6.0457,5.8703,5.8954,5.8101,0.0,0.0,0.0,0.0,0.0,0.0,0.0,0.0,0.0,0.0,0.0,0.0,0.0,0.0,5.7456,6.0143,5.8784,5.9135,6.1881,0.0,6.2657,6.414,6.5936,6.8005,7.0348,7.0504,7.1089,7.1987,7.1987,7.1987,7.1987,7.1987,7.1987,7.1987,7.1987,7.2495,7.3393,7.4173,7.5032,7.5891,7.6789,7.7101,7.7101,0.0,0.0,0.0,0.0,0.0,0.0,0.0,4.0194,3.9717,3.9239,3.8909,3.8719,3.8773,3.8803,3.8862,3.8979,3.9036,3.9333,4.0034,4.0397,4.1087,4.2208,4.2859,4.3407,4.3764,4.4233,4.3137,0.0,0.0,0.0,0.0,0.0,0.0,0.0,0.0,4.4957,4.8231,5.0409,5.1911,5.2975,5.404,5.4364,5.4273,5.4951,5.5458,5.5807,5.5885,5.5905,5.5943,5.598,5.5977,5.6012,5.6012,5.6012,5.6089,5.6631,5.7018,5.7404,5.7946,5.8952,5.988,5.988,6.0499,6.106,6.1022,6.0982,6.1,6.0976,6.0959,6.0789,6.0191,5.9552,5.872,0.0,0.0,0.0,0.0,0.0,0.0,0.0,0.0,0.0,0.0,0.0,0.0,0.0,0.0,5.4968,5.7135,5.8574,5.9837,6.0893,0.0,6.3867,6.5077,6.6756,6.8357,6.9918,7.0972,7.1675,7.1987,7.1987,7.1987,7.1987,7.1987,7.1987,7.2026,7.2573,7.3275,7.4095,7.4954,7.5813,7.6633,7.6984,7.7101,7.7101,3.6138,0.0,3.7549,0.0,4.0383,4.0336,4.1269,4.0749,3.9974,3.9166,3.8836,3.8719,3.878,3.881,3.8833,3.895,3.9201,3.9714,4.0547,4.106,4.189,4.3239,4.3502,0.0,4.427,4.4465,4.3642,4.1832,4.0344,0.0,0.0,0.0,0.0,0.0,4.506,4.7457,5.008,5.2439,5.3399,5.3503,5.4696,5.4775,5.4306,5.5231,5.5599,5.5682,5.5766,5.6,5.6271,5.6348,5.65,5.6691,5.6459,5.6553,5.6902,5.7521,5.7869,5.8217,5.8836,5.9609,6.0267,6.0267,6.0692,6.1099,6.1041,6.1022,6.1002,6.098,6.1021,6.1022,6.1099,6.0112,5.93,5.9145,0.0,0.0,0.0,0.0,0.0,0.0,0.0,6.2124,6.1195,0.0,0.0,0.0,0.0,0.0,5.6152,5.8325,0.0,0.0,0.0,0.0,0.0,6.7029,6.8552,7.0191,7.1402,7.1987,7.1987,7.1987,7.1987,7.1987,7.1987,7.1987,7.2065,7.2924,7.3783,7.4603,7.5462,7.632,7.7101,7.7101,7.7101,7.7101,3.9227,4.0446,4.162,4.2617,4.3202,4.3231,4.2337,4.1559,4.0818,3.9974,3.9203,3.8689,3.8689,3.878,3.8803,3.8892,3.969,4.0259,4.0383,4.1869,4.276,0.0,0.0,4.3986,4.3986,4.3986,4.4395,4.5249,0.0,0.0,4.2506,0.0,4.2797,4.6101,4.7758,4.9897,5.2417,5.3605,5.419,5.433,5.4685,5.4806,5.4836,5.5145,5.5314,5.5339,5.5703,5.6365,5.7117,5.714,5.7757,5.8336,5.7541,5.7869,5.8565,5.8565,5.9184,5.988,5.988,6.046,6.1079,6.1079,6.1079,6.1118,6.1118,6.1041,6.1002,6.1002,6.1002,6.1022,6.1099,6.1079,6.0267,5.7753,0.0,0.0,0.0,0.0,0.0,0.0,5.5664,5.5625,6.0615,0.0,0.0,0.0,0.0,0.0,0.0,0.0,0.0,6.1517,6.0776,0.0,6.559,6.6405,6.8552,7.1987,7.1987,7.1987,7.1987,7.1987,7.1987,7.1987,7.1987,7.1987,7.2065,7.2924,7.3783,7.4603,7.5462,7.632,7.7101,7.7101,7.7101,7.7101,4.1206,4.2279,4.3149,4.3588,4.3499,4.3287,4.3135,4.1515,4.0194,3.9937,3.9203,3.8909,3.946,3.905,3.9001,0.0,3.9993,4.0681,0.0,4.25,4.302,4.3578,4.3875,4.3986,4.3986,4.3986,4.4135,4.4395,0.0,0.0,0.0,4.489,4.6691,4.9415,5.0483,5.1817,5.3306,5.3644,5.3907,5.3981,5.433,5.4802,5.5324,5.564,5.6245,5.6969,5.7073,5.7474,5.794,5.7927,5.8567,5.9302,5.907,5.8818,5.872,5.93,5.9687,6.0035,6.0576,6.0886,6.1118,6.1118,6.1118,6.1118,6.1118,6.1524,6.195,6.195,6.195,6.195,6.1969,6.2008,6.1543,6.0112,6.2085,0.0,0.0,0.0,0.0,0.0,6.1621,6.2201,0.0,6.1543,0.0,0.0,0.0,0.0,0.0,0.0,0.0,0.0,6.3302,0.0,6.7207,6.7531,6.9137,7.1987,7.1987,7.1987,7.1987,7.1987,7.1987,7.1987,7.1987,7.2339,7.2963,7.3783,7.4603,7.5462,7.636,7.6867,7.7101,7.7101,7.7101,7.7101,4.2625,4.3237,4.3701,4.3909,4.3471,4.3025,4.292,4.1482,4.0341,4.0341,3.9643,3.946,4.0267,3.99,0.0,4.0517,4.0849,4.157,4.2723,4.3095,4.3466,4.3986,4.3986,4.3986,4.3986,4.4321,0.0,4.4952,4.4962,4.5605,4.6797,4.7647,4.9226,5.1363,5.1842,5.2662,5.3598,5.3598,5.3862,5.424,5.4465,5.506,5.5845,5.6158,5.6683,5.7354,5.7624,5.8068,5.8587,5.8726,5.9391,6.0166,6.021,5.9901,5.963,6.019,6.0344,6.046,6.0963,6.1118,6.1118,6.1118,6.1118,6.1195,6.1505,6.2008,6.2511,6.282,6.2897,6.2897,6.2897,6.2897,6.2704,6.2162,6.371,6.4522,6.3091,0.0,0.0,0.0,0.0,0.0,0.0,6.3439,6.2704,0.0,0.0,0.0,0.0,0.0,0.0,6.3555,6.4706,0.0,6.7911,6.8293,6.9648,7.1947,7.1963,7.1987,7.1987,7.1987,7.1987,7.1987,7.1987,7.2495,7.3354,7.4173,7.4993,7.5891,7.675,7.7101,7.7101,7.7101,7.7101,7.7101,4.3504,4.3403,4.3439,0.0,4.3215,0.0,4.2123,4.1565,4.1185,4.1185,4.0487,4.0304,4.1111,4.1185,4.125,4.1446,0.0,0.0,0.0,4.3578,4.3986,4.3986,4.3986,4.4023,4.4098,4.4878,4.5732,4.6661,4.7974,4.9049,4.9861,4.9818,5.0545,5.1977,5.205,5.2614,5.3481,5.3555,5.4118,5.502,5.5094,5.5614,5.6397,5.6668,5.6849,5.6993,5.7634,5.8394,5.919,5.9504,6.0195,6.0933,6.0962,6.1002,6.1022,6.106,6.1118,6.1118,6.1118,6.1118,6.1118,6.1118,6.1157,6.1389,6.224,6.2511,6.282,6.3632,6.3787,6.3787,6.3787,6.3787,6.3787,6.3787,6.4522,6.4793,6.3903,0.0,0.0,0.0,0.0,0.0,0.0,6.2975,6.4522,0.0,0.0,0.0,0.0,0.0,6.0963,6.5141,6.5275,6.6126,6.7866,6.8735,7.0055,7.1772,7.191,7.2002,7.1997,7.1993,7.1987,7.1987,7.2065,7.2573,7.3432,7.4251,7.511,7.5969,7.6789,7.7101,7.7101,7.7101,7.7101,7.7101,0.0,0.0,4.3133,4.3276,4.2891,4.2606,4.2553,4.223,4.2029,4.2029,4.1332,4.1111,4.1919,4.2029,4.2283,4.2971,4.2775,4.2908,4.3595,4.3881,4.3986,4.3986,4.3986,4.4321,4.4989,4.5175,4.629,4.8333,4.8493,4.9344,5.0822,5.1253,5.1646,5.2013,5.2637,5.313,5.3518,5.4146,5.4637,5.5057,5.5726,5.6469,5.7252,5.7567,5.8267,5.9105,5.9267,5.9741,6.0378,6.0188,6.0493,6.0933,6.0997,6.1,6.1022,6.106,6.1118,6.1118,6.1118,6.1118,6.1118,6.1118,6.1621,6.2162,6.2356,6.3439,6.4445,6.4638,6.4677,6.4677,6.4677,6.4677,6.4677,6.4677,6.5373,6.5644,6.4793,6.5025,0.0,0.0,6.3942,6.4329,6.4948,6.5953,6.5953,0.0,0.0,0.0,0.0,6.4251,6.4522,6.6843,6.7036,6.758,6.8607,6.9624,7.0609,7.1643,7.1786,7.1854,7.1833,7.1936,7.1987,7.2026,7.269,7.3471,7.429,7.5149,7.6008,7.6828,7.7023,7.7101,7.7101,7.7101,7.7101,7.7101,4.3978,4.3008,4.2364,4.3074,4.2617,4.2302,4.2655,4.2449,4.2433,4.28,4.2139,4.1956,4.2763,4.2837,4.3054,4.3529,4.3262,4.3287,4.386,4.3929,4.3992,4.3986,4.4395,4.4804,4.5287,4.603,4.7404,4.9447,4.9676,5.0416,5.1671,5.1919,5.2201,5.2564,5.3004,5.3534,5.4072,5.4515,5.5266,5.6172,5.6655,5.7323,5.8066,5.8234,5.8728,5.9363,5.9711,6.0061,6.0349,6.0494,6.0647,6.0888,6.0933,6.0997,6.1021,6.1022,6.1099,6.1118,6.1118,6.1118,6.1195,6.1582,6.2046,6.2627,6.34,6.4329,6.5102,6.545,6.5528,6.5528,6.5528,6.5528,6.5528,6.5528,6.5605,6.5489,6.5064,6.4986,0.0,6.4986,6.5334,6.5721,6.6147,6.6998,6.692,6.5528,6.6263,0.0,6.6727,6.5992,6.634,6.8042,6.8158,6.8584,6.9396,7.0388,7.1109,7.1573,7.169,7.1743,7.1753,7.1846,7.1871,7.1914,7.2808,7.37,7.4556,7.5433,7.632,7.7101,7.7101,7.7101,7.7101,7.7101,7.7101,7.7101,4.3132,4.2151,4.1528,4.2668,4.223,4.1895,4.2498,4.2487,4.2658,4.3387,4.291,4.2727,4.3424,4.3497,4.3497,4.3497,4.3676,4.3778,4.3902,4.4119,4.4332,4.4358,4.5324,4.5881,4.603,4.7478,4.9002,5.0488,5.1084,5.1748,5.2484,5.2327,5.2573,5.3225,5.3335,5.3865,5.47,5.4958,5.6006,5.7509,5.7621,5.8103,5.8698,5.8781,5.8781,5.8865,5.9467,5.9772,5.9931,6.0494,6.071,6.0804,6.0888,6.0955,6.0997,6.0982,6.1041,6.1118,6.1118,6.1195,6.1466,6.224,6.2588,6.3168,6.4638,6.5102,6.5373,6.6069,6.6185,6.6185,6.6185,6.6185,6.6108,6.5876,6.5373,6.4909,6.4638,0.0,6.4986,6.4986,6.5721,6.6185,6.6185,6.6882,6.7346,6.7501,6.7501,6.7887,6.8738,6.7268,6.7191,6.8932,6.8854,6.9241,7.017,7.1021,7.1446,7.1446,7.1601,7.1649,7.1665,7.1706,7.1778,7.1948,7.2876,7.3827,7.4765,7.5642,7.6438,7.7101,7.7101,7.7101,7.7101,7.7101,7.7101,7.7101,4.2455,4.1779,4.1289,4.1494,4.1306,4.1375,4.1853,4.2429,4.296,4.3426,4.3387,4.3351,4.3497,4.3497,4.3497,4.3497,4.4121,4.4336,4.3841,4.5263,4.6104,4.6104,4.7553,4.8667,4.9336,5.0339,5.1268,5.2197,5.2156,5.256,5.3296,5.313,5.3078,5.3225,5.3922,5.4381,5.4773,5.6214,5.708,5.7583,5.8252,5.8586,5.8739,5.9025,5.9103,5.914,5.9252,5.9706,6.0208,6.003,6.0321,6.0804,6.0888,6.0955,6.0997,6.0982,6.1041,6.1118,6.1118,6.166,6.224,6.2356,6.3516,6.4677,6.4948,6.5528,6.6031,6.6185,6.6185,6.6185,6.6185,6.6185,6.5721,6.4329,6.4599,6.4483,6.3013,0.0,6.4986,6.4986,6.5721,6.6185,6.6185,6.6301,6.6727,6.7423,6.7501,6.7887,6.8738,6.7849,6.8081,6.9744,6.9164,6.9551,7.1059,7.1253,7.133,7.133,7.1446,7.1528,7.1513,7.1661,7.2082,7.2768,7.3764,7.4686,7.5585,7.6501,7.6984,7.7101,7.7101,7.7101,7.7101,7.7101,7.7101,7.7101,4.1644,4.1102,4.0781,4.1342,4.1271,4.1321,4.1931,4.2537,4.3032,4.3463,4.3497,4.3644,4.4085,4.3754,4.3828,4.4709,4.4744,4.4814,4.5029,4.6274,4.7043,4.7144,4.8704,4.993,5.0785,5.1639,5.2234,5.2605,5.2899,5.3188,5.3481,5.3318,5.345,5.3885,5.4338,5.5049,5.6103,5.6927,5.7608,5.8178,5.8549,5.8698,5.8698,5.8865,5.8908,5.8947,5.914,5.9395,5.9734,5.9962,6.0265,6.0572,6.0781,6.0911,6.0955,6.098,6.137,6.1814,6.1814,6.2433,6.3207,6.3671,6.4406,6.5102,6.5528,6.5915,6.6185,6.6185,6.6185,6.6185,6.6185,6.6185,6.5799,6.4599,6.4715,0.0,0.0,6.4213,6.4986,6.4986,6.5721,6.6379,6.6843,6.6495,6.6572,6.7423,6.7501,6.7887,6.8738,6.7965,6.8468,7.0634,7.0324,7.0518,7.1291,7.1291,7.1291,7.1291,7.1369,7.1369,7.1369,7.1474,7.1974,7.2824,7.3765,7.4733,7.572,7.6601,7.7016,7.7101,7.7101,7.7101,7.7101,7.7101,7.7101,7.7101,4.0832,4.0493,4.0358,4.1086,4.112,4.1185,4.1846,4.2297,4.2732,4.3286,4.3393,4.3686,4.46,4.4158,4.4342,4.5773,4.5551,4.5697,4.6616,4.7647,4.8234,4.8224,5.0005,5.1268,5.1936,5.2568,5.2865,5.2865,5.3419,5.3709,5.3776,5.3654,5.397,5.4736,5.5006,5.5945,5.7217,5.745,5.8021,5.8698,5.8698,5.8698,5.8698,5.8698,5.8698,5.8739,5.8986,5.914,5.9289,5.9868,6.0179,6.0349,6.0597,6.0781,6.0949,6.1186,6.2063,6.2955,6.2743,6.3323,6.4135,6.4831,6.5141,6.545,6.6069,6.6185,6.6185,6.6185,6.6185,6.6185,6.6185,6.6185,6.5876,6.487,0.0,0.0,0.0,6.4445,6.5064,6.5257,6.5837,6.6456,6.7114,6.6572,6.6495,6.7152,6.7384,6.7887,6.8738,6.8158,6.8777,7.0943,7.1175,7.1291,7.1291,7.1291,7.1291,7.1291,7.1291,7.1291,7.1291,7.1523,7.2126,7.3041,7.3929,7.4885,7.592,7.6618,7.699,7.7101,7.7101,7.7101,7.7101,7.7101,7.7101,7.7101,4.0155,4.0121,4.0138,4.0206,4.0421,4.0693,4.1139,4.141,4.1966,4.2844,4.292,4.3396,4.46,4.4672,4.4966,4.581,4.6544,4.7316,4.8273,4.9783,5.0414,4.9824,5.2234,5.3571,5.3608,5.3683,5.372,5.372,5.36,5.3887,5.4585,5.4417,5.4816,5.5711,5.6485,5.6983,5.7344,5.8085,5.8498,5.8698,5.8698,5.8698,5.8698,5.8698,5.8698,5.8698,5.8739,5.8908,5.9215,5.9289,5.9772,6.0293,6.0321,6.0597,6.1065,6.1797,6.3312,6.4539,6.3826,6.4251,6.4909,6.4986,6.5566,6.6147,6.6185,6.6185,6.6185,6.6185,6.6185,6.6185,6.6185,6.6185,6.5682,6.4058,0.0,0.0,6.3826,6.4445,6.5257,6.6031,6.6147,6.6224,6.6301,6.6224,6.6224,6.6301,6.7036,6.7887,6.8738,6.8738,6.9125,7.0054,7.0866,7.1291,7.1291,7.1291,7.1291,7.1291,7.1291,7.1291,7.133,7.2142,7.2993,7.3867,7.4805,7.5789,7.6729,7.69,7.7031,7.7101,7.7101,7.7101,7.7101,7.7101,7.7101,7.7101,4.0087,4.0087,4.0138,4.0337,4.0436,4.0693,4.123,4.1674,4.2175,4.2806,4.3542,4.4346,4.5333,4.5443,4.5957,4.7278,4.7205,4.7682,4.9118,5.022,5.1256,5.2116,5.3195,5.3716,5.3716,5.3793,5.3794,5.3794,5.4078,5.4404,5.4695,5.5085,5.5705,5.6558,5.699,5.7481,5.8048,5.8466,5.8656,5.8698,5.8698,5.8698,5.8698,5.8698,5.8698,5.8698,5.8698,5.8781,5.8908,5.914,5.9571,6.0106,6.081,6.1313,6.1905,6.3338,6.4254,6.49,6.5118,6.5469,6.5721,6.5721,6.5953,6.6185,6.6185,6.6185,6.6185,6.6185,6.6185,6.6185,6.6185,6.6185,6.5837,6.4677,0.0,6.545,6.4599,6.5218,6.5876,6.6147,6.6185,6.6417,6.6959,6.6533,6.6417,6.6959,6.781,6.8468,6.8777,6.9783,7.0247,7.0015,7.0827,7.1291,7.1291,7.1291,7.1291,7.1291,7.1291,7.1291,7.133,7.2181,7.3071,7.396,7.4806,7.5776,7.678,7.6866,7.6966,7.7087,7.7107,7.7101,7.7101,7.7101,7.7101,7.7101,4.0087,4.0257,4.0477,4.0678,4.0728,4.0974,4.1429,4.184,4.2321,4.2936,4.3971,4.5038,4.614,4.6287,4.6838,4.8196,4.7792,4.8196,4.9848,5.0986,5.2132,5.3404,5.3558,5.3637,5.3637,5.3676,5.3827,5.4086,5.4482,5.4875,5.5428,5.5939,5.6639,5.7413,5.7592,5.8016,5.8572,5.8656,5.8698,5.8698,5.8698,5.8698,5.8698,5.8698,5.8698,5.8698,5.8698,5.8698,5.8739,5.8947,5.9477,6.0165,6.105,6.1847,6.2767,6.4239,6.4517,6.4602,6.5771,6.593,6.5856,6.6147,6.6185,6.6185,6.6185,6.6185,6.6185,6.6185,6.6185,6.6185,6.6185,6.6185,6.6031,6.545,6.5837,6.5992,6.545,6.5837,6.6185,6.6185,6.6185,6.6417,6.7036,6.6533,6.6572,6.7423,6.8313,6.9048,6.9551,7.0672,7.1021,7.044,7.0982,7.1291,7.1291,7.1291,7.1291,7.1291,7.1291,7.1291,7.133,7.2491,7.3342,7.396,7.5082,7.6049,7.6799,7.6838,7.6946,7.7142,7.713,7.7122,7.7117,7.7117,7.7107,7.7101,4.0087,4.0696,4.1204,4.1204,4.1307,4.1461,4.1562,4.1713,4.2215,4.3273,4.4036,4.5162,4.6908,4.7094,4.7462,4.8233,4.8306,4.9003,5.0692,5.2307,5.323,5.3318,5.344,5.3481,5.3481,5.3518,5.3887,5.47,5.4575,5.538,5.7,5.7,5.7486,5.8393,5.8486,5.8572,5.8698,5.8698,5.8698,5.8698,5.8698,5.8698,5.8698,5.8698,5.8698,5.8698,5.8698,5.8698,5.8698,5.8735,5.9505,6.0567,6.0884,6.206,6.3512,6.4431,6.407,6.3785,6.5595,6.5522,6.5118,6.5972,6.6185,6.6185,6.6185,6.6185,6.6185,6.6185,6.6185,6.6185,6.6185,6.6185,6.6185,6.6185,6.6185,6.6185,6.6185,6.6185,6.6185,6.6185,6.6185,6.6185,6.6185,6.6224,6.6572,6.7423,6.8313,6.9551,7.1214,7.1291,7.1291,7.1291,7.1291,7.1291,7.1291,7.1291,7.1291,7.1291,7.1291,7.1291,7.1369,7.3109,7.3883,7.3999,7.5817,7.6668,7.6808,7.6962,7.7078,7.7187,7.7187,7.7147,7.7097,7.7097,7.7087,7.7107,4.0087,4.0257,4.0477,4.0527,4.107,4.1461,4.1562,4.2423,4.3171,4.35,4.4591,4.5681,4.6517,4.7143,4.77,4.8231,4.8306,4.9003,5.0692,5.1793,5.2601,5.3193,5.34,5.3481,5.3481,5.4195,5.4642,5.4902,5.5969,5.67,5.7094,5.7771,5.8134,5.826,5.8443,5.8492,5.8572,5.8572,5.8614,5.8698,5.8698,5.8698,5.8698,5.8698,5.8698,5.8698,5.8698,5.8698,5.8809,5.9367,5.999,6.0792,6.2553,6.3817,6.4824,6.5372,6.4922,6.4484,6.5704,6.5418,6.5076,6.5972,6.6185,6.6185,6.6185,6.6185,6.6185,6.6185,6.6185,6.6185,6.6185,6.6185,6.6185,6.6185,6.6185,6.6185,6.6185,6.6185,6.6185,6.6185,6.6185,6.6185,6.6185,6.6766,6.6959,6.6611,6.7965,6.9551,7.1214,7.1291,7.1291,7.1291,7.1291,7.1291,7.1291,7.1291,7.1291,7.1291,7.1291,7.1601,7.2258,7.338,7.427,7.4928,7.6088,7.6707,7.6962,7.7001,7.7078,7.7187,7.7187,7.7187,7.7187,7.7187,7.7176,7.7179,4.0087,4.0561,4.1018,4.107,4.168,4.2294,4.2449,4.3184,4.3826,4.4117,4.5164,4.6041,4.6564,4.7047,4.7506,4.7995,4.8522,4.9224,5.0251,5.1389,5.2344,5.3188,5.3649,5.3879,5.3875,5.4773,5.5369,5.5702,5.6657,5.7198,5.7486,5.8054,5.8312,5.8179,5.84,5.8492,5.8492,5.8572,5.8614,5.8698,5.8698,5.8698,5.8698,5.8698,5.8698,5.8698,5.8698,5.8921,5.9255,5.9738,6.0588,6.177,6.366,6.4489,6.4862,6.5282,6.4551,6.3883,6.5134,6.491,6.4569,6.5853,6.6165,6.6185,6.6185,6.6185,6.6185,6.6185,6.6185,6.6185,6.6185,6.6185,6.6185,6.6185,6.6185,6.6185,6.6185,6.6185,6.6185,6.6185,6.6185,6.6185,6.6185,6.6688,6.7036,6.723,6.8816,7.0247,7.1253,7.1291,7.1291,7.1291,7.1291,7.1291,7.1291,7.1291,7.1291,7.1291,7.1291,7.1756,7.2645,7.3496,7.4386,7.5299,7.6183,7.671,7.6865,7.6885,7.6988,7.7044,7.7108,7.7109,7.7148,7.7187,7.7184,7.7208,4.0189,4.1305,4.2286,4.2286,4.2929,4.3491,4.3814,4.3936,4.4251,4.4886,4.5698,4.6315,4.6788,4.6845,4.7071,4.7548,4.8729,4.9517,4.9701,5.1132,5.238,5.3298,5.4191,5.4669,5.462,5.5361,5.6095,5.6867,5.6904,5.7299,5.7997,5.8133,5.8179,5.8179,5.84,5.8492,5.8529,5.8614,5.8698,5.8698,5.8698,5.8698,5.8735,5.8772,5.8809,5.8846,5.8921,5.9404,6.0035,6.011,6.1409,6.3199,6.4327,6.4367,6.4097,6.4475,6.3474,6.2574,6.4263,6.4155,6.4029,6.5655,6.6144,6.6185,6.6185,6.6185,6.6185,6.6185,6.6185,6.6185,6.6185,6.6185,6.6185,6.6185,6.6185,6.6185,6.6185,6.6185,6.6185,6.6185,6.6185,6.6185,6.6185,6.6263,6.7036,6.8777,7.0324,7.1214,7.1291,7.1291,7.1291,7.1291,7.1291,7.1291,7.1291,7.1291,7.1291,7.1291,7.1291,7.1794,7.2723,7.3535,7.4386,7.5299,7.6224,7.6621,7.6638,7.6728,7.6807,7.6793,7.6922,7.699,7.6992,7.7148,7.7187,7.7187,4.1068,4.1677,4.2286,4.2286,4.2929,4.3403,4.3491,4.4184,4.4829,4.4989,4.5338,4.5752,4.6266,4.6695,4.7071,4.7548,4.8218,4.915,5.0435,5.1463,5.2637,5.4069,5.55,5.6271,5.6271,5.6595,5.6866,5.7014,5.7715,5.8076,5.8133,5.8305,5.8305,5.8215,5.8349,5.8443,5.8492,5.8492,5.8614,5.8698,5.8698,5.8698,5.8772,5.9404,5.9664,5.9738,6.0407,6.0778,6.1001,6.167,6.279,6.4026,6.4554,6.4367,6.4097,6.4475,6.3858,6.3281,6.4393,6.4617,6.4762,6.5848,6.6144,6.6185,6.6185,6.6185,6.6185,6.6185,6.6185,6.6185,6.6185,6.6185,6.6185,6.6185,6.6185,6.6185,6.6185,6.6185,6.6185,6.6185,6.6185,6.6185,6.6185,6.6804,6.7926,6.9589,7.0092,7.0556,7.1253,7.1291,7.1291,7.1291,7.1291,7.1291,7.1291,7.1291,7.1291,7.1291,7.1291,7.2104,7.3612,7.3806,7.4773,7.6281,7.6505,7.6665,7.6742,7.6785,7.6785,7.6806,7.6808,7.6916,7.6992,7.7031,7.7109,7.7187,4.1813,4.232,4.2828,4.2828,4.347,4.3978,4.4088,4.4504,4.494,4.5069,4.5211,4.5476,4.5752,4.602,4.6613,4.7707,4.8254,4.9208,5.0729,5.1903,5.3115,5.4363,5.5941,5.6969,5.7373,5.7508,5.7516,5.7516,5.7994,5.8179,5.8088,5.8215,5.8179,5.8088,5.8305,5.8437,5.8443,5.8572,5.8656,5.8698,5.8698,5.8958,5.9329,5.9738,6.0184,6.0593,6.1038,6.1447,6.1893,6.271,6.3499,6.4251,6.4592,6.4633,6.4632,6.459,6.4282,6.4012,6.4523,6.4686,6.4949,6.5843,6.6102,6.6144,6.6185,6.6185,6.6185,6.6185,6.6185,6.6185,6.6185,6.6185,6.6185,6.6185,6.6185,6.6185,6.6185,6.6185,6.6185,6.6185,6.6185,6.6185,6.6185,6.7346,6.8468,6.9357,7.017,7.0827,7.1291,7.1291,7.1291,7.1291,7.1291,7.1291,7.1291,7.1291,7.1523,7.191,7.191,7.2607,7.3922,7.4309,7.5237,7.6475,7.6475,7.6514,7.6591,7.6591,7.6591,7.663,7.6668,7.6767,7.6809,7.6941,7.707,7.7187,4.2523,4.3098,4.3606,4.3606,4.4147,4.4643,4.472,4.4776,4.494,4.5123,4.5177,4.5318,4.5371,4.558,4.6374,4.795,4.8668,4.9537,5.0826,5.2485,5.3702,5.4363,5.6088,5.7262,5.7776,5.7923,5.7997,5.7997,5.7997,5.7997,5.7997,5.7997,5.7997,5.8042,5.826,5.8393,5.8437,5.8572,5.873,5.8921,5.8921,5.9404,6.0147,6.0295,6.0778,6.141,6.1558,6.2041,6.271,6.3379,6.3915,6.433,6.4592,6.4927,6.5073,6.4706,6.4589,6.4589,6.4589,6.4754,6.5095,6.5836,6.6036,6.6102,6.6144,6.6165,6.6185,6.6185,6.6185,6.6185,6.6185,6.6185,6.6185,6.6185,6.6185,6.6185,6.6185,6.6185,6.6185,6.6185,6.6185,6.6185,6.6185,6.7655,6.8661,6.8777,7.0363,7.1291,7.1291,7.1446,7.1446,7.1291,7.1291,7.1291,7.1291,7.1446,7.1872,7.2607,7.2877,7.3419,7.4115,7.4811,7.5585,7.6397,7.6397,7.6397,7.6397,7.6397,7.6397,7.6397,7.6514,7.6552,7.6626,7.688,7.7068,7.7148,4.3403,4.3876,4.4418,4.4418,4.4519,4.4643,4.4643,4.4831,4.4995,4.5049,4.5264,4.5371,4.5423,4.6395,4.7287,4.7939,4.9127,5.0198,5.1084,5.3083,5.4289,5.4399,5.6602,5.7556,5.6969,5.7629,5.7997,5.7997,5.7997,5.7997,5.7997,5.7997,5.8042,5.8179,5.8179,5.8312,5.8486,5.8529,5.9022,5.9738,5.9738,6.0258,6.1113,6.1819,6.2153,6.2339,6.3044,6.3379,6.3453,6.3565,6.405,6.4628,6.4699,6.4703,6.4693,6.4603,6.4589,6.4589,6.4589,6.5216,6.5842,6.5982,6.6029,6.6013,6.6036,6.6123,6.6185,6.6185,6.6185,6.6185,6.6185,6.6185,6.6185,6.6185,6.6185,6.6185,6.6185,6.6185,6.6185,6.6185,6.6185,6.6185,6.6185,6.7114,6.8003,6.8738,7.0363,7.1291,7.1291,7.2026,7.2065,7.133,7.1291,7.1291,7.1291,7.2065,7.2491,7.2607,7.4077,7.4811,7.4928,7.5044,7.5585,7.6397,7.6397,7.6397,7.6397,7.6397,7.6397,7.6397,7.6397,7.6475,7.6621,7.678,7.6906,7.699,4.4147,4.435,4.4587,4.4587,4.4587,4.4587,4.4587,4.4665,4.4776,4.4886,4.5049,4.5211,4.5318,4.6238,4.7422,4.8791,4.9674,5.0674,5.1782,5.3441,5.4583,5.506,5.6528,5.7373,5.7483,5.7373,5.7336,5.7336,5.7776,5.7997,5.7997,5.7997,5.8042,5.8088,5.8133,5.8223,5.8393,5.8968,5.9499,5.9913,6.0401,6.115,6.193,6.2264,6.2673,6.3119,6.349,6.3602,6.3602,6.3602,6.3963,6.4445,6.4628,6.4839,6.5033,6.5269,6.532,6.532,6.532,6.5615,6.5947,6.5996,6.5982,6.6005,6.599,6.6058,6.6102,6.6123,6.6165,6.6185,6.6185,6.6185,6.6185,6.6185,6.6185,6.6185,6.6185,6.6185,6.6185,6.6185,6.6185,6.6185,6.6185,6.7423,6.839,6.8777,7.0789,7.2026,7.2026,7.2375,7.2413,7.2026,7.1562,7.1291,7.1291,7.1678,7.2375,7.3342,7.4077,7.4657,7.5121,7.5585,7.6049,7.6397,7.6397,7.6397,7.6397,7.6397,7.6397,7.6397,7.6397,7.6475,7.6637,7.6672,7.6754,7.6885]},{"header":{"parameterUnit":"m.s-1","parameterCategory":1,"la1":30.6,"la2":28.766,"lo1":-90.7593,"lo2":-88.6598,"dx":0.0162,"dy":0.0183,"nx":116,"ny":114,"refTime":"2023-01-13T06:00:00:Z","depth":0,"parameterNumber":3,"parameterNumberName":"V-component_of_WINDS"},"data":[0.0,0.0,0.0,0.0,0.0,0.0,0.0,0.0,0.0,0.0,0.0,0.0,0.0,0.0,0.0,0.0,0.0,0.0,0.0,0.0,0.0,0.0,0.0,0.0,0.0,0.0,0.0,0.0,0.0,0.0,0.0,0.0,0.0,0.0,0.0,0.0,0.0,0.0,0.0,0.0,0.0,0.0,0.0,0.0,0.0,0.0,0.0,0.0,0.0,0.0,0.0,0.0,0.0,0.0,0.0,0.0,0.0,0.0,0.0,0.0,0.0,0.0,0.0,0.0,0.0,0.0,0.0,0.0,0.0,0.0,0.0,0.0,0.0,0.0,0.0,0.0,0.0,0.0,0.0,0.0,0.0,0.0,0.0,0.0,0.0,0.0,0.0,0.0,0.0,0.0,0.0,0.0,0.0,0.0,0.0,0.0,0.0,0.0,0.0,0.0,0.0,0.0,0.0,0.0,0.0,0.0,0.0,0.0,0.0,0.0,0.0,0.0,0.0,0.0,0.0,0.0,0.0,0.0,0.0,0.0,0.0,0.0,0.0,0.0,0.0,0.0,0.0,0.0,0.0,0.0,0.0,0.0,0.0,0.0,0.0,0.0,0.0,0.0,0.0,0.0,0.0,0.0,0.0,0.0,0.0,0.0,0.0,0.0,0.0,0.0,0.0,0.0,0.0,0.0,0.0,0.0,0.0,0.0,0.0,0.0,0.0,0.0,0.0,0.0,0.0,0.0,0.0,0.0,0.0,0.0,0.0,0.0,0.0,0.0,0.0,0.0,0.0,0.0,0.0,0.0,0.0,0.0,0.0,0.0,0.0,0.0,0.0,0.0,0.0,0.0,0.0,0.0,0.0,0.0,0.0,0.0,0.0,0.0,0.0,0.0,0.0,0.0,0.0,0.0,0.0,0.0,0.0,0.0,0.0,0.0,0.0,0.0,0.0,0.0,0.0,0.0,0.0,0.0,0.0,0.0,0.0,0.0,0.0,0.0,0.0,0.0,0.0,0.0,0.0,0.0,0.0,0.0,0.0,0.0,0.0,0.0,0.0,0.0,0.0,0.0,0.0,0.0,0.0,0.0,0.0,0.0,0.0,0.0,0.0,0.0,0.0,0.0,0.0,0.0,0.0,0.0,0.0,0.0,0.0,0.0,0.0,0.0,0.0,0.0,0.0,0.0,0.0,0.0,0.0,0.0,0.0,0.0,0.0,0.0,0.0,0.0,0.0,0.0,0.0,0.0,0.0,0.0,0.0,0.0,0.0,0.0,0.0,0.0,0.0,0.0,0.0,0.0,0.0,0.0,0.0,0.0,0.0,0.0,0.0,0.0,0.0,0.0,0.0,0.0,0.0,0.0,0.0,0.0,0.0,0.0,0.0,0.0,0.0,0.0,0.0,0.0,0.0,0.0,0.0,0.0,0.0,0.0,0.0,0.0,0.0,0.0,0.0,0.0,0.0,0.0,0.0,0.0,0.0,0.0,0.0,0.0,0.0,0.0,0.0,0.0,0.0,0.0,0.0,0.0,0.0,0.0,0.0,0.0,0.0,0.0,0.0,0.0,0.0,0.0,0.0,0.0,0.0,0.0,0.0,0.0,0.0,0.0,0.0,0.0,0.0,0.0,0.0,0.0,0.0,0.0,0.0,0.0,0.0,0.0,0.0,0.0,0.0,0.0,0.0,0.0,0.0,0.0,0.0,0.0,0.0,0.0,0.0,0.0,0.0,0.0,0.0,0.0,0.0,0.0,0.0,0.0,0.0,0.0,0.0,0.0,0.0,0.0,0.0,0.0,0.0,0.0,0.0,0.0,0.0,0.0,0.0,0.0,0.0,0.0,0.0,0.0,0.0,0.0,0.0,0.0,0.0,0.0,0.0,0.0,0.0,0.0,0.0,0.0,0.0,0.0,0.0,0.0,0.0,0.0,0.0,0.0,0.0,0.0,0.0,0.0,0.0,0.0,0.0,0.0,0.0,0.0,0.0,0.0,0.0,0.0,0.0,0.0,0.0,0.0,0.0,0.0,0.0,0.0,0.0,0.0,0.0,0.0,0.0,0.0,0.0,0.0,0.0,0.0,0.0,0.0,0.0,0.0,0.0,0.0,0.0,0.0,0.0,0.0,0.0,0.0,0.0,0.0,0.0,0.0,0.0,0.0,0.0,0.0,0.0,0.0,0.0,0.0,0.0,0.0,0.0,0.0,0.0,0.0,0.0,0.0,0.0,0.0,0.0,0.0,0.0,0.0,0.0,0.0,0.0,0.0,0.0,0.0,0.0,0.0,0.0,0.0,0.0,0.0,0.0,0.0,0.0,0.0,0.0,0.0,0.0,0.0,0.0,0.0,0.0,0.0,0.0,0.0,0.0,0.0,0.0,0.0,0.0,0.0,0.0,0.0,0.0,0.0,0.0,0.0,0.0,0.0,0.0,0.0,0.0,0.0,0.0,0.0,0.0,0.0,0.0,0.0,0.0,0.0,0.0,0.0,0.0,0.0,0.0,0.0,0.0,0.0,0.0,0.0,0.0,0.0,0.0,0.0,0.0,0.0,0.0,0.0,0.0,0.0,0.0,0.0,0.0,0.0,0.0,0.0,0.0,0.0,0.0,0.0,0.0,0.0,0.0,0.0,0.0,0.0,0.0,0.0,0.0,0.0,0.0,0.0,0.0,0.0,0.0,0.0,0.0,0.0,0.0,0.0,0.0,0.0,0.0,0.0,0.0,0.0,0.0,0.0,0.0,0.0,0.0,0.0,0.0,0.0,0.0,0.0,0.0,0.0,0.0,0.0,0.0,0.0,0.0,0.0,0.0,0.0,0.0,0.0,0.0,0.0,0.0,0.0,0.0,0.0,0.0,0.0,0.0,0.0,0.0,0.0,0.0,0.0,0.0,0.0,0.0,0.0,0.0,0.0,0.0,0.0,0.0,0.0,0.0,0.0,0.0,0.0,0.0,0.0,0.0,0.0,0.0,0.0,0.0,0.0,0.0,0.0,0.0,0.0,0.0,0.0,0.0,0.0,0.0,0.0,0.0,0.0,0.0,0.0,0.0,0.0,0.0,0.0,0.0,0.0,0.0,0.0,0.0,0.0,0.0,0.0,0.0,0.0,0.0,0.0,0.0,0.0,0.0,0.0,0.0,0.0,0.0,0.0,0.0,0.0,0.0,0.0,0.0,0.0,0.0,0.0,0.0,0.0,0.0,0.0,0.0,0.0,0.0,0.0,0.0,0.0,0.0,0.0,0.0,0.0,0.0,0.0,0.0,0.0,0.0,0.0,0.0,0.0,0.0,0.0,0.0,0.0,0.0,0.0,0.0,0.0,0.0,0.0,0.0,0.0,0.0,0.0,0.0,0.0,0.0,0.0,0.0,0.0,0.0,0.0,0.0,0.0,0.0,0.0,0.0,0.0,0.0,0.0,0.0,0.0,0.0,0.0,0.0,0.0,0.0,0.0,0.0,0.0,0.0,0.0,0.0,0.0,0.0,0.0,0.0,0.0,0.0,0.0,0.0,0.0,0.0,0.0,0.0,0.0,0.0,0.0,0.0,0.0,0.0,0.0,0.0,0.0,0.0,0.0,0.0,0.0,0.0,0.0,0.0,0.0,0.0,0.0,0.0,0.0,0.0,0.0,0.0,0.0,0.0,0.0,0.0,0.0,0.0,0.0,0.0,0.0,0.0,0.0,0.0,0.0,0.0,0.0,0.0,0.0,0.0,0.0,0.0,0.0,0.0,0.0,0.0,0.0,0.0,0.0,0.0,0.0,0.0,0.0,0.0,0.0,0.0,0.0,0.0,0.0,0.0,0.0,0.0,0.0,0.0,0.0,0.0,0.0,0.0,0.0,0.0,0.0,0.0,0.0,0.0,0.0,0.0,0.0,0.0,0.0,0.0,0.0,0.0,0.0,0.0,0.0,0.0,0.0,0.0,0.0,0.0,0.0,0.0,0.0,0.0,0.0,0.0,0.0,0.0,0.0,0.0,0.0,0.0,0.0,0.0,0.0,0.0,0.0,0.0,0.0,0.0,0.0,0.0,0.0,0.0,0.0,0.0,0.0,0.0,0.0,0.0,0.0,0.0,0.0,0.0,0.0,0.0,0.0,0.0,0.0,0.0,0.0,0.0,0.0,0.0,0.0,0.0,0.0,0.0,0.0,0.0,0.0,0.0,0.0,0.0,0.0,0.0,0.0,0.0,0.0,0.0,0.0,0.0,0.0,0.0,0.0,0.0,0.0,0.0,0.0,0.0,0.0,0.0,0.0,0.0,0.0,0.0,0.0,0.0,0.0,0.0,0.0,0.0,0.0,0.0,0.0,0.0,0.0,0.0,0.0,0.0,0.0,0.0,0.0,0.0,0.0,0.0,0.0,0.0,0.0,0.0,0.0,0.0,0.0,0.0,0.0,0.0,0.0,0.0,0.0,0.0,0.0,0.0,0.0,0.0,0.0,0.0,0.0,0.0,0.0,0.0,0.0,0.0,0.0,0.0,0.0,0.0,0.0,0.0,0.0,0.0,0.0,0.0,0.0,0.0,0.0,0.0,0.0,0.0,0.0,0.0,0.0,0.0,0.0,0.0,0.0,0.0,0.0,0.0,0.0,0.0,0.0,0.0,0.0,0.0,0.0,0.0,0.0,0.0,0.0,0.0,0.0,0.0,0.0,0.0,0.0,0.0,0.0,0.0,0.0,0.0,0.0,0.0,0.0,0.0,0.0,0.0,0.0,0.0,0.0,0.0,0.0,0.0,0.0,0.0,0.0,0.0,0.0,0.0,0.0,0.0,0.0,0.0,0.0,0.0,0.0,0.0,0.0,0.0,0.0,0.0,0.0,0.0,0.0,0.0,0.0,0.0,0.0,0.0,0.0,0.0,0.0,0.0,0.0,0.0,0.0,0.0,0.0,0.0,0.0,0.0,0.0,0.0,0.0,0.0,0.0,0.0,0.0,0.0,0.0,0.0,0.0,0.0,0.0,0.0,0.0,0.0,0.0,0.0,0.0,0.0,0.0,0.0,0.0,0.0,0.0,0.0,0.0,0.0,0.0,0.0,0.0,0.0,0.0,0.0,0.0,0.0,0.0,0.0,0.0,0.0,0.0,0.0,0.0,0.0,0.0,0.0,0.0,0.0,0.0,0.0,0.0,0.0,0.0,0.0,0.0,0.0,0.0,0.0,0.0,0.0,0.0,0.0,0.0,0.0,0.0,0.0,0.0,0.0,0.0,0.0,0.0,0.0,0.0,0.0,0.0,0.0,0.0,0.0,0.0,0.0,0.0,0.0,0.0,0.0,0.0,0.0,0.0,0.0,0.0,0.0,0.0,0.0,0.0,0.0,0.0,0.0,0.0,0.0,0.0,0.0,0.0,0.0,0.0,0.0,0.0,0.0,0.0,0.0,0.0,0.0,0.0,0.0,0.0,0.0,0.0,0.0,0.0,0.0,0.0,0.0,0.0,0.0,0.0,0.0,0.0,0.0,0.0,0.0,0.0,0.0,0.0,0.0,0.0,0.0,0.0,0.0,0.0,0.0,0.0,0.0,0.0,0.0,0.0,0.0,0.0,0.0,0.0,0.0,0.0,0.0,0.0,0.0,0.0,0.0,0.0,0.0,0.0,0.0,0.0,0.0,0.0,0.0,0.0,0.0,0.0,0.0,0.0,0.0,0.0,0.0,0.0,0.0,0.0,0.0,0.0,0.0,0.0,0.0,0.0,0.0,0.0,0.0,0.0,0.0,0.0,0.0,0.0,0.0,0.0,0.0,0.0,0.0,0.0,0.0,0.0,0.0,0.0,0.0,0.0,0.0,0.0,0.0,0.0,0.0,0.0,0.0,0.0,0.0,0.0,0.0,0.0,0.0,0.0,0.0,0.0,0.0,0.0,0.0,0.0,0.0,0.0,0.0,0.0,0.0,0.0,0.0,0.0,0.0,0.0,0.0,0.0,0.0,0.0,0.0,0.0,0.0,0.0,0.0,0.0,0.0,0.0,0.0,0.0,0.0,0.0,0.0,0.0,0.0,0.0,0.0,0.0,0.0,0.0,0.0,0.0,0.0,0.0,0.0,0.0,0.0,0.0,0.0,0.0,0.0,0.0,0.0,0.0,0.0,0.0,0.0,0.0,0.0,0.0,-0.7374,0.0,0.0,0.0,0.0,0.0,0.0,0.0,0.0,0.0,0.0,0.0,0.0,0.0,0.0,0.0,0.0,0.0,0.0,0.0,0.0,0.0,0.0,0.0,0.0,0.0,0.0,0.0,0.0,0.0,0.0,0.0,0.0,0.0,0.0,0.0,0.0,0.0,0.0,0.0,0.0,0.0,0.0,0.0,0.0,0.0,0.0,0.0,0.0,0.0,0.0,0.0,0.0,0.0,0.0,0.0,0.0,0.0,0.0,0.0,0.0,0.0,0.0,0.0,0.0,0.0,0.0,0.0,0.0,0.0,0.0,0.0,0.0,0.0,0.0,0.0,0.0,0.0,0.0,0.0,0.0,0.0,0.0,0.0,0.0,0.0,0.0,0.0,0.0,0.0,0.0,0.0,0.0,0.0,0.0,0.0,0.0,0.0,0.0,0.0,0.0,0.0,0.0,0.0,0.0,0.0,0.0,0.0,0.0,0.0,0.0,0.0,0.0,0.0,0.0,0.0,0.0,-0.7586,0.0,0.0,0.0,0.0,0.0,0.0,0.0,0.0,0.0,0.0,0.0,0.0,0.0,0.0,0.0,0.0,0.0,0.0,0.0,0.0,0.0,0.0,0.0,0.0,0.0,0.0,0.0,0.0,0.0,0.0,0.0,0.0,0.0,0.0,0.0,0.0,0.0,0.0,0.0,0.0,0.0,0.0,0.0,0.0,0.0,0.0,0.0,0.0,0.0,0.0,0.0,0.0,0.0,0.0,0.0,0.0,0.0,0.0,0.0,0.0,0.0,0.0,0.0,0.0,0.0,0.0,0.0,0.0,0.0,0.0,0.0,0.0,0.0,0.0,0.0,0.0,0.0,0.0,0.0,0.0,0.0,0.0,0.0,0.0,0.0,0.0,0.0,0.0,0.0,0.0,0.0,0.0,0.0,0.0,0.0,0.0,0.0,0.0,0.0,0.0,0.0,0.0,0.0,0.0,0.0,0.0,0.0,0.0,-0.7647,-0.7642,-0.7754,-0.7699,-0.7893,-0.8156,-0.8074,-0.8276,-0.8682,0.0,0.0,0.0,0.0,0.0,0.0,0.0,0.0,0.0,0.0,0.0,0.0,0.0,0.0,0.0,0.0,0.0,0.0,0.0,0.0,0.0,0.0,0.0,0.0,0.0,0.0,0.0,0.0,0.0,0.0,0.0,0.0,0.0,0.0,0.0,0.0,0.0,0.0,0.0,0.0,0.0,0.0,0.0,0.0,0.0,0.0,0.0,0.0,0.0,0.0,0.0,0.0,0.0,0.0,0.0,0.0,0.0,0.0,0.0,0.0,0.0,0.0,0.0,0.0,0.0,0.0,0.0,0.0,0.0,0.0,0.0,0.0,0.0,0.0,0.0,0.0,0.0,0.0,0.0,0.0,0.0,0.0,0.0,0.0,0.0,0.0,0.0,-0.9241,-0.8963,0.0,0.0,0.0,0.0,0.0,0.0,0.0,0.0,0.0,0.0,0.0,0.0,0.0,-0.8043,-0.8162,-0.8252,-0.833,-0.8476,-0.8251,-0.8353,-0.8681,-0.8664,-0.8918,-0.9548,-0.91,0.0,-0.8365,-0.843,0.0,0.0,0.0,0.0,0.0,0.0,0.0,0.0,0.0,0.0,0.0,0.0,0.0,0.0,0.0,0.0,0.0,0.0,0.0,0.0,0.0,0.0,0.0,0.0,0.0,0.0,0.0,0.0,0.0,0.0,0.0,0.0,0.0,0.0,0.0,0.0,0.0,0.0,0.0,0.0,0.0,0.0,0.0,0.0,0.0,0.0,0.0,0.0,0.0,0.0,0.0,0.0,0.0,0.0,0.0,0.0,0.0,0.0,0.0,0.0,0.0,0.0,0.0,0.0,0.0,0.0,0.0,0.0,0.0,0.0,0.0,0.0,0.0,0.0,0.0,0.0,0.0,0.0,0.0,0.0,0.0,0.0,0.0,0.0,0.0,-1.0341,-0.9983,-0.9734,-0.9435,-0.9216,0.0,0.0,0.0,0.0,0.0,0.0,0.0,0.0,0.0,-0.8104,-0.8365,-0.8506,-0.8673,-0.8704,-0.8843,-0.9017,-0.8862,-0.8973,-0.9331,-0.9229,-0.9466,-0.9833,-0.9655,-0.9417,-0.9195,-0.9009,-0.8755,-0.856,0.0,0.0,0.0,0.0,-0.7682,-0.7745,0.0,0.0,0.0,0.0,0.0,0.0,0.0,0.0,0.0,0.0,0.0,0.0,0.0,0.0,0.0,0.0,0.0,0.0,0.0,0.0,0.0,0.0,0.0,0.0,0.0,0.0,0.0,0.0,0.0,0.0,0.0,0.0,0.0,0.0,0.0,0.0,0.0,0.0,0.0,0.0,0.0,0.0,0.0,0.0,0.0,0.0,0.0,0.0,0.0,0.0,0.0,0.0,0.0,0.0,0.0,0.0,0.0,0.0,0.0,0.0,0.0,0.0,0.0,0.0,0.0,0.0,0.0,0.0,0.0,0.0,0.0,0.0,0.0,0.0,0.0,0.0,0.0,-1.0467,-1.0335,-1.0051,-1.007,-1.0074,0.0,0.0,0.0,0.0,0.0,0.0,-0.7949,-0.8313,-0.8489,-0.8533,-0.8819,-0.9,-0.9082,-0.9105,-0.9231,-0.9379,-0.9349,-0.9518,-0.9795,-0.9757,-0.9864,-1.0193,-1.0059,-1.0076,-1.0076,-0.9554,-0.9241,-0.9059,-0.8926,-0.8711,-0.8394,-0.8257,-0.8249,-0.8247,0.0,0.0,0.0,0.0,0.0,0.0,0.0,0.0,0.0,0.0,0.0,0.0,0.0,0.0,0.0,0.0,0.0,0.0,0.0,0.0,0.0,0.0,0.0,0.0,0.0,0.0,0.0,0.0,0.0,0.0,0.0,0.0,0.0,0.0,0.0,0.0,0.0,0.0,0.0,0.0,0.0,0.0,0.0,0.0,0.0,0.0,0.0,0.0,0.0,0.0,0.0,0.0,0.0,0.0,0.0,0.0,0.0,0.0,0.0,0.0,0.0,0.0,0.0,0.0,0.0,0.0,0.0,0.0,0.0,0.0,0.0,0.0,0.0,0.0,0.0,0.0,0.0,0.0,0.0,-0.9062,-0.9881,0.0,0.0,0.0,0.0,-0.9539,-0.8627,-0.8181,-0.8357,-0.8541,-0.88,-0.8982,-0.935,-0.9461,-0.9301,-0.9493,-0.9596,-0.9597,-0.9606,-0.9813,-1.0195,-1.0094,-1.0382,-1.0791,-1.0502,-1.0485,-1.076,-1.0272,-0.9991,-0.9824,-0.9815,-0.9705,-0.941,-0.9418,-0.9349,-0.9348,0.0,0.0,0.0,0.0,0.0,0.0,0.0,0.0,0.0,0.0,0.0,0.0,0.0,0.0,0.0,0.0,0.0,0.0,0.0,0.0,0.0,0.0,0.0,0.0,0.0,0.0,0.0,0.0,0.0,0.0,0.0,0.0,0.0,0.0,0.0,0.0,0.0,0.0,0.0,0.0,0.0,0.0,0.0,0.0,0.0,0.0,0.0,0.0,0.0,0.0,0.0,0.0,0.0,0.0,0.0,0.0,0.0,0.0,0.0,0.0,0.0,0.0,0.0,0.0,0.0,0.0,0.0,0.0,0.0,0.0,0.0,0.0,0.0,0.0,0.0,0.0,0.0,0.0,0.0,-1.0956,-1.033,0.0,0.0,-0.9925,-0.9382,-0.8856,-0.8604,-0.8479,-0.862,-0.9036,-0.9294,-0.9359,-0.9734,-0.9847,-0.9761,-0.9967,-1.0107,-1.0092,-1.0122,-1.0288,-1.0688,-1.0564,-1.077,-1.1094,-1.0974,-1.1002,-1.0993,-1.0919,-1.0554,-1.0211,-1.0211,-1.0211,-1.0114,-1.0114,-0.9858,-0.9535,0.0,0.0,0.0,0.0,0.0,0.0,0.0,0.0,0.0,0.0,0.0,0.0,0.0,0.0,0.0,0.0,0.0,0.0,0.0,0.0,0.0,0.0,0.0,0.0,0.0,0.0,0.0,0.0,0.0,0.0,0.0,0.0,0.0,0.0,0.0,0.0,0.0,0.0,0.0,0.0,0.0,0.0,-0.827,0.0,0.0,0.0,0.0,0.0,0.0,0.0,0.0,0.0,0.0,0.0,0.0,0.0,0.0,0.0,0.0,0.0,0.0,0.0,0.0,0.0,0.0,0.0,0.0,0.0,0.0,0.0,0.0,0.0,0.0,0.0,0.0,0.0,0.0,0.0,-0.9824,-1.1789,-1.1031,-1.0576,-1.1313,-1.0568,-0.9852,-0.9412,-0.894,-0.8772,-0.899,-0.9414,-0.9677,-0.9743,-0.9951,-1.0064,-1.0064,-1.0362,-1.0505,-1.049,-1.052,-1.0688,-1.1,-1.099,-1.1066,-1.1198,-1.1198,-1.1198,-1.1198,-1.1198,-1.1002,-1.0708,-1.0708,-1.0654,-1.06,-1.0636,-1.0349,-0.9995,0.0,0.0,0.0,0.0,0.0,0.0,0.0,0.0,0.0,0.0,0.0,0.0,0.0,0.0,0.0,0.0,0.0,0.0,0.0,0.0,0.0,0.0,0.0,0.0,0.0,0.0,0.0,0.0,0.0,0.0,0.0,0.0,0.0,0.0,0.0,0.0,0.0,0.0,0.0,0.0,0.0,0.0,-1.0053,0.0,0.0,0.0,0.0,0.0,0.0,0.0,0.0,0.0,0.0,0.0,0.0,0.0,0.0,0.0,0.0,0.0,0.0,0.0,0.0,0.0,0.0,0.0,0.0,0.0,0.0,0.0,0.0,0.0,0.0,0.0,0.0,0.0,-0.9216,-0.9606,-1.0209,-1.1213,-1.1865,-1.2648,-1.378,-1.2016,-1.0976,-1.139,-0.9734,-0.9062,-0.962,-0.9649,-0.9752,-1.0047,-1.0168,-1.0272,-1.0282,-1.048,-1.0688,-1.0896,-1.0905,-1.1009,-1.1198,-1.1198,-1.1198,-1.1198,-1.1198,-1.1198,-1.1198,-1.1198,-1.1198,-1.1198,-1.1198,-1.1123,-1.108,-1.0879,-1.0735,-1.0685,0.0,0.0,0.0,0.0,0.0,0.0,0.0,0.0,0.0,0.0,0.0,0.0,0.0,0.0,0.0,0.0,0.0,0.0,0.0,0.0,0.0,0.0,0.0,0.0,0.0,0.0,0.0,0.0,0.0,0.0,0.0,0.0,0.0,0.0,0.0,0.0,0.0,0.0,0.0,0.0,0.0,0.0,-1.1106,0.0,0.0,0.0,0.0,0.0,0.0,0.0,0.0,0.0,0.0,0.0,0.0,0.0,0.0,0.0,0.0,0.0,0.0,0.0,0.0,0.0,0.0,0.0,0.0,0.0,0.0,0.0,0.0,0.0,0.0,0.0,0.0,-0.8443,-0.9424,-0.8959,-0.9259,-1.0929,-1.0778,-1.0917,-1.1815,-1.155,-1.1419,-1.1581,-1.0814,-1.0419,-1.0627,-1.0123,-0.996,-1.0178,-1.0333,-1.0438,-1.049,-1.0894,-1.1038,-1.0896,-1.1047,-1.1142,-1.1198,-1.1198,-1.1198,-1.1198,-1.1198,-1.1198,-1.1198,-1.1198,-1.1198,-1.1198,-1.1198,-1.1236,-1.1175,-1.1119,-1.1033,-1.0923,0.0,0.0,0.0,0.0,0.0,0.0,0.0,0.0,0.0,0.0,0.0,0.0,0.0,0.0,0.0,0.0,0.0,0.0,0.0,0.0,0.0,0.0,0.0,0.0,0.0,0.0,0.0,0.0,0.0,0.0,0.0,0.0,0.0,0.0,0.0,0.0,0.0,0.0,0.0,0.0,0.0,0.0,-1.1881,-1.1824,-1.1543,-1.1166,-1.0616,-1.0562,-1.0754,-1.0519,0.0,0.0,0.0,0.0,0.0,0.0,0.0,0.0,0.0,0.0,0.0,0.0,0.0,0.0,0.0,0.0,0.0,0.0,0.0,0.0,0.0,0.0,0.0,0.0,-0.8555,-0.8301,-0.9122,-0.8793,-0.916,-1.1087,-1.0988,-1.1213,-1.2437,-1.2363,-1.2192,-1.183,-1.1303,-1.092,-1.0603,-1.0318,-1.0149,-1.0272,-1.0534,-1.0686,-1.0707,-1.102,-1.1125,-1.1019,-1.1142,-1.1198,-1.1198,-1.1198,-1.1198,0.0,-1.1198,-1.1198,-1.1198,-1.1198,-1.1246,0.0,0.0,0.0,0.0,0.0,-1.1438,-1.1355,0.0,0.0,0.0,0.0,0.0,0.0,0.0,0.0,0.0,0.0,0.0,0.0,0.0,0.0,0.0,0.0,0.0,0.0,0.0,0.0,0.0,0.0,0.0,0.0,0.0,0.0,0.0,0.0,0.0,0.0,0.0,0.0,0.0,0.0,0.0,0.0,0.0,0.0,0.0,0.0,0.0,0.0,-1.2622,-1.2622,-1.2596,-1.2591,-1.2124,-1.2011,-1.1955,-1.15,0.0,0.0,0.0,0.0,0.0,0.0,0.0,0.0,0.0,0.0,0.0,0.0,0.0,0.0,0.0,0.0,0.0,0.0,0.0,0.0,0.0,0.0,0.0,0.0,-0.8193,-0.807,-0.8685,-0.894,-0.9607,-1.1241,-1.1757,-1.2539,-1.4145,-1.3701,-1.3093,-1.2453,-1.1577,-1.0773,-1.0231,0.0,0.0,0.0,0.0,-1.0905,-1.0924,-1.1104,-1.1198,-1.1198,-1.1198,-1.1198,-1.1198,-1.1198,-1.1198,-1.1198,-1.1198,-1.1198,-1.1198,-1.1227,-1.1359,-1.1529,-1.134,-1.1378,-1.1576,-1.1784,-1.185,-1.1756,0.0,0.0,0.0,0.0,0.0,0.0,0.0,0.0,0.0,0.0,0.0,0.0,0.0,0.0,0.0,0.0,0.0,0.0,0.0,0.0,0.0,0.0,0.0,0.0,0.0,0.0,0.0,0.0,0.0,0.0,0.0,0.0,0.0,0.0,0.0,0.0,0.0,0.0,0.0,0.0,0.0,0.0,-1.3288,-1.3288,-1.3297,-1.3288,-1.3169,-1.3169,-1.3169,-1.305,-1.2865,-1.2506,-1.1737,0.0,0.0,0.0,0.0,0.0,0.0,0.0,0.0,0.0,0.0,0.0,0.0,0.0,0.0,0.0,0.0,0.0,0.0,0.0,0.0,-0.9281,-0.8682,-0.8421,-0.895,-0.9152,-0.9585,-1.0621,-1.1375,-1.2288,-1.3252,-1.3467,-1.3466,-1.3356,-1.2073,-1.1273,-1.1321,-1.0691,0.0,-1.0764,-1.0858,-1.0972,-1.1132,-1.1179,-1.1198,-1.1198,0.0,0.0,-1.1198,-1.1198,-1.1198,-1.1198,-1.1198,-1.1198,-1.1208,-1.1387,-1.1576,-1.1756,-1.1709,-1.1718,-1.1784,-1.2002,-1.2077,-1.2096,0.0,0.0,0.0,0.0,0.0,0.0,0.0,0.0,0.0,0.0,0.0,0.0,0.0,0.0,0.0,0.0,0.0,0.0,0.0,0.0,0.0,0.0,0.0,0.0,0.0,0.0,0.0,0.0,0.0,0.0,0.0,0.0,0.0,0.0,0.0,0.0,0.0,0.0,0.0,0.0,0.0,0.0,-1.3752,-1.3752,-1.383,-1.401,-1.383,-1.3752,-1.3692,-1.3571,-1.3391,-1.3152,-1.2777,-1.2514,-1.217,0.0,0.0,0.0,0.0,0.0,0.0,0.0,0.0,0.0,0.0,0.0,0.0,0.0,0.0,-1.0884,0.0,0.0,-1.0441,-0.9532,-0.9165,-0.9203,-0.9649,-0.9727,-0.9965,-1.0408,-1.137,-1.2383,-1.3532,-1.3748,-1.3728,-1.3366,-1.2647,-1.2136,-1.1844,-1.1517,-1.1414,-1.1637,-1.1566,-1.1482,-1.159,-1.1296,-1.1198,-1.1198,-1.1198,-1.1198,-1.1198,-1.1198,-1.1198,-1.1198,-1.1198,-1.1255,-1.1378,-1.1699,-1.1888,-1.1992,-1.2087,-1.2068,-1.2002,-1.2209,-1.2285,-1.2304,0.0,0.0,0.0,0.0,0.0,0.0,0.0,0.0,0.0,0.0,0.0,0.0,0.0,0.0,0.0,0.0,0.0,0.0,0.0,0.0,0.0,0.0,0.0,0.0,0.0,0.0,0.0,0.0,0.0,0.0,0.0,0.0,0.0,0.0,0.0,0.0,0.0,0.0,0.0,0.0,0.0,0.0,-1.395,-1.407,-1.4267,-1.4446,-1.4189,-1.4016,-1.3963,-1.3734,-1.364,-1.3588,-1.3614,-1.3571,-1.3459,-1.2856,-1.2714,0.0,0.0,0.0,0.0,0.0,0.0,0.0,0.0,0.0,-1.1891,-1.2148,-1.2025,-1.1737,-1.1262,-1.1444,-1.1265,-1.0068,-0.9896,-1.0028,-1.0396,-1.0427,-1.0564,-1.0888,-1.1601,-1.2613,-1.3717,-1.3854,-1.3728,-1.3161,-1.2969,-1.2664,-1.2194,-1.2285,-1.2414,-1.2457,-1.2266,-1.2078,-1.198,-1.159,-1.1296,-1.1198,-1.1198,-1.1198,-1.1198,-1.1198,-1.1217,-1.1255,-1.1302,-1.1435,-1.1661,-1.2002,-1.2162,-1.2219,-1.238,-1.2342,-1.2219,-1.238,-1.2436,-1.2436,0.0,0.0,0.0,0.0,0.0,0.0,0.0,0.0,0.0,0.0,0.0,0.0,0.0,0.0,0.0,0.0,0.0,0.0,0.0,0.0,0.0,0.0,0.0,0.0,0.0,0.0,0.0,0.0,0.0,0.0,0.0,0.0,0.0,0.0,0.0,0.0,0.0,0.0,0.0,0.0,0.0,0.0,-1.3631,-1.4207,-1.4446,-1.4506,-1.4446,-1.4209,-1.3953,-1.4259,-1.4132,-1.3896,-1.3963,-1.395,-1.3872,-1.3597,0.0,-1.3305,0.0,0.0,0.0,-1.1685,-1.189,-1.1997,0.0,0.0,-1.2497,-1.2516,-1.2775,-1.2826,-1.2486,-1.2096,-1.1752,-1.1496,-1.0964,-1.0653,-1.0771,-1.0847,-1.1321,-1.2322,-1.2528,-1.2699,-1.2869,-1.3089,-1.3148,-1.3097,-1.2518,-1.2286,-1.2339,-1.2371,-1.249,-1.2716,-1.2748,-1.2467,-1.198,-1.198,-1.1688,-1.1198,-1.1198,-1.1198,-1.1198,-1.1198,-1.1302,-1.1491,-1.1671,-1.1869,-1.2077,-1.2124,-1.2247,-1.2408,-1.2427,-1.2427,-1.2408,-1.2427,-1.2436,-1.2436,0.0,0.0,0.0,0.0,0.0,0.0,0.0,0.0,0.0,0.0,0.0,0.0,0.0,0.0,0.0,0.0,0.0,0.0,0.0,0.0,0.0,0.0,0.0,0.0,0.0,0.0,0.0,0.0,0.0,0.0,0.0,0.0,0.0,0.0,0.0,0.0,0.0,0.0,0.0,0.0,0.0,0.0,-1.3285,-1.3769,-1.407,-1.4207,-1.4446,-1.4231,0.0,0.0,-1.4231,-1.3992,-1.4454,-1.4345,-1.4033,-1.4427,-1.4022,0.0,-1.3416,0.0,0.0,0.0,-1.3161,-1.292,-1.2985,-1.323,-1.3394,-1.3181,-1.377,-1.4287,-1.3909,-1.4052,-1.3895,0.0,-1.2444,-1.1943,-1.1627,-1.1582,-1.1827,-1.2625,-1.2711,-1.2699,-1.2699,-1.2952,-1.3169,-1.3326,-1.3215,-1.3286,-1.3446,-1.3553,-1.3611,-1.3619,-1.334,-1.305,-1.2856,-1.2273,-1.1883,-1.1688,-1.1394,-1.1198,-1.1198,-1.1331,-1.1491,-1.1709,-1.1917,-1.2058,-1.2153,-1.2266,-1.2361,-1.2436,-1.2436,-1.2436,-1.2436,-1.2436,-1.2436,-1.2436,0.0,0.0,0.0,0.0,0.0,0.0,0.0,0.0,0.0,0.0,0.0,0.0,0.0,0.0,0.0,0.0,0.0,0.0,0.0,0.0,0.0,0.0,0.0,0.0,0.0,0.0,0.0,0.0,0.0,0.0,0.0,0.0,0.0,0.0,0.0,0.0,0.0,0.0,0.0,0.0,0.0,0.0,-1.3042,-1.339,-1.358,-1.3731,-1.3987,-1.391,0.0,0.0,-1.3729,-1.355,-1.42,-1.4019,-1.3766,-1.4542,-1.4268,-1.3897,-1.4461,0.0,0.0,-1.4603,-1.4298,-1.3887,-1.4179,-1.4251,-1.4316,-1.4042,-1.4792,-1.5445,-1.5402,-1.5447,0.0,-1.4365,-1.3535,-1.2869,-1.2357,-1.2272,-1.2357,-1.2613,-1.2771,-1.2819,-1.2819,-1.3073,-1.3338,-1.3604,-1.387,-1.4099,-1.4292,-1.4292,-1.4328,-1.4413,-1.3955,-1.3665,-1.3442,-1.2791,-1.2175,-1.1785,-1.155,-1.1382,-1.1293,-1.1567,-1.1765,-1.1917,-1.2134,-1.2219,-1.2238,-1.238,-1.2436,-1.2436,-1.2436,-1.2436,-1.2436,-1.2436,-1.2436,-1.2436,0.0,0.0,0.0,0.0,0.0,0.0,0.0,0.0,0.0,0.0,0.0,0.0,0.0,0.0,0.0,0.0,0.0,0.0,0.0,0.0,0.0,0.0,0.0,0.0,0.0,0.0,0.0,0.0,0.0,0.0,0.0,0.0,0.0,0.0,0.0,0.0,0.0,0.0,0.0,0.0,0.0,0.0,-1.3042,-1.339,-1.3288,-1.3055,-1.3055,0.0,0.0,0.0,-1.2464,-1.2413,-1.2549,-1.2727,0.0,-1.3518,-1.4092,0.0,0.0,0.0,-1.4674,-1.5184,-1.4964,-1.4689,-1.4689,-1.4999,-1.5257,-1.5257,-1.5549,-1.5977,-1.6747,-1.565,-1.487,-1.5509,-1.421,-1.3052,-1.3052,-1.2881,-1.2699,-1.2699,-1.2952,-1.3109,0.0,-1.335,-1.3616,-1.387,-1.4135,-1.4292,-1.4292,-1.4292,-1.4425,-1.469,-1.4437,-1.394,-1.3203,-1.3367,-1.2662,-1.1198,-1.1905,-1.2013,-1.152,-1.1935,-1.2124,-1.2143,-1.2342,-1.2427,-1.2427,-1.2436,-1.2436,-1.2436,-1.2436,-1.2436,-1.2436,-1.2436,-1.2436,-1.2436,0.0,0.0,0.0,0.0,0.0,0.0,0.0,0.0,0.0,0.0,0.0,0.0,0.0,0.0,0.0,0.0,0.0,0.0,0.0,0.0,0.0,0.0,0.0,0.0,0.0,0.0,0.0,0.0,0.0,0.0,0.0,0.0,0.0,0.0,0.0,0.0,0.0,0.0,0.0,0.0,0.0,0.0,-1.237,-1.3037,-1.2877,-1.2337,0.0,0.0,0.0,0.0,0.0,0.0,-1.2737,0.0,0.0,-1.3237,0.0,0.0,0.0,0.0,-1.5819,-1.6291,-1.6057,-1.5698,-1.5429,-1.568,-1.5896,-1.5626,-1.6722,-1.78,-1.8087,-1.7106,-1.6397,-1.69,-1.4975,-1.3287,-1.3087,-1.3052,-1.2942,-1.2964,-1.3061,0.0,0.0,0.0,0.0,-1.3894,-1.4147,-1.4292,-1.4292,-1.4473,-1.4618,-1.4714,-1.4799,-1.4672,-1.4465,-1.401,-1.3369,-1.2729,-1.2191,-1.1897,-1.1935,-1.2077,-1.2209,-1.2342,-1.2408,-1.2436,-1.2436,-1.2436,-1.2436,-1.2436,-1.2436,-1.2436,-1.2455,-1.2606,-1.2654,-1.2654,0.0,0.0,0.0,0.0,0.0,0.0,0.0,0.0,0.0,0.0,0.0,0.0,0.0,0.0,0.0,0.0,0.0,0.0,0.0,0.0,0.0,0.0,0.0,0.0,0.0,0.0,0.0,0.0,0.0,0.0,0.0,0.0,0.0,0.0,0.0,0.0,0.0,0.0,0.0,0.0,0.0,0.0,-1.2303,-1.2711,-1.2453,0.0,0.0,0.0,0.0,0.0,0.0,0.0,0.0,0.0,0.0,0.0,0.0,0.0,0.0,-1.6525,-1.6404,-1.6973,-1.6878,-1.6707,-1.6578,-1.6762,-1.689,-1.6615,-1.7825,-1.8962,-1.9127,-1.7995,-1.7286,-1.8081,-1.5791,-1.382,-1.3686,-1.3661,-1.3597,-1.3133,-1.329,0.0,0.0,0.0,0.0,-1.4051,-1.4208,-1.434,-1.4437,-1.4618,-1.4799,-1.4992,-1.5065,-1.5047,-1.4938,-1.4375,-1.3757,-1.3288,-1.2353,-1.2039,-1.2247,-1.2247,-1.2313,-1.2436,-1.2436,-1.2484,-1.2559,-1.2559,-1.2597,-1.2663,-1.2663,-1.2663,-1.2682,-1.2824,-1.2871,-1.2871,0.0,0.0,0.0,0.0,0.0,0.0,0.0,0.0,0.0,0.0,0.0,0.0,0.0,0.0,0.0,0.0,0.0,0.0,0.0,0.0,0.0,0.0,0.0,0.0,0.0,0.0,0.0,0.0,0.0,0.0,0.0,0.0,0.0,0.0,0.0,0.0,0.0,0.0,0.0,0.0,0.0,0.0,-1.2677,-1.2445,0.0,0.0,0.0,0.0,0.0,0.0,0.0,0.0,0.0,0.0,0.0,0.0,0.0,-1.4924,-1.6013,-1.6331,-1.6546,-1.7326,-1.7532,-1.766,-1.8045,-1.8119,-1.8137,-1.8155,-1.8779,-1.9476,0.0,0.0,-1.7423,-1.8877,-1.655,-1.454,-1.4654,-1.4666,-1.4378,0.0,0.0,0.0,0.0,0.0,0.0,-1.4292,0.0,-1.4425,-1.4702,-1.4727,-1.4968,-1.5487,-1.527,-1.495,-1.4664,-1.4333,-1.3702,-1.2856,-1.2356,-1.2257,-1.2436,-1.2436,-1.2446,-1.2455,-1.2455,-1.2578,-1.2786,-1.2786,-1.2899,-1.3069,-1.3069,-1.3069,-1.3069,-1.3079,-1.3088,-1.3088,0.0,0.0,0.0,0.0,0.0,0.0,0.0,0.0,0.0,0.0,0.0,0.0,0.0,0.0,0.0,0.0,0.0,0.0,0.0,0.0,0.0,0.0,0.0,0.0,0.0,0.0,0.0,0.0,0.0,0.0,0.0,0.0,0.0,0.0,0.0,0.0,0.0,0.0,0.0,0.0,0.0,0.0,-1.1905,0.0,0.0,0.0,0.0,0.0,0.0,0.0,0.0,0.0,0.0,0.0,-1.2885,0.0,0.0,-1.4944,-1.6333,-1.6713,-1.6937,-1.774,-1.7935,-1.7979,-1.8099,-1.8119,-1.821,-1.8504,-1.9201,-1.9989,0.0,0.0,0.0,-1.8319,-1.5705,0.0,-1.3774,-1.3997,0.0,0.0,0.0,-1.3978,-1.4183,-1.4256,0.0,0.0,-1.4292,-1.4425,-1.4702,-1.4908,-1.5161,-1.5487,-1.562,-1.5399,-1.4938,-1.4019,-1.3295,-1.2866,-1.25,-1.2389,-1.2436,-1.2436,-1.2531,-1.2682,-1.2682,-1.2795,-1.2994,-1.2994,-1.3022,-1.3069,-1.3069,-1.3069,-1.3088,-1.3249,-1.3306,-1.3325,0.0,0.0,0.0,0.0,0.0,0.0,0.0,0.0,0.0,0.0,0.0,0.0,0.0,0.0,0.0,0.0,0.0,0.0,0.0,0.0,0.0,0.0,0.0,0.0,0.0,0.0,0.0,0.0,0.0,0.0,0.0,0.0,0.0,0.0,0.0,0.0,0.0,0.0,0.0,0.0,0.0,0.0,0.0,0.0,0.0,0.0,0.0,0.0,0.0,0.0,0.0,-1.2043,-1.2552,-1.306,-1.3648,-1.4538,0.0,-1.5152,-1.628,-1.6566,-1.6813,-1.7432,-1.77,-1.7838,-1.8035,-1.816,-1.8415,-1.8629,-1.9182,0.0,0.0,0.0,0.0,0.0,0.0,0.0,-1.4197,-1.4509,-1.442,0.0,-1.4002,0.0,-1.428,-1.4292,-1.4352,0.0,-1.4485,-1.4606,-1.4871,-1.5137,-1.5403,-1.5656,-1.56,-1.5087,-1.4429,-1.3681,-1.3197,-1.2832,-1.2536,-1.2493,-1.2587,-1.2587,-1.2701,-1.2899,0.0,-1.3013,-1.3211,-1.3211,-1.3258,-1.3343,-1.3343,-1.3343,-1.3353,-1.3476,-1.3523,-1.3532,0.0,0.0,0.0,0.0,0.0,0.0,0.0,0.0,0.0,0.0,0.0,0.0,0.0,0.0,0.0,0.0,0.0,0.0,0.0,0.0,0.0,0.0,0.0,0.0,0.0,0.0,0.0,0.0,0.0,0.0,0.0,0.0,0.0,0.0,0.0,0.0,0.0,0.0,0.0,0.0,0.0,0.0,0.0,0.0,0.0,0.0,0.0,0.0,0.0,0.0,-1.2445,-1.2742,-1.3441,-1.4039,-1.476,-1.5427,-1.5443,-1.5396,-1.6031,-1.6234,-1.6398,-1.6743,-1.7029,-1.7316,-1.7688,-1.7958,-1.8161,-1.8363,0.0,0.0,-1.9694,0.0,-1.6776,-1.8225,0.0,-1.4709,-1.4971,-1.5196,-1.5035,-1.4039,-1.4159,-1.4292,-1.4292,-1.4328,-1.4461,-1.4702,-1.4676,-1.4819,-1.5047,-1.5275,-1.5515,-1.5672,-1.5064,-1.4429,-1.3639,-1.3367,-1.3157,-1.2767,-1.2597,-1.2606,-1.2767,-1.2795,-1.2918,-1.3107,0.0,0.0,-1.3429,-1.3429,-1.3532,-1.3693,-1.3693,-1.3693,-1.3693,-1.3693,-1.3693,-1.3693,0.0,0.0,0.0,0.0,0.0,0.0,0.0,0.0,0.0,0.0,0.0,0.0,0.0,0.0,0.0,0.0,0.0,0.0,0.0,0.0,0.0,0.0,0.0,0.0,0.0,0.0,0.0,0.0,0.0,0.0,0.0,0.0,0.0,0.0,0.0,0.0,0.0,0.0,0.0,0.0,0.0,0.0,0.0,0.0,0.0,0.0,0.0,0.0,0.0,0.0,-1.2598,-1.285,-1.352,-1.4159,-1.4728,-1.5141,-1.5427,-1.5682,-1.6095,-1.6237,-1.6285,-1.6458,-1.6397,-1.6254,-1.6343,-1.595,0.0,0.0,0.0,-1.7332,-1.8504,0.0,0.0,-1.6341,0.0,0.0,0.0,0.0,0.0,0.0,0.0,0.0,0.0,0.0,0.0,0.0,0.0,-1.4665,-1.47,-1.4746,-1.4673,-1.4482,-1.4025,-1.3709,-1.3639,-1.3341,-1.3012,-1.2767,-1.2899,-1.289,-1.2776,-1.2937,-1.3136,-1.3334,-1.3334,0.0,-1.3636,-1.3636,-1.3655,-1.3693,-1.3693,-1.3693,-1.3693,-1.3693,-1.3693,-1.3693,0.0,0.0,0.0,0.0,0.0,0.0,0.0,0.0,0.0,0.0,0.0,0.0,0.0,0.0,0.0,0.0,0.0,0.0,0.0,0.0,0.0,0.0,0.0,0.0,0.0,0.0,0.0,0.0,0.0,0.0,0.0,0.0,0.0,0.0,0.0,0.0,0.0,0.0,0.0,0.0,0.0,0.0,0.0,0.0,0.0,0.0,0.0,0.0,0.0,0.0,-1.2289,-1.2498,-1.3454,-1.4136,-1.4712,-1.5078,-1.5185,-1.5281,-1.562,-1.5529,-1.5405,-1.5309,-1.5175,-1.5087,-1.5153,0.0,0.0,0.0,0.0,0.0,-1.7369,0.0,0.0,0.0,0.0,0.0,0.0,0.0,0.0,0.0,0.0,0.0,0.0,0.0,0.0,0.0,0.0,0.0,-1.4664,-1.4473,-1.4158,-1.3738,-1.3627,-1.3416,-1.3204,-1.2974,-1.2918,-1.2918,-1.2918,-1.2975,-1.3098,-1.3192,-1.3343,-1.3542,-1.3542,0.0,-1.3693,-1.3693,-1.3693,-1.3693,-1.3693,-1.3693,-1.3693,-1.3693,-1.3759,-1.3854,0.0,0.0,0.0,0.0,0.0,0.0,0.0,0.0,0.0,0.0,0.0,0.0,0.0,0.0,0.0,0.0,0.0,0.0,0.0,0.0,0.0,0.0,0.0,0.0,0.0,0.0,0.0,0.0,0.0,0.0,0.0,0.0,0.0,0.0,0.0,0.0,0.0,0.0,0.0,0.0,0.0,0.0,0.0,0.0,0.0,0.0,0.0,0.0,0.0,0.0,-1.1744,-1.1915,-1.2924,-1.357,-1.4114,-1.4754,-1.4698,-1.4516,-1.5072,-1.4914,-1.4573,-1.4144,-1.3992,-1.3936,-1.3899,-1.4063,0.0,0.0,0.0,0.0,0.0,0.0,0.0,0.0,0.0,0.0,0.0,0.0,0.0,0.0,0.0,0.0,0.0,0.0,0.0,0.0,0.0,0.0,-1.4534,-1.4073,-1.365,-1.3168,-1.3327,-1.3223,-1.2833,-1.288,-1.2956,-1.3069,-1.2994,-1.3117,-1.3391,-1.3438,-1.3542,-1.3693,-1.3693,0.0,0.0,-1.3693,-1.3693,-1.3693,-1.3693,-1.3712,-1.3759,-1.3759,-1.3892,-1.4081,0.0,0.0,0.0,0.0,0.0,0.0,0.0,0.0,0.0,0.0,0.0,0.0,0.0,0.0,0.0,0.0,0.0,0.0,0.0,0.0,0.0,0.0,0.0,0.0,0.0,0.0,0.0,0.0,0.0,0.0,0.0,0.0,0.0,0.0,0.0,0.0,0.0,0.0,0.0,0.0,0.0,0.0,0.0,0.0,0.0,0.0,0.0,0.0,0.0,0.0,0.0,-1.1451,-1.155,-1.1774,-1.2182,-1.3571,0.0,0.0,-1.501,-1.49,-1.4211,-1.3532,-1.3055,-1.2648,-1.2531,0.0,0.0,0.0,0.0,0.0,0.0,0.0,0.0,0.0,0.0,0.0,0.0,0.0,0.0,0.0,0.0,0.0,0.0,0.0,0.0,0.0,0.0,0.0,-1.4245,-1.3186,-1.264,-1.2841,-1.2869,-1.2964,-1.3041,-1.323,-1.324,-1.3069,-1.3429,-1.3532,-1.3391,-1.358,-1.3674,-1.3693,-1.3693,0.0,0.0,-1.3693,-1.3693,-1.3693,-1.3693,-1.3807,-1.3986,-1.3986,-1.4109,-1.4279,0.0,0.0,0.0,0.0,0.0,0.0,0.0,0.0,0.0,0.0,0.0,0.0,0.0,0.0,0.0,0.0,0.0,0.0,0.0,0.0,0.0,0.0,0.0,0.0,0.0,0.0,0.0,0.0,0.0,0.0,0.0,0.0,0.0,0.0,0.0,0.0,0.0,0.0,0.0,0.0,0.0,0.0,0.0,0.0,0.0,0.0,0.0,0.0,0.0,0.0,0.0,0.0,-0.9777,-0.9563,0.0,0.0,-1.2363,-1.2343,-1.2622,-1.2481,-1.217,-1.1782,-1.1618,-1.1677,-1.2038,0.0,0.0,0.0,0.0,0.0,0.0,0.0,0.0,0.0,0.0,0.0,0.0,0.0,0.0,0.0,0.0,0.0,0.0,0.0,0.0,0.0,0.0,0.0,-1.3826,-1.3067,-1.2673,-1.2767,-1.3013,-1.3117,-1.3069,-1.3277,-1.3343,-1.3258,-1.3429,-1.3532,-1.357,-1.3655,-1.3693,-1.3693,-1.3693,0.0,0.0,-1.3693,-1.3769,-1.3882,-1.3882,-1.4005,-1.4194,-1.4194,-1.4326,-1.4506,0.0,0.0,0.0,0.0,0.0,0.0,0.0,0.0,0.0,0.0,0.0,0.0,0.0,0.0,0.0,0.0,0.0,0.0,0.0,0.0,0.0,0.0,0.0,0.0,0.0,0.0,0.0,0.0,0.0,0.0,0.0,0.0,0.0,0.0,0.0,0.0,0.0,0.0,0.0,0.0,0.0,0.0,0.0,0.0,0.0,0.0,0.0,0.0,0.0,0.0,0.0,0.0,0.0,0.0,0.0,0.0,-1.103,-1.0954,-1.1201,-1.1123,-1.0875,-1.0853,-1.0824,-1.1036,0.0,0.0,0.0,0.0,-1.3684,-1.3957,-1.4521,-1.4855,-1.508,0.0,0.0,0.0,0.0,0.0,0.0,0.0,0.0,0.0,0.0,0.0,0.0,0.0,0.0,0.0,0.0,-1.2411,-1.2343,-1.2862,-1.3145,-1.3221,-1.3069,-1.3277,-1.3391,-1.3391,-1.3447,-1.3551,-1.3693,-1.3693,-1.3693,-1.3693,0.0,0.0,0.0,-1.3759,-1.3873,-1.4014,-1.4081,-1.4222,-1.4402,-1.4402,-1.4544,-1.4723,0.0,0.0,0.0,0.0,0.0,0.0,0.0,0.0,0.0,0.0,0.0,0.0,0.0,0.0,0.0,0.0,0.0,0.0,0.0,0.0,0.0,0.0,0.0,0.0,0.0,0.0,0.0,0.0,0.0,0.0,0.0,0.0,0.0,0.0,0.0,0.0,0.0,0.0,0.0,0.0,0.0,0.0,0.0,0.0,0.0,0.0,0.0,0.0,0.0,0.0,0.0,0.0,0.0,0.0,0.0,0.0,-1.0115,-0.9865,-1.1757,-1.1494,-1.0674,-1.1145,-1.107,-1.0963,0.0,0.0,0.0,0.0,-1.3351,-1.363,-1.4208,-1.4131,-1.3847,-1.3602,0.0,0.0,0.0,0.0,0.0,0.0,0.0,0.0,0.0,0.0,0.0,0.0,0.0,0.0,0.0,-1.0817,-1.1278,-1.3069,-1.3069,-1.3069,-1.3069,-1.3277,-1.3391,-1.3391,-1.3589,-1.3684,-1.3693,-1.3693,-1.3693,0.0,0.0,0.0,0.0,-1.392,-1.4005,-1.4033,-1.4232,-1.444,-1.4629,-1.4629,-1.4761,-1.4931,0.0,0.0,0.0,0.0,0.0,0.0,0.0,0.0,0.0,0.0,0.0,0.0,0.0,0.0,0.0,0.0,0.0,0.0,0.0,0.0,0.0,0.0,0.0,0.0,0.0,0.0,0.0,0.0,0.0,0.0,0.0,0.0,0.0,0.0,0.0,0.0,0.0,0.0,0.0,0.0,0.0,0.0,0.0,0.0,0.0,0.0,0.0,0.0,0.0,0.0,0.0,0.0,0.0,0.0,0.0,0.0,0.0,0.0,-0.9806,-0.9975,-1.0031,-1.0317,-1.0553,-1.087,-1.1477,0.0,0.0,0.0,-1.2778,-1.2863,-1.321,-1.2942,-1.271,-1.2959,-1.2309,-1.2108,0.0,0.0,0.0,0.0,0.0,0.0,0.0,0.0,0.0,0.0,0.0,0.0,0.0,-1.0597,-1.1099,-1.2212,-1.246,-1.2776,-1.3495,-1.3561,-1.3599,-1.3599,-1.3655,-1.3693,-1.3693,-1.3693,0.0,0.0,0.0,0.0,0.0,-1.4185,-1.4307,-1.444,-1.4506,-1.4657,-1.4837,-1.4837,-1.4874,-1.4931,0.0,0.0,0.0,0.0,0.0,0.0,0.0,0.0,0.0,0.0,0.0,0.0,0.0,0.0,0.0,0.0,0.0,0.0,0.0,0.0,0.0,0.0,0.0,0.0,0.0,0.0,0.0,0.0,0.0,0.0,0.0,0.0,0.0,0.0,0.0,0.0,0.0,0.0,0.0,0.0,0.0,0.0,0.0,0.0,0.0,0.0,0.0,0.0,0.0,0.0,0.0,0.0,0.0,0.0,0.0,0.0,0.0,0.0,0.0,-0.9347,-0.9502,-0.9947,-1.0223,0.0,0.0,0.0,0.0,0.0,-1.2186,-1.2058,-1.248,-1.1744,-1.1196,-1.1428,-1.0855,-1.0699,0.0,0.0,0.0,0.0,0.0,0.0,0.0,0.0,0.0,0.0,0.0,0.0,0.0,-0.9557,-0.9856,-1.0867,-1.1455,-1.196,-1.249,-1.256,-1.2724,-1.3084,-1.3084,-1.3324,-1.3693,-1.3769,0.0,0.0,0.0,0.0,0.0,-1.4402,-1.4515,-1.4638,-1.4714,-1.4827,-1.4931,-1.4931,-1.48,-1.467,0.0,0.0,0.0,0.0,0.0,0.0,0.0,0.0,0.0,0.0,0.0,0.0,0.0,0.0,0.0,0.0,0.0,0.0,0.0,0.0,0.0,0.0,0.0,0.0,0.0,0.0,0.0,0.0,0.0,0.0,0.0,0.0,0.0,0.0,0.0,0.0,0.0,0.0,0.0,0.0,0.0,0.0,0.0,0.0,0.0,0.0,0.0,0.0,0.0,0.0,0.0,0.0,0.0,0.0,0.0,0.0,0.0,0.0,0.0,0.0,0.0,0.0,0.0,0.0,0.0,0.0,0.0,0.0,0.0,-1.1143,-1.184,-1.0689,-0.9576,-0.9266,-0.9354,-0.9208,0.0,0.0,0.0,0.0,0.0,0.0,0.0,0.0,0.0,0.0,0.0,0.0,0.0,-0.7999,-0.8125,-0.9207,-1.0058,-1.047,-1.0554,-1.0711,-1.1269,-1.2113,-1.2113,-1.2603,-1.3592,-1.3798,0.0,0.0,0.0,0.0,0.0,-1.4572,-1.4657,-1.4547,-1.4735,-1.48,-1.48,-1.48,-1.4539,-1.4268,0.0,0.0,0.0,0.0,0.0,0.0,0.0,0.0,0.0,0.0,0.0,0.0,0.0,0.0,0.0,0.0,0.0,0.0,0.0,0.0,0.0,0.0,0.0,0.0,0.0,0.0,0.0,0.0,0.0,0.0,0.0,0.0,0.0,0.0,0.0,0.0,0.0,0.0,0.0,0.0,0.0,0.0,0.0,0.0,0.0,0.0,0.0,0.0,0.0,0.0,0.0,0.0,0.0,0.0,0.0,0.0,0.0,0.0,0.0,0.0,0.0,0.0,0.0,0.0,0.0,0.0,0.0,0.0,0.0,0.0,-1.0645,-0.9391,-0.834,-0.8601,-0.8188,-0.81,0.0,0.0,0.0,0.0,0.0,0.0,0.0,0.0,0.0,0.0,0.0,0.0,0.0,-0.716,-0.7474,-0.8238,-0.7989,-0.8702,-1.0726,-1.077,-1.0906,-1.1148,-1.1148,-1.1704,-1.2812,-1.2856,0.0,0.0,0.0,0.0,-1.4401,-1.4447,-1.4465,-1.4474,-1.452,-1.4539,-1.4539,-1.4539,-1.3604,-1.2537,0.0,0.0,0.0,0.0,0.0,0.0,0.0,0.0,0.0,0.0,0.0,0.0,0.0,0.0,0.0,0.0,0.0,0.0,0.0,0.0,0.0,0.0,0.0,0.0,0.0,0.0,0.0,0.0,0.0,0.0,0.0,0.0,0.0,0.0,0.0,0.0,0.0,0.0,0.0,0.0,0.0,0.0,0.0,0.0,0.0,0.0,0.0,0.0,0.0,-0.5478,-0.543,-0.5184,0.0,0.0,0.0,0.0,0.0,0.0,0.0,0.0,0.0,0.0,0.0,0.0,0.0,0.0,0.0,0.0,0.0,0.0,0.0,0.0,0.0,0.0,-0.6684,0.0,0.0,0.0,0.0,0.0,0.0,0.0,0.0,0.0,0.0,0.0,0.0,0.0,0.0,-0.6306,-0.6598,-0.7011,-0.6644,-0.7373,-0.9451,-0.9207,-0.9201,-0.9694,-1.0005,-1.0443,-1.0893,-1.1682,-1.2496,0.0,0.0,0.0,-1.4137,-1.4137,-1.4137,-1.4137,-1.4137,-1.3735,-1.3202,-1.3202,-1.2142,-1.0683,0.0,0.0,0.0,0.0,0.0,0.0,0.0,0.0,0.0,0.0,0.0,0.0,0.0,0.0,0.0,0.0,0.0,0.0,0.0,0.0,0.0,0.0,0.0,0.0,0.0,0.0,0.0,0.0,0.0,0.0,0.0,0.0,0.0,0.0,0.0,0.0,0.0,0.0,0.0,0.0,0.0,0.0,0.0,0.0,0.0,0.0,0.0,0.0,0.0,-0.4614,-0.4752,-0.4668,-0.3964,0.0,0.0,0.0,0.0,0.0,0.0,0.0,0.0,0.0,0.0,0.0,0.0,0.0,0.0,0.0,0.0,0.0,0.0,0.0,0.0,0.0,0.0,0.0,0.0,0.0,0.0,0.0,0.0,0.0,0.0,0.0,0.0,0.0,0.0,0.0,0.0,-0.5553,-0.571,-0.5904,-0.5786,-0.6403,-0.7654,-0.7035,-0.7158,-0.8016,-0.8635,-0.8949,-0.8842,-1.0236,-1.1012,0.0,0.0,0.0,-1.321,-1.335,-1.3341,-1.321,-1.335,-1.2676,-1.1351,-1.1351,-1.0287,-0.8701,0.0,0.0,0.0,0.0,0.0,0.0,0.0,0.0,0.0,0.0,0.0,0.0,0.0,0.0,0.0,0.0,0.0,0.0,0.0,0.0,0.0,0.0,0.0,0.0,0.0,0.0,0.0,0.0,0.0,0.0,0.0,0.0,0.0,0.0,0.0,0.0,0.0,0.0,0.0,0.0,0.0,0.0,0.0,0.0,0.0,0.0,0.0,0.0,0.0,-0.3392,-0.3217,-0.2765,-0.3381,0.0,0.0,0.0,0.0,0.0,0.0,0.0,0.0,0.0,0.0,0.0,0.0,0.0,0.0,0.0,0.0,0.0,0.0,0.0,0.0,0.0,0.0,0.0,0.0,0.0,0.0,0.0,0.0,0.0,0.0,0.0,0.0,0.0,0.0,0.0,0.0,-0.4997,-0.528,-0.5908,-0.5295,-0.5451,-0.6273,-0.6148,-0.6273,-0.6398,-0.6493,-0.7093,-0.8081,-0.8378,-0.8967,0.0,0.0,-1.0022,-0.9896,-1.1094,-1.0962,-0.9896,-1.1094,-1.0697,-0.9498,-0.9498,-0.8302,-0.684,0.0,0.0,0.0,0.0,0.0,0.0,0.0,0.0,0.0,0.0,0.0,0.0,0.0,0.0,0.0,0.0,0.0,0.0,0.0,0.0,0.0,0.0,0.0,0.0,0.0,0.0,0.0,0.0,0.0,0.0,0.0,0.0,0.0,0.0,0.0,0.0,0.0,0.0,0.0,0.0,0.0,0.0,0.0,0.0,0.0,0.0,0.0,0.0,0.0,0.0,0.0,0.0,-0.2542,0.0,0.0,0.0,0.0,0.0,0.0,0.0,0.0,0.0,0.0,0.0,0.0,0.0,0.0,0.0,0.0,0.0,0.0,0.0,0.0,0.0,0.0,0.0,0.0,0.0,0.0,0.0,0.0,0.0,0.0,0.0,0.0,0.0,0.0,0.0,0.0,0.0,-0.4561,-0.4807,-0.4561,-0.4592,-0.4913,-0.4953,-0.51,-0.5481,-0.5953,-0.6141,-0.5919,-0.6758,-0.7332,-0.7897,0.0,-0.8568,-0.8839,-0.9504,-0.9371,-0.8839,-0.9504,-0.8972,-0.7507,-0.684,-0.6042,-0.5242,0.0,0.0,0.0,0.0,0.0,0.0,0.0,0.0,0.0,0.0,0.0,0.0,0.0,0.0,0.0,0.0,0.0,0.0,0.0,0.0,0.0,0.0,0.0,0.0,0.0,0.0,0.0,0.0,0.0,0.0,0.0,0.0,0.0,0.0,0.0,0.0,0.0,0.0,0.0,0.0,0.0,0.0,0.0,0.0,0.0,0.0,0.0,0.0,0.0,0.0,0.0,0.0,0.0,0.0,0.0,0.0,0.0,-0.1981,-0.1965,0.0,0.0,0.0,0.0,0.0,0.0,0.0,0.0,0.0,0.0,0.0,0.0,0.0,0.0,0.0,0.0,0.0,0.0,0.0,0.0,0.0,0.0,0.0,0.0,0.0,0.0,0.0,0.0,0.0,0.0,0.0,-0.3956,-0.397,-0.397,-0.4006,-0.4076,-0.4123,-0.4406,-0.4923,-0.5519,-0.5294,-0.424,-0.5355,-0.5915,-0.5908,-0.6447,-0.7111,-0.7641,-0.7907,-0.7907,-0.7641,-0.7907,-0.724,-0.5778,-0.4708,-0.4308,-0.4308,0.0,0.0,0.0,0.0,0.0,0.0,0.0,0.0,0.0,0.0,0.0,0.0,0.0,0.0,0.0,0.0,0.0,0.0,0.0,0.0,0.0,0.0,0.0,0.0,0.0,0.0,0.0,0.0,0.0,0.0,0.0,0.0,0.0,0.0,0.0,0.0,0.0,0.0,0.0,0.0,0.0,0.0,0.0,0.0,0.0,0.0,0.0,0.0,0.0,0.0,0.0,0.0,0.0,0.0,0.0,0.0,0.0,-0.1762,-0.1768,-0.1563,0.0,0.0,0.0,0.0,0.0,0.0,0.0,0.0,0.0,0.0,0.0,0.0,0.0,0.0,0.0,0.0,0.0,0.0,0.0,0.0,0.0,0.0,0.0,0.0,0.0,0.0,0.0,0.0,0.0,0.0,0.0,-0.4027,-0.4027,-0.4085,-0.4202,-0.4207,-0.421,-0.421,-0.4406,-0.4434,-0.43,-0.444,-0.4442,-0.4442,-0.444,-0.4577,-0.4708,-0.6042,-0.5778,-0.4708,-0.6042,-0.5644,-0.4442,-0.4308,-0.4308,-0.4308,0.0,0.0,0.0,0.0,0.0,0.0,0.0,0.0,0.0,0.0,0.0,0.0,0.0,0.0,0.0,0.0,0.0,0.0,0.0,0.0,0.0,0.0,0.0,0.0,0.0,0.0,0.0,0.0,0.0,0.0,0.0,0.0,0.0,0.0,0.0,0.0,0.0,0.0,0.0,0.0,0.0,0.0,0.0,0.0,0.0,0.0,0.0,0.0,0.0,0.0,0.0,0.0,0.0,0.0,0.0,0.0,0.0,-0.1455,-0.1478,-0.1461,0.0,0.0,0.0,0.0,0.0,0.0,0.0,0.0,0.0,0.0,0.0,0.0,0.0,0.0,0.0,0.0,0.0,0.0,0.0,0.0,0.0,0.0,0.0,0.0,0.0,0.0,0.0,0.0,0.0,0.0,0.0,-0.4033,-0.4036,-0.4093,-0.4215,-0.4215,-0.4234,-0.4273,-0.4297,-0.4308,-0.4308,-0.4308,-0.4308,-0.4308,-0.4308,-0.4308,-0.4308,-0.4842,-0.4842,-0.4308,-0.4842,-0.4708,-0.4308,-0.4308,-0.4308,-0.4308,0.0,0.0,0.0,0.0,0.0,0.0,0.0,0.0,0.0,0.0,0.0,0.0,0.0,0.0,0.0,0.0,0.0,0.0,0.0,0.0,0.0,0.0,0.0,0.0,0.0,0.0,0.0,0.0,0.0,0.0,0.0,0.0,0.0,0.0,0.0,0.0,0.0,0.0,0.0,0.0,0.0,0.0,0.0,0.0,0.0,0.0,0.0,0.0,0.0,0.0,0.0,0.0,0.0,0.0,0.0,0.0,0.0,-0.1291,-0.1311,-0.1374,0.0,0.0,0.0,0.0,0.0,0.0,0.0,0.0,0.0,0.0,0.0,0.0,0.0,0.0,0.0,0.0,0.0,0.0,0.0,0.0,0.0,0.0,0.0,0.0,0.0,0.0,0.0,0.0,0.0,0.0,0.0,0.0,-0.4082,-0.4142,-0.4245,-0.4245,-0.4267,-0.4308,-0.4308,-0.4308,-0.4308,-0.4308,-0.4308,-0.4308,-0.4308,-0.4308,-0.4308,-0.4308,-0.4308,-0.4308,-0.4308,-0.4308,-0.4308,-0.4308,-0.4308,-0.4308,0.0,0.0,0.0,0.0,0.0,0.0,0.0,0.0,0.0,0.0,0.0,0.0,0.0,0.0,0.0,0.0,0.0,0.0,0.0,0.0,0.0,0.0,0.0,0.0,0.0,0.0,0.0,0.0,0.0,0.0,0.0,0.0,0.0,0.0,0.0,0.0,0.0,0.0,0.0,0.0,0.0,0.0,0.0,0.0,0.0,0.0,0.0,0.0,0.0,0.0,0.0,0.0,0.0,0.0,0.0,0.0,0.0,-0.1264,-0.1263,-0.1391,0.0,0.0,0.0,0.0,0.0,0.0,0.0,0.0,0.0,0.0,0.0,0.0,0.0,0.0,0.0,0.0,0.0,0.0,0.0,0.0,0.0,0.0,0.0,0.0,0.0,0.0,0.0,0.0,0.0,0.0,0.0,0.0,-0.4185,-0.4245,-0.4308,-0.4308,-0.4308,-0.4308,-0.4308,-0.4308,-0.4308,-0.4308,-0.4308,-0.4308,-0.4308,-0.4308,-0.4308,-0.4308,-0.4308,-0.4308,-0.4308,-0.4308,-0.4308,-0.4308,-0.4308,-0.4308,0.0,0.0,0.0,0.0,0.0,0.0,0.0,0.0,0.0,0.0,0.0,0.0,0.0,0.0,0.0,0.0,0.0,0.0,0.0,0.0,0.0,0.0,0.0,0.0,0.0,0.0,0.0,0.0,0.0,0.0,0.0,0.0,0.0,0.0,0.0,0.0,0.0,0.0,0.0,0.0,0.0,0.0,0.0,0.0,0.0,0.0,0.0,0.0,0.0,0.0,0.0,0.0,0.0,0.0,0.0,0.0,-0.1317,-0.1259,-0.1322,0.0,0.0,0.0,0.0,0.0,0.0,0.0,0.0,0.0,0.0,0.0,0.0,0.0,0.0,0.0,0.0,0.0,0.0,0.0,0.0,0.0,0.0,0.0,0.0,0.0,0.0,0.0,0.0,0.0,0.0,0.0,0.0,0.0,-0.4207,-0.4245,-0.4308,-0.4308,-0.4308,-0.4308,-0.4308,-0.4308,-0.4308,-0.4308,-0.4308,-0.4308,-0.4308,-0.4308,-0.4308,-0.4308,-0.4308,-0.4308,-0.4308,-0.4308,-0.4308,-0.4308,-0.4308,-0.4313,0.0,0.0,0.0,0.0,0.0,0.0,0.0,0.0,0.0,0.0,0.0,0.0,0.0,0.0,0.0,0.0,0.0,0.0,0.0,0.0,0.0,0.0,0.0,0.0,0.0,0.0,0.0,0.0,0.0,0.0,0.0,0.0,0.0,0.0,0.0,0.0,0.0,0.0,0.0,0.0,0.0,0.0,0.0,0.0,0.0,0.0,0.0,0.0,0.0,0.0,0.0,0.0,0.0,0.0,0.0,0.0,-0.1359,-0.1399,0.0,0.0,0.0,0.0,0.0,0.0,0.0,0.0,0.0,0.0,0.0,0.0,0.0,0.0,0.0,0.0,0.0,0.0,0.0,0.0,0.0,0.0,0.0,0.0,0.0,0.0,0.0,0.0,0.0,0.0,0.0,0.0,0.0,0.0,-0.424,-0.427,-0.4308,-0.4308,-0.4308,-0.4308,-0.4308,-0.4308,-0.4308,-0.4308,-0.4308,-0.4308,-0.4308,-0.4308,-0.4308,-0.4308,-0.4308,-0.4308,-0.4308,-0.4308,-0.4308,-0.4308,-0.4322,-0.4349,0.0,0.0,0.0,0.0,0.0,0.0,0.0,0.0,0.0,0.0,0.0,0.0,0.0,0.0,0.0,0.0,0.0,0.0,0.0,0.0,0.0,0.0,0.0,0.0,0.0,0.0,0.0,0.0,0.0,0.0,0.0,0.0,0.0,0.0,0.0,0.0,0.0,0.0,0.0,0.0,0.0,0.0,0.0,0.0,0.0,0.0,0.0,0.0,0.0,0.0,0.0,0.0,0.0,0.0,0.0,0.0,0.0,0.0,0.0,0.0,0.0,0.0,0.0,0.0,0.0,0.0,0.0,0.0,0.0,0.0,0.0,0.0,0.0,0.0,0.0,0.0,0.0,0.0,0.0,0.0,0.0,0.0,0.0,0.0,0.0,0.0,0.0,0.0,0.0,0.0,0.0,-0.4226,-0.4278,-0.4308,-0.4308,-0.4308,-0.4308,0.0,-0.4308,-0.4308,-0.4308,-0.4308,-0.4308,-0.4308,-0.4308,-0.4308,-0.4308,-0.4308,-0.4308,-0.4308,-0.4308,-0.4308,-0.4308,-0.4313,-0.4352,-0.4401,0.0,0.0,0.0,0.0,0.0,0.0,0.0,0.0,0.0,0.0,0.0,0.0,0.0,0.0,0.0,0.0,0.0,0.0,0.0,0.0,0.0,0.0,0.0,0.0,0.0,0.0,0.0,0.0,0.0,0.0,0.0,0.0,0.0,0.0,0.0,0.0,0.0,0.0,0.0,0.0,0.0,0.0,0.0,0.0,0.0,0.0,0.0,0.0,0.0,0.0,0.0,0.0,0.0,-0.0156,-0.1303,-0.131,0.0,0.0,0.0,0.0,0.0,0.0,0.0,0.0,0.0,0.0,0.0,0.0,0.0,0.0,0.0,0.0,0.0,0.0,0.0,0.0,0.0,0.0,0.0,0.0,0.0,0.0,0.0,0.0,0.0,0.0,0.0,0.0,0.0,0.0,0.0,-0.4286,-0.43,-0.4308,-0.4308,-0.4308,-0.4308,0.0,-0.4308,-0.4308,-0.4308,-0.4308,-0.4308,-0.4308,-0.4308,-0.4308,-0.4308,-0.4308,-0.4308,-0.4308,-0.4308,-0.4308,-0.4313,-0.4362,-0.4387,-0.4412,0.0,0.0,0.0,0.0,0.0,0.0,0.0,0.0,0.0,0.0,0.0,0.0,0.0,0.0,0.0,0.0,0.0,0.0,0.0,0.0,0.0,0.0,0.0,0.0,0.0,0.0,0.0,0.0,0.0,0.0,0.0,0.0,0.0,0.0,0.0,0.0,0.0,0.0,0.0,0.0,0.0,0.0,0.0,0.0,0.0,0.0,0.0,0.0,0.0,0.0,0.0,0.0,0.0,0.0,-0.0652,-0.1155,0.0,0.0,0.0,0.0,0.0,0.0,0.0,0.0,0.0,0.0,0.0,0.0,0.0,0.0,0.0,0.0,0.0,0.0,0.0,0.0,0.0,0.0,0.0,0.0,0.0,0.0,0.0,0.0,0.0,0.0,0.0,0.0,0.0,-0.3567,-0.3873,-0.4037,-0.4037,-0.4174,-0.4308,-0.4308,-0.4308,-0.4308,-0.4308,-0.4308,-0.4308,-0.4308,-0.4308,-0.4308,-0.4308,-0.4308,-0.4308,-0.4308,-0.4308,-0.4308,-0.4308,-0.4324,-0.4354,-0.4387,-0.4433,-0.4491,0.0,0.0,0.0,0.0,0.0,0.0,0.0,0.0,0.0,0.0,0.0,0.0,0.0,0.0,0.0,0.0,0.0,0.0,0.0,0.0,0.0,0.0,0.0,0.0,0.0,0.0,0.0,0.0,0.0,0.0,0.0,0.0,0.0,0.0,0.0,0.0,0.0,0.0,0.0,0.0,0.0,0.0,0.0,0.0,0.0,0.0,0.0,0.0,0.0,0.0,0.0,0.0,0.0,0.0,0.0405,-0.0496,-0.1131,-0.1471,0.0,0.0,0.0,0.0,0.0,0.0,0.0,0.0,0.0,0.0,0.0,0.0,0.0,0.0,0.0,0.0,0.0,0.0,0.0,0.0,0.0,0.0,0.0,0.0,0.0,0.0,0.0,0.0,0.0,0.0,-0.3031,-0.3072,-0.3362,-0.3633,-0.3633,-0.3768,-0.4171,-0.4171,-0.4174,-0.4174,-0.4308,-0.4308,-0.4308,-0.4308,-0.4308,-0.4308,-0.4308,-0.4308,-0.4308,-0.4308,-0.4308,-0.4308,-0.4319,-0.4354,-0.4401,-0.442,-0.4496,-0.4591,0.0,0.0,0.0,0.0,0.0,0.0,0.0,0.0,0.0,0.0,0.0,0.0,0.0,0.0,0.0,0.0,0.0,0.0,0.0,0.0,0.0,0.0,0.0,0.0,0.0,0.0,0.0,0.0,0.0,0.0,0.0,0.0,0.0,0.0,0.0,0.0,0.0,0.0,0.0,0.0,0.0,0.0,0.0,0.0,0.0,0.0,0.0,0.0,0.0,0.0,0.0,0.0,0.0,0.0,0.0,0.0,0.0,0.0,0.0,0.0,0.0,0.0,0.0,0.0,0.0,0.0,0.0,0.0,0.0,0.0,0.0,0.0,0.0,0.0,0.0,0.0,0.0,0.0,0.0,0.0,0.0,0.0,0.0,0.0,0.0,0.0,0.0,0.0,-0.2636,-0.3072,-0.3228,-0.3228,-0.3228,-0.3362,-0.3362,-0.3362,-0.3499,-0.3902,-0.4174,-0.4308,-0.4308,-0.4308,-0.4308,-0.4308,-0.4308,-0.4308,-0.4308,-0.4308,-0.4308,-0.4313,-0.4365,-0.4392,-0.4412,-0.4512,-0.4594,-0.466,0.0,0.0,0.0,0.0,0.0,0.0,0.0,0.0,0.0,0.0,0.0,0.0,0.0,0.0,0.0,0.0,0.0,0.0,0.0,0.0,0.0,0.0,0.0,0.0,0.0,0.0,0.0,0.0,0.0,0.0,0.0,0.0,0.0,0.0,0.0,0.0,0.0,0.0,0.0,0.0,0.0,0.0,0.0,0.0,0.0,0.0,0.0,0.0,0.0,0.0,0.0,0.0,0.0,0.0,0.0,0.0,0.0,0.0,0.0,0.0,0.0,0.0,0.0,0.0,0.0,0.0,0.0,0.0,0.0,0.0,0.0,0.0,0.0,0.0,0.0,0.0,0.0,0.0,0.0,0.0,0.0,0.0,0.0,0.0,0.0,0.0,0.0,-0.2382,-0.24,-0.255,-0.2692,-0.2961,-0.2961,-0.2961,-0.3228,-0.3228,-0.3228,-0.3497,-0.3902,-0.4037,-0.4037,-0.4174,-0.4308,-0.4308,-0.4308,-0.4308,-0.4308,-0.4308,-0.4327,-0.4362,-0.4387,-0.4439,-0.4507,-0.4594,-0.4662,-0.4725,0.0,0.0,0.0,0.0,0.0,0.0,0.0,0.0,0.0,0.0,0.0,0.0,0.0,0.0,0.0,0.0,0.0,0.0,0.0,0.0,0.0,0.0,0.0,0.0,0.0,0.0,0.0,0.0,0.0,0.0,0.0,0.0,0.0,0.0,0.0,0.0,0.0,0.0,0.0,0.0,0.0,0.0,0.0,0.0,0.0,0.0,0.0,0.0,0.0,0.0,0.0,0.0,0.0,0.0,0.0,0.0,0.0,0.0,0.0,0.0,0.0,0.0,0.0,0.0,0.0,0.0,0.0,0.0,0.0,0.0,0.0,0.0,0.0,0.0,0.0,0.0,0.0,0.0,0.0,0.0,0.0,0.0,0.0,0.0,0.0,0.0,0.0,-0.2131,-0.2154,-0.2155,-0.229,-0.2559,-0.2559,-0.2694,-0.2961,-0.3096,-0.3096,-0.3096,-0.3499,-0.3768,-0.3768,-0.3902,-0.4037,-0.4174,-0.4308,-0.4308,-0.4174,-0.4324,-0.4357,-0.4401,-0.4431,-0.4504,-0.4605,-0.4665,-0.4736,-0.4807,0.0,0.0,0.0,0.0,0.0,0.0,0.0,0.0,0.0,0.0,0.0,0.0,0.0,0.0,0.0,0.0,0.0,0.0,0.0,0.0,0.0,0.0,0.0,0.0,0.0,0.0,0.0,0.0,0.0,0.0,0.0,0.0,0.0,0.0,0.0,-0.0,-0.0,0.0,0.0,0.0,0.0,0.0,0.0,0.0,0.0,0.0,0.0,0.0,0.0,0.0,0.0,0.0,0.0,0.0,0.0,0.0,0.0,0.0,0.0,0.0,0.0,0.0,0.0,0.0,0.0,0.0,0.0,0.0,0.0,0.0,0.0,0.0,0.0,0.0,0.0,0.0,0.0,0.0,0.0,0.0,0.0,0.0,0.0,0.0,0.0,0.0,0.0,-0.2153,-0.2155,-0.2155,-0.2155,-0.229,-0.229,-0.229,-0.2289,-0.2559,-0.2694,-0.2694,-0.3096,-0.3497,-0.3768,-0.3362,-0.3497,-0.3902,-0.4174,-0.4171,-0.3907,-0.4232,-0.4395,-0.4409,-0.4521,-0.4602,-0.4668,-0.4728,-0.4826,-0.4927,0.0,0.0,0.0,0.0,0.0,0.0,0.0,0.0,0.0,0.0,0.0,0.0,0.0,0.0,0.0,0.0,0.0,0.0,0.0,0.0,0.0,0.0,0.0,0.0,0.0,0.0,0.0,0.0,0.0,0.317,0.2254,0.0709,0.0,0.0,0.0,0.0,0.0,0.0,0.0,0.0,0.0,0.0,0.0,0.0,0.0,0.0,0.0,0.0,0.0,0.0,0.0,0.0,0.0,0.0,0.0,0.0,0.0,0.0,0.0,0.0,0.0,0.0,0.0,0.0,0.0,0.0,0.0,0.0,0.0,0.0,0.0,0.0,0.0,0.0,0.0,0.0,0.0,0.0,0.0,0.0,0.0,0.0,0.0,0.0,0.0,0.0,0.0,0.0,-0.2155,-0.2155,-0.2155,-0.2155,-0.2155,-0.2155,-0.2155,-0.229,-0.2425,-0.2425,-0.2694,-0.2961,-0.3096,-0.323,-0.3096,-0.3098,-0.3532,-0.3682,-0.382,-0.3976,-0.4303,-0.4518,-0.46,-0.467,-0.4736,-0.4834,-0.4899,-0.4943,0.0,0.0,0.0,0.0,0.0,0.0,0.0,0.0,0.0,0.0,0.0,0.0,0.0,0.0,0.0,0.0,0.0,0.0,0.0,0.0,0.0,0.0,0.0,0.0,0.0,0.0,0.0,0.0,0.0,0.0,0.0,0.0,0.101,0.0608,0.0192,0.0,0.0,0.0,0.0,0.2302,0.0,0.0,0.4925,0.0,0.0,0.0,0.0,0.0,0.0,0.0,0.0,0.0,0.0,0.0,0.0,0.0,0.0,0.0,0.0,0.0,0.0,0.0,0.0,0.0,0.0,0.0,0.0,0.0,0.0,0.0,0.0,0.0,0.0,0.0,0.0,0.0,0.0,0.0,0.0,0.0,0.0,0.0,0.0,0.0,0.0,0.0,0.0,0.0,-0.2155,-0.2155,-0.2155,-0.2155,-0.2155,-0.2155,-0.2155,-0.2155,-0.2155,-0.2155,-0.2425,-0.2559,-0.2694,-0.2827,-0.2827,-0.2696,-0.2868,-0.316,-0.3577,-0.3608,-0.3951,-0.4179,-0.4233,-0.43,-0.4371,-0.4446,-0.4485,-0.4505,0.0,0.0,0.0,0.0,0.0,0.0,0.0,0.0,0.0,0.0,0.0,0.0,0.0,0.0,0.0,0.0,0.0,0.0,0.0,0.0,0.0,0.0,0.0,0.0,0.0,0.0,0.0,0.0,0.0,0.0,0.0,0.0,0.2993,0.0,0.0607,0.0062,0.0062,0.0,0.0,0.2306,0.0,0.4893,0.0,0.0,0.0,0.0,0.5398,0.5393,0.0,0.0,0.0,0.0,0.0,0.0,0.0,0.0,0.0,0.0,0.0,0.0,0.0,0.0,0.0,0.0,0.0,0.0,0.0,0.0,0.0,0.0,0.0,0.0,0.0,0.0,0.0,0.0,0.0,0.0,0.0,0.0,0.0,0.0,0.0,0.0,0.0,0.0,0.0,-0.2155,-0.2155,-0.2155,-0.2155,-0.2155,-0.2155,-0.2155,-0.2155,-0.2155,-0.2155,-0.2155,-0.2155,-0.2425,-0.2694,-0.229,-0.2425,-0.2696,-0.2325,-0.2339,-0.2759,-0.3256,-0.3461,-0.3508,-0.3555,-0.3625,-0.37,-0.3702,-0.3729,-0.3768,0.0,0.0,0.0,0.0,0.0,0.0,0.0,0.0,0.0,0.0,0.0,0.0,0.0,0.0,0.0,0.0,0.0,0.0,0.0,0.0,0.0,0.0,0.0,0.0,0.0,0.0,0.0,0.0,0.0,0.0,0.0,0.0,0.0,0.0,0.2771,0.2107,0.139,0.2609,0.0,0.0,0.0,0.5101,0.0,0.0,0.0,0.0,0.0,0.5904,0.0,0.0,0.5719,0.523,0.0,0.0,0.0,0.0,0.0,0.0,0.5416,0.0,0.0,0.0,0.0,0.0,0.0,0.0,0.0,0.0,0.0,0.0,0.0,0.0,0.0,0.0,0.0,0.0,0.0,0.0,0.0,0.0,0.0,0.0,0.0,0.0,0.0,0.0,-0.2155,-0.2155,-0.2155,-0.2155,-0.2155,-0.2155,-0.2155,-0.2155,-0.2155,-0.2155,-0.2155,-0.2155,-0.2155,-0.229,-0.229,-0.229,-0.229,-0.2293,-0.221,-0.2245,-0.241,-0.2881,-0.3216,-0.3557,-0.3635,-0.3678,-0.3704,-0.3737,-0.3758,-0.3768,0.0,0.0,0.0,0.0,0.0,0.0,0.0,0.0,0.0,0.0,0.0,0.0,0.0,0.0,0.0,0.0,0.0,0.0,0.0,0.0,0.0,0.0,0.0,0.0,0.0,0.0,0.0,0.0,0.0,0.0,0.0,0.0,0.0,0.0,0.0,0.0,0.0,0.0,0.0,0.0,0.4768,0.0,0.0,0.5605,0.586,0.0,0.0,0.0,0.5969,0.6415,0.6154,0.0,0.0,0.0,0.0,0.0,0.0,0.0,0.0,0.0,0.0,0.0,0.0,0.0,0.0,0.4442,0.0,0.0,0.0,0.0,0.0,0.0,0.0,0.0,0.0,0.0,0.0,0.0,0.0,0.0,0.0,0.0,0.0,0.0,0.0,-0.2153,-0.2155,-0.2155,-0.2155,-0.2155,-0.2155,-0.2155,-0.2155,-0.2155,-0.2155,-0.2155,-0.2155,-0.2155,-0.2155,-0.2155,-0.2155,-0.2155,-0.2162,-0.2177,-0.2238,-0.2281,-0.2312,-0.2662,-0.2851,-0.3024,-0.322,-0.3249,-0.3267,-0.329,-0.3299,-0.3299,0.0,0.0,0.0,0.0,0.0,0.0,0.0,0.0,0.0,0.0,0.0,0.0,0.0,0.0,0.0,0.0,0.0,0.0,0.0,0.0,0.0,0.0,0.0,0.0,0.0,0.0,0.0,0.0,0.0,0.0,0.0,0.0,0.0,0.0,0.0,0.0,0.0,0.0,0.0,0.4347,0.4769,0.4977,0.0,0.0,0.5779,0.0,0.6051,0.6062,0.6078,0.6709,0.666,0.0,0.0,0.0,0.0,0.0,0.4882,0.0,0.0,0.0,0.0,0.0,0.0,0.0,0.6178,0.6256,0.6022,0.0,0.0,0.0,0.0,0.0,0.0,0.0,0.0,0.0,0.0,0.0,0.0,0.0,0.0,0.0,0.0,-0.2133,-0.2129,-0.2153,-0.2155,-0.2155,-0.2155,-0.2155,-0.2155,-0.2155,-0.2155,-0.2155,-0.2155,-0.2155,-0.2155,-0.2155,-0.2155,-0.2155,-0.2155,-0.2155,-0.2172,-0.2203,-0.2264,-0.2308,-0.2345,-0.2432,-0.2469,-0.2469,-0.2473,-0.2491,-0.2514,-0.2514,-0.2514,-0.2514,0.0,0.0,0.0,0.0,0.0,0.0,0.0,0.0,0.0,0.0,0.0,0.0,0.0,0.0,0.0,0.0,0.0,0.0,0.0,0.0,0.0,0.0,0.0,0.0,0.0,0.0,0.0,0.0,0.0,0.0,0.0,0.0,0.0,0.0,0.0,0.0,0.0,0.0,0.0,0.4461,0.4686,0.0,0.5344,0.5725,0.6051,0.6306,0.635,0.6415,0.6486,0.0,0.6611,0.6562,0.0,0.0,0.0,0.0,0.0,0.0,0.0,0.0,0.0,0.0,0.0,0.0,0.6176,0.6158,0.5997,0.0,0.0,0.0,0.0,0.0,0.0,0.0,0.0,0.0,0.0,0.0,0.0,0.0,0.0,0.0,0.0,-0.2172,-0.2174,-0.2157,-0.2155,-0.2155,-0.2155,-0.2155,-0.2155,-0.2155,-0.2155,-0.2155,-0.2155,-0.2155,-0.2155,-0.2155,-0.2155,-0.2155,-0.2155,-0.2155,-0.2172,-0.2203,-0.2264,-0.232,-0.2375,-0.2442,-0.2469,-0.2472,-0.2496,-0.2508,-0.2514,-0.2514,-0.2514,-0.2514,0.0,0.0,0.0,0.0,0.0,0.0,0.0,0.0,0.0,0.0,0.0,0.0,0.0,0.0,0.0,0.0,0.0,0.0,0.0,0.0,0.0,0.0,0.0,0.0,0.0,0.0,0.0,0.0,0.0,0.0,0.0,0.0,0.0,0.0,0.0,0.0,0.0,0.0,0.3903,0.4223,0.4791,0.0,0.5589,0.5947,0.6268,0.6529,0.6529,0.6681,0.6866,0.6752,0.6709,0.0,0.0,0.6094,0.5904,0.0,0.5453,0.5605,0.0,0.0,0.0,0.5757,0.0,0.0,0.0,0.6257,0.6274,0.6679,0.0,0.0,0.0,0.0,0.0,0.0,0.0,0.0,0.0,0.0,0.0,0.0,0.0,0.0,0.0,-0.2204,-0.221,-0.218,-0.2163,-0.2155,-0.2155,-0.2155,-0.2155,-0.2155,-0.2155,-0.2155,-0.2155,-0.2155,-0.2155,-0.2155,-0.2155,-0.2155,-0.2155,-0.217,-0.2193,-0.2226,-0.2303,-0.236,-0.2405,-0.2466,-0.2492,-0.2493,-0.2508,-0.2514,-0.2514,-0.2514,-0.2514,-0.2514,0.0,0.0,0.0,0.0,0.0,0.0,0.0,0.0,0.0,0.0,0.0,0.0,0.0,0.0,0.0,0.0,0.0,0.0,0.0,0.0,0.0,0.0,0.0,0.447,0.0,0.0,0.0,0.0,0.0,0.0,0.0,0.0,0.0,0.0,0.0,0.0,0.0,0.0,0.0,0.4186,0.0,0.5428,0.5643,0.6072,0.6366,0.6562,0.6654,0.6888,0.7133,0.6997,0.0,0.6747,0.6681,0.6426,0.0,0.0,0.0,0.0,0.0,0.0,0.0,0.0,0.0,0.6134,0.0,0.0,0.0,0.6817,0.0,0.0,0.0,0.0,0.0,0.0,0.0,0.0,0.0,0.0,0.0,0.0,0.0,0.0,0.0,-0.2079,-0.2229,-0.221,-0.2176,-0.2157,-0.2163,-0.2158,-0.2155,-0.2155,-0.2155,-0.2155,-0.2155,-0.2155,-0.2155,-0.2155,-0.2155,-0.2155,-0.2155,-0.2187,-0.2219,-0.2259,-0.2342,-0.2399,-0.2436,-0.2492,-0.2514,-0.2514,-0.2514,-0.2514,-0.2514,-0.2514,-0.2514,-0.2514,0.0,0.0,0.0,0.0,0.0,0.0,0.0,0.0,0.0,0.0,0.0,0.0,0.0,0.0,0.0,0.0,0.0,0.0,0.4484,0.0,0.0,0.0,0.0,0.0,0.4653,0.0,0.0,0.0,0.0,0.0,0.0,0.0,0.0,0.0,0.4479,0.0,0.0,0.0,0.47,0.0,0.5156,0.5127,0.0,0.585,0.6192,0.6366,0.679,0.7035,0.7122,0.0,0.7013,0.7127,0.0,0.6556,0.0,0.0,0.0,0.0,0.0,0.0,0.0,0.0,0.6626,0.0,0.0,0.0,0.6448,0.6491,0.0,0.0,0.0,0.0,0.0,0.0,0.0,0.0,0.0,0.0,0.0,0.0,0.0,0.0,0.0,0.0,-0.2215,-0.2238,-0.2187,-0.2166,-0.2193,-0.2169,-0.2155,-0.2155,-0.2155,-0.2155,-0.2155,-0.2155,-0.2155,-0.2155,-0.2155,-0.2155,-0.2155,-0.2187,-0.2232,-0.2289,-0.2352,-0.241,-0.2466,-0.25,-0.2514,-0.2514,-0.2514,-0.2514,-0.2514,-0.2514,-0.2514,-0.2514,0.0,0.0,0.0,0.0,0.0,0.0,0.0,0.0,0.0,0.0,0.0,0.0,0.0,0.0,0.0,0.0,0.0,0.4769,0.0,0.0,0.0,0.0,0.0,0.0,0.0,0.0,0.0,0.0,0.4519,0.0,0.0,0.0,0.0,0.0,0.4971,0.0,0.5193,0.0,0.0,0.0,0.0,0.0,0.0,0.6045,0.6518,0.6719,0.6986,0.7111,0.7149,0.0,0.7024,0.0,0.0,0.0,0.0,0.0,0.0,0.0,0.0,0.0,0.0,0.0,0.0,0.0,0.0,0.0,0.6454,0.0,0.0,0.0,0.0,0.0,0.0,0.0,0.0,0.0,0.0,0.0,0.0,0.0,0.0,0.0,0.0,0.0,0.0,0.0,0.0,-0.2161,-0.2173,-0.2178,-0.2173,-0.2155,-0.2155,-0.2155,-0.2155,-0.2155,-0.2155,-0.2155,-0.2155,-0.2163,-0.2183,-0.223,-0.2275,-0.2319,-0.2397,-0.2446,-0.2472,-0.2502,-0.2514,-0.2514,-0.2514,-0.2514,-0.2514,-0.2514,-0.2514,-0.2514,0.0,0.0,0.0,0.0,0.0,0.0,0.0,0.0,0.0,0.0,0.0,0.0,0.4809,0.4791,0.0,0.0,0.0,0.5351,0.0,0.0,0.5033,0.0,0.0,0.0,0.0,0.0,0.0,0.0,0.0,0.0,0.0,0.0,0.0,0.0,0.0,0.563,0.5963,0.0,0.0,0.5454,0.5576,0.5565,0.5632,0.635,0.679,0.7046,0.7127,0.7154,0.7165,0.722,0.7008,0.0,0.7301,0.0,0.0,0.0,0.0,0.0,0.675,0.0,0.0,0.0,0.0,0.0,0.0,0.0,0.0,0.0,0.0,0.0,0.0,0.0,0.0,0.0,0.0,0.0,0.0,0.0,0.0,0.0,0.0,0.0,0.0,0.0,0.0,-0.2183,-0.2151,-0.2144,-0.2177,-0.2192,-0.2193,-0.218,-0.2172,-0.2168,-0.2168,-0.2159,-0.2155,-0.2155,-0.2163,-0.2183,-0.2214,-0.2275,-0.2323,-0.2361,-0.2436,-0.2474,-0.2484,-0.2506,-0.2514,-0.2514,-0.2514,-0.2514,-0.2514,-0.2514,-0.2514,-0.2514,0.0,0.8593,0.0,0.0,0.0,0.0,0.0,0.0,0.0,0.0,0.0,0.0,0.0,0.0,0.0,0.0,0.0,0.6903,0.7116,0.0,0.5318,0.0,0.0,0.466,0.0,0.0,0.0,0.0,0.0,0.0,0.0,0.0,0.0,0.0,0.0,0.5547,0.5826,0.6113,0.6288,0.6409,0.642,0.6697,0.6899,0.0,0.6839,0.7149,0.7154,0.0,0.0,0.7029,0.6986,0.0,0.0,0.0,0.0,0.0,0.0,0.0,0.0,0.0,0.0,0.7965,0.0,0.0,0.0,0.0,0.6431,0.0,0.0,0.0,0.0,0.0,0.0,0.0,0.0,0.0,0.0,0.0,0.0,0.0,0.0,0.0,0.0,0.0,0.0,-0.215,-0.2101,-0.2119,-0.2236,-0.2215,-0.2213,-0.2241,-0.2214,-0.2199,-0.2199,-0.2169,-0.2155,-0.2155,-0.2185,-0.2214,-0.2247,-0.2305,-0.2364,-0.2423,-0.2455,-0.2485,-0.2512,-0.2514,-0.2514,-0.2514,-0.2514,-0.2514,-0.2514,-0.2514,-0.2514,-0.2514,0.0,0.0,0.0,0.0,0.0,0.0,0.0,0.7622,0.0,0.0,0.0,0.0,0.0,0.0,0.8033,0.0,0.0,0.7417,0.7617,0.6323,0.0,0.0,0.0,0.4823,0.0,0.0,0.0,0.0,0.0,0.0,0.0,0.0,0.0,0.0,0.0,0.6051,0.0,0.0,0.0,0.0,0.0,0.7065,0.7085,0.0,0.0,0.7154,0.7154,0.7154,0.0,0.7111,0.7095,0.7116,0.7236,0.722,0.7171,0.7252,0.7499,0.0,0.0,0.0,0.8682,0.8335,0.0,0.0,0.0,0.0,0.0,0.0,0.0,0.0,0.0,0.0,0.0,0.0,0.0,0.0,0.0,0.0,0.0,0.0,0.0,0.0,0.0,0.0,0.0,-0.209,-0.2113,-0.2151,0.0,-0.2225,-0.2234,-0.2245,-0.2215,-0.22,-0.22,-0.217,-0.2155,-0.2155,-0.2206,-0.2247,-0.2278,-0.2357,-0.2416,-0.2455,-0.2485,-0.2504,-0.2514,-0.2514,-0.2514,-0.2514,-0.2514,-0.2514,-0.2514,-0.2514,-0.2514,-0.2517,0.8831,0.0,0.0,0.0,0.0,0.0,0.0,0.0,0.0,0.0,0.8011,0.0,0.8544,0.0,0.9228,0.0,0.8672,0.8102,0.799,0.6765,0.0,0.641,0.5616,0.0,0.0,0.0,0.0,0.0,0.0,0.4897,0.0,0.0,0.0,0.0,0.0,0.0,0.0,0.0,0.706,0.0,0.0,0.7292,0.0,0.0,0.7177,0.704,0.0,0.7154,0.716,0.7203,0.7192,0.7203,0.7491,0.7475,0.7394,0.7638,0.8008,0.8304,0.8433,0.8743,0.0,0.8712,0.8432,0.0,0.7814,0.0,0.0,0.0,0.0,0.0,0.0,0.0,0.0,0.0,0.0,0.0,0.0,0.0,0.0,0.0,0.0,0.0,0.0,0.0,-0.1939,-0.2039,-0.2075,-0.2128,0.0,0.0,-0.2255,-0.2275,-0.2248,-0.2228,-0.2217,-0.2187,-0.217,-0.2172,-0.2233,-0.2282,-0.2324,-0.2403,-0.2457,-0.2487,-0.2506,-0.2514,-0.2514,-0.2514,-0.2514,-0.2514,-0.2514,-0.2514,-0.2514,-0.2514,-0.2521,-0.2536,0.0,0.0,0.0,0.0,0.8921,0.0,0.0,0.0,0.8788,0.0,0.8717,0.9197,0.9009,0.9774,1.0207,0.9938,0.95,0.0,0.8205,0.7215,0.0,0.0,0.6281,0.6118,0.6281,0.0,0.0,0.0,0.0,0.0,0.0,0.0,0.0,0.0,0.0,0.0,0.6709,0.6865,0.7184,0.7679,0.7521,0.7614,0.7834,0.7522,0.7231,0.6834,0.7067,0.716,0.7182,0.7296,0.7269,0.7241,0.7595,0.7709,0.7763,0.7986,0.8557,0.9032,0.8775,0.891,0.8904,0.9097,0.0,0.0,0.0,0.0,0.7683,0.0,0.0,0.0,0.0,0.0,0.0,0.0,0.0,0.0,0.0,0.0,0.0,0.0,0.0,0.0,0.0,-0.0221,-0.1716,-0.1878,-0.1994,0.0,0.0,0.0,-0.2268,-0.2328,-0.2304,-0.2274,-0.2244,-0.2213,-0.2199,-0.22,-0.2263,-0.2323,-0.2383,-0.2443,-0.2487,-0.2514,-0.2514,-0.2514,-0.2514,-0.2514,-0.2514,-0.2514,-0.2514,-0.2515,-0.2517,-0.2517,-0.2537,-0.2572,0.8871,0.8978,0.9272,0.0,0.9429,0.9171,0.0,0.0,0.0,0.0,1.0548,1.1216,1.1313,1.1926,1.2276,1.1966,1.1229,0.0,0.0,0.0,0.0,0.7014,0.6498,0.6322,0.658,0.6261,0.0,0.58,0.0,0.0,0.6194,0.0,0.0,0.0,0.0,0.0,0.6709,0.6865,0.7396,0.8287,0.8441,0.8353,0.0,0.0,0.7738,0.7146,0.7177,0.7214,0.7296,0.7323,0.7437,0.7578,0.7671,0.7823,0.7975,0.8035,0.8557,0.8925,0.8635,0.8873,0.9194,0.8934,0.8561,0.8341,0.0,0.0,0.0,0.0,0.0,0.0,0.0,0.0,0.0,0.0,0.0,0.0,0.0,0.0,0.0,0.0,0.0,0.0,0.3874,0.1377,-0.0241,-0.0247,-0.1387,0.0,0.0,0.0,0.0,-0.2298,-0.2273,-0.2243,-0.2211,-0.2181,-0.2177,-0.2202,-0.2282,-0.2353,-0.2414,-0.2474,-0.2507,-0.2514,-0.2514,-0.2514,-0.2514,-0.2514,-0.2514,-0.2514,-0.2514,-0.2529,-0.2548,-0.2548,-0.2581,-0.2627,0.9031,0.0,0.0,0.9886,0.0,0.0,1.0296,0.0,0.0,1.0908,1.1633,0.0,1.2126,1.2737,1.2881,1.2272,1.1671,0.0,0.0,0.0,0.0,0.7642,0.7105,0.7105,0.7781,0.7461,0.0,0.7561,0.0,0.0,0.7146,0.0,0.0,0.0,0.0,0.6535,0.0,0.6993,0.7638,0.8316,0.8615,0.0,0.0,0.8221,0.7932,0.7598,0.7299,0.7279,0.7345,0.7399,0.7508,0.7633,0.7687,0.7828,0.7986,0.804,0.8426,0.8676,0.8551,0.8705,0.8836,0.8757,0.8726,0.8821,0.8997,0.8972,0.8997,0.0,0.0,0.0,0.0,0.0,0.0,0.0,0.0,0.0,0.0,0.0,0.0,0.0,0.0,0.0,0.5523,0.2528,0.0605,0.0366,0.0,0.0,0.0,0.0,0.0,-0.2288,-0.2274,-0.2244,-0.22,-0.2196,-0.221,-0.2241,-0.2303,-0.2372,-0.2444,-0.2492,-0.2514,-0.2514,-0.2514,-0.2514,-0.2514,-0.2514,-0.2514,-0.2515,-0.2529,-0.2552,-0.2579,-0.2593,-0.2619,-0.2649,0.0,0.0,0.0,0.0,0.0,0.0,0.0,1.1457,0.0,1.1795,0.0,1.2527,1.2285,1.277,1.2796,1.1929,0.0,1.0974,0.9833,0.9222,0.8731,0.8479,0.8012,0.8261,0.9351,0.9123,0.0,0.0,0.0,0.0,0.0,0.0,0.0,0.0,0.0,0.0,0.0,0.7424,0.7938,0.0,0.8431,0.8635,0.8655,0.8112,0.8054,0.8166,0.7606,0.7383,0.7399,0.7508,0.7551,0.7584,0.7693,0.779,0.7894,0.7997,0.8279,0.8522,0.8398,0.8459,0.8512,0.8757,0.8871,0.9081,0.9328,0.9535,0.9803,1.031,0.9653,0.9167,0.0,0.0,0.0,0.0,0.0,0.0,0.0,0.0,0.0,0.0,0.0,0.0,0.0,0.3508,0.0,0.0,0.0,0.0,0.0,0.0,0.0,-0.2275,-0.2282,0.0,-0.22,0.0,-0.2263,-0.2297,-0.2324,-0.2387,-0.2476,-0.2502,-0.2514,-0.2514,-0.2514,-0.2514,-0.2514,-0.2514,-0.2514,-0.2518,-0.2552,-0.2579,-0.2605,-0.2641,-0.2653,-0.2657,0.0,0.0,0.0,0.0,0.0,1.1957,1.2513,1.2518,1.2625,1.2855,1.316,1.3303,1.2845,1.3175,1.3137,1.2528,1.2443,0.0,0.0,0.0,0.0,0.9693,0.9757,0.9985,1.0362,1.0388,1.0154,0.0,0.0,0.0,0.0,0.0,0.0,0.0,0.0,0.0,0.8224,0.8767,0.0,0.8608,0.8784,0.8947,0.9076,0.8739,0.8502,0.8305,0.8066,0.787,0.7644,0.766,0.7731,0.7812,0.7834,0.7856,0.7877,0.7894,0.815,0.8401,0.8027,0.8206,0.8516,0.8516,0.8568,0.8739,0.9613,0.9714,0.9827,1.0504,1.0451,1.013,0.959,0.0,0.0,0.0,0.0,0.0,0.0,0.0,0.0,0.0,0.0,0.0,0.0,0.0,0.0,0.0,0.0,0.0,0.0,0.0,0.0,0.0,-0.224,0.0,0.0,0.0,-0.2273,-0.2326,-0.2356,-0.2418,-0.2507,-0.2512,-0.2514,-0.2514,-0.2514,-0.2514,-0.2514,-0.2514,-0.2514,-0.2519,-0.2574,-0.2597,-0.2608,-0.2664,-0.2684,-0.2686,0.0,0.0,0.0,0.0,0.0,0.0,0.0,1.3373,0.0,1.3253,1.3253,1.3091,1.2768,1.3054,1.3137,1.2699,1.2699,1.2272,1.1327,1.0799,1.0202,0.9435,0.9084,0.0,1.0868,1.04,1.0416,1.1144,0.0,0.0,0.0,0.0,0.0,0.0,0.0,0.9039,0.0,0.0,0.0,0.958,0.9238,0.9164,0.9164,0.8902,0.8665,0.8437,0.8272,0.7976,0.779,0.779,0.7823,0.7872,0.7872,0.7872,0.7872,0.7872,0.7994,0.8122,0.7994,0.8082,0.8301,0.8301,0.8492,0.8807,0.9583,0.9827,1.006,1.0585,1.0591,1.0103,0.9166,0.8307,0.0,0.0,0.0,0.0,0.0,0.0,0.0,0.0,0.0,0.0,0.0,0.0,0.0,0.0,0.0,0.0,0.0,0.0,0.0,0.0,0.0,0.0,0.0,0.0,0.0,-0.2334,-0.2379,-0.2442,-0.2514,-0.2514,-0.2514,-0.2514,-0.2514,-0.2514,-0.2514,-0.2514,-0.2523,-0.2542,-0.2585,-0.2612,-0.2631,-0.2676,-0.2692,-0.2692,0.0,1.2432,0.0,0.0,1.2948,0.0,1.3454,1.4082,1.4269,1.3574,1.3266,1.3065,1.2824,1.2971,1.3052,1.2796,1.2699,1.2357,1.1671,1.0926,1.0406,0.992,0.9283,0.9837,1.1686,1.0956,1.1175,0.0,0.0,0.0,0.0,0.0,0.0,0.0,0.0,0.0,0.0,0.0,1.0581,1.0527,0.9752,0.9327,0.9266,0.9033,0.8809,0.8689,0.8336,0.8159,0.7994,0.7872,0.7872,0.7872,0.7872,0.7872,0.7872,0.7872,0.7888,0.791,0.791,0.8019,0.8133,0.8133,0.8548,0.8972,0.9365,0.9714,1.0193,1.0459,1.0326,0.9808,0.8781,0.8206,0.0,0.0,0.0,0.0,0.0,0.0,0.0,0.0,0.0,0.0,0.0,0.0,0.0,0.0,0.0,0.0368,-0.0131,-0.1025,0.0,0.0,0.0,-0.2221,-0.221,0.0,-0.2342,-0.2363,-0.241,-0.2462,-0.2514,-0.2514,-0.2514,-0.2514,-0.2514,-0.2514,-0.2514,-0.2514,-0.2532,-0.2563,-0.259,-0.262,-0.265,-0.2682,-0.2692,-0.2692,0.0,0.0,0.0,0.0,0.0,0.0,1.4389,1.4469,1.4496,1.4402,1.4162,1.3917,1.3652,1.3451,1.3307,1.3052,1.2881,1.2613,1.2528,1.2679,1.2745,1.2703,1.3055,1.3415,1.3649,1.379,1.3602,0.0,0.0,0.0,0.0,0.0,0.0,0.0,0.0,0.0,0.0,1.2049,1.1529,1.1118,0.9932,0.9456,0.9571,0.9216,0.9194,0.9195,0.8593,0.836,0.8366,0.7994,0.7872,0.7872,0.7872,0.7872,0.7872,0.7872,0.7948,0.8035,0.8035,0.8209,0.8383,0.8383,0.8475,0.8701,0.9099,0.9516,0.9794,1.0193,0.9927,0.9575,0.8904,0.8548,0.8166,0.0,0.0,0.0,0.0,0.0,0.0,0.0,0.0,0.0,0.0,0.0,0.0,0.0,0.0,0.0752,0.2494,0.077,-0.0774,-0.2026,0.0,-0.2188,-0.224,-0.2303,-0.2375,-0.2457,-0.2462,-0.2482,-0.2514,-0.2514,-0.2514,-0.2514,-0.2514,-0.2514,-0.2514,-0.2514,-0.2532,-0.2563,-0.259,-0.262,-0.265,-0.2682,-0.2692,-0.2692,0.0,0.0,0.0,0.0,0.0,0.0,0.0,1.4629,1.4456,1.4282,1.4162,1.3997,1.373,1.3646,1.3476,1.3137,1.2966,1.2685,1.2144,1.2158,1.217,1.1805,1.2088,1.2447,1.3171,1.2684,1.2675,0.0,0.0,0.0,0.0,0.0,0.0,0.0,0.0,1.4716,1.4861,1.4098,1.3788,1.3577,1.161,1.0814,1.0673,0.9813,0.9405,0.9214,0.8976,0.8854,0.861,0.8366,0.8116,0.7872,0.7872,0.7872,0.7883,0.7959,0.8013,0.8068,0.8144,0.8285,0.8416,0.8416,0.8503,0.8717,0.8984,0.925,0.9389,0.9794,0.9655,0.9221,0.8727,0.8502,0.8253,0.0,0.0,0.0,0.0,0.0,0.0,0.0,0.0,0.0,0.0,0.0,0.0,0.0,0.0,0.3482,0.1247,0.1534,0.0914,-0.0797,0.0,-0.223,-0.2273,-0.2331,-0.2387,-0.2442,-0.2478,-0.2503,-0.2514,-0.2514,-0.2514,-0.2514,-0.2514,-0.2514,-0.2515,-0.2534,-0.2559,-0.2587,-0.2617,-0.2647,-0.2676,-0.2688,-0.2692,-0.2692,1.9316,0.0,1.791,0.0,1.6831,1.5585,1.5327,1.4932,1.4549,1.4255,1.4135,1.3997,1.3828,1.3743,1.3561,1.3222,1.3212,1.2904,1.2203,1.226,1.221,1.189,1.1962,0.0,1.3113,1.2436,1.2617,1.3592,1.2334,0.0,0.0,0.0,0.0,0.0,1.5515,1.611,1.6393,1.5658,1.5438,1.5216,1.3131,1.2269,1.2039,1.0861,1.0179,0.9943,0.9457,0.9246,0.9038,0.8547,0.8318,0.8094,0.806,0.7948,0.7997,0.8084,0.8133,0.8182,0.8269,0.8378,0.847,0.847,0.853,0.8723,0.8851,0.8984,0.9117,0.9522,0.9256,0.8984,0.8723,0.8448,0.8334,0.8312,0.0,0.0,0.0,0.0,0.0,0.0,0.0,0.8731,0.86,0.0,0.0,0.0,0.0,0.0,0.2574,0.2929,0.0,0.0,0.0,0.0,0.0,-0.2341,-0.2394,-0.2451,-0.2493,-0.2514,-0.2514,-0.2514,-0.2514,-0.2514,-0.2514,-0.2514,-0.2517,-0.2547,-0.2577,-0.2605,-0.2635,-0.2665,-0.2692,-0.2692,-0.2692,-0.2692,2.1077,2.0943,2.0525,2.0441,1.9461,1.8018,1.604,1.5332,1.4856,1.4549,1.4269,1.4082,1.4082,1.3828,1.3646,1.3392,1.3473,1.3373,1.3121,1.3604,1.3894,0.0,0.0,1.4292,1.4292,1.4292,1.4425,1.4702,0.0,0.0,1.4532,0.0,1.5471,1.6325,1.6795,1.7303,1.7538,1.6389,1.5795,1.5451,1.4143,1.3665,1.3545,1.2225,1.1631,1.1511,0.9822,0.9432,0.943,0.8795,0.8632,0.8718,0.8215,0.8133,0.8231,0.8231,0.8318,0.8416,0.8416,0.8497,0.8584,0.8584,0.8584,0.859,0.859,0.8851,0.9117,0.9117,0.9117,0.8984,0.8723,0.8584,0.847,0.8117,0.0,0.0,0.0,0.0,0.0,0.0,0.7823,0.7818,0.8519,0.0,0.0,0.0,0.0,0.0,0.0,0.0,0.0,0.3224,0.3185,0.0,-0.2147,-0.2319,-0.2394,-0.2514,-0.2514,-0.2514,-0.2514,-0.2514,-0.2514,-0.2514,-0.2514,-0.2514,-0.2517,-0.2547,-0.2577,-0.2605,-0.2635,-0.2665,-0.2692,-0.2692,-0.2692,-0.2692,2.3313,2.2244,2.1045,2.0674,1.8689,1.6942,1.5913,1.511,1.4629,1.4536,1.4269,1.4162,1.4362,1.4117,1.3907,0.0,1.3673,1.3711,0.0,1.3809,1.3978,1.4159,1.4256,1.4292,1.4292,1.4292,1.434,1.4425,0.0,0.0,0.0,1.6117,1.6879,1.7499,1.7877,1.7968,1.7836,1.756,1.7126,1.6762,1.5451,1.5069,1.5083,1.3873,1.2856,1.2109,1.1612,1.0782,0.9956,0.9564,0.9276,0.9127,0.8828,0.8397,0.8253,0.8334,0.8388,0.8437,0.8513,0.8557,0.859,0.859,0.859,0.859,0.859,0.8784,0.8844,0.8844,0.8844,0.8844,0.8709,0.8715,0.8649,0.8448,0.8725,0.0,0.0,0.0,0.0,0.0,0.866,0.8742,0.0,0.8649,0.0,0.0,0.0,0.0,0.0,0.0,0.0,0.0,0.4704,0.0,0.1613,-0.1031,-0.2414,-0.2514,-0.2514,-0.2514,-0.2514,-0.2514,-0.2514,-0.2514,-0.2514,-0.2526,-0.2548,-0.2577,-0.2605,-0.2635,-0.2667,-0.2684,-0.2692,-0.2692,-0.2692,-0.2692,2.4609,2.3598,2.2387,2.1179,1.9241,1.7493,1.6154,1.5201,1.4683,1.4683,1.4429,1.4362,1.4656,1.4522,0.0,1.3951,1.4066,1.401,1.3882,1.4002,1.4123,1.4292,1.4292,1.4292,1.4292,1.4401,0.0,1.4606,1.4826,1.537,1.6228,1.7107,1.7795,1.8315,1.8486,1.8391,1.8194,1.8194,1.8022,1.7624,1.6782,1.6571,1.6675,1.5442,1.4527,1.377,1.2775,1.1814,1.0991,1.0223,0.9806,0.9664,0.9133,0.8819,0.8513,0.8459,0.8481,0.8497,0.8568,0.859,0.859,0.859,0.859,0.86,0.8644,0.8715,0.8785,0.8829,0.884,0.884,0.884,0.884,0.8812,0.8736,0.8954,0.9068,0.8867,0.0,0.0,0.0,0.0,0.0,0.0,0.8916,0.8812,0.0,0.0,0.0,0.0,0.0,0.0,0.8932,0.6944,0.0,0.4302,0.1937,0.0152,-0.0942,-0.2042,-0.2514,-0.2514,-0.2514,-0.2514,-0.2514,-0.2514,-0.2532,-0.2562,-0.259,-0.2619,-0.265,-0.268,-0.2692,-0.2692,-0.2692,-0.2692,-0.2692,2.5117,2.5059,2.4203,0.0,2.0729,0.0,1.6593,1.554,1.499,1.499,1.4736,1.4669,1.4963,1.499,1.481,1.4372,0.0,0.0,0.0,1.4159,1.4292,1.4292,1.4292,1.4304,1.4328,1.4582,1.4859,1.5161,1.6168,1.6889,1.729,1.7764,1.8397,1.8918,1.8945,1.8761,1.8415,1.844,1.8239,1.7877,1.7901,1.807,1.8189,1.692,1.6301,1.5939,1.3438,1.2545,1.2177,1.076,1.0208,1.006,0.9383,0.9117,0.8984,0.8717,0.859,0.859,0.859,0.859,0.859,0.859,0.8595,0.8628,0.8747,0.8785,0.8829,0.8943,0.8965,0.8965,0.8965,0.8965,0.8965,0.8965,0.9068,0.9106,0.8981,0.0,0.0,0.0,0.0,0.0,0.0,0.8851,0.9068,0.0,0.0,0.0,0.0,0.0,0.8568,0.9155,0.9319,0.8266,0.5937,0.5862,0.4438,0.1879,-0.0784,-0.2043,-0.22,-0.2357,-0.2514,-0.2514,-0.2517,-0.2534,-0.2564,-0.2593,-0.2623,-0.2653,-0.2682,-0.2692,-0.2692,-0.2692,-0.2692,-0.2692,0.0,0.0,2.3298,2.2528,2.0229,1.8195,1.7409,1.6211,1.5297,1.5297,1.5044,1.4963,1.5257,1.5297,1.5285,1.5217,1.4833,1.4565,1.4481,1.4364,1.4292,1.4292,1.4292,1.4401,1.4618,1.4678,1.504,1.5704,1.6461,1.6991,1.7499,1.8276,1.8798,1.8931,1.9158,1.8945,1.8428,1.8644,1.8414,1.7889,1.8106,1.8348,1.8464,1.7052,1.6022,1.5148,1.4503,1.2971,1.119,1.1972,1.1212,1.006,0.9661,0.9389,0.8984,0.8717,0.859,0.859,0.859,0.859,0.859,0.859,0.866,0.8736,0.8764,0.8916,0.9057,0.9084,0.909,0.909,0.909,0.909,0.909,0.909,0.9188,0.9226,0.9106,0.9139,0.0,0.0,0.8986,0.9041,0.9128,0.9269,0.9269,0.0,0.0,0.0,0.0,0.903,0.9068,0.9394,0.9421,0.9197,0.888,0.6857,0.4937,0.3285,0.2664,0.1725,0.0627,-0.157,-0.2514,-0.2515,-0.2538,-0.2566,-0.2594,-0.2624,-0.2654,-0.2683,-0.269,-0.2692,-0.2692,-0.2692,-0.2692,-0.2692,2.5391,2.4333,2.3241,2.2662,2.0441,1.8503,1.7777,1.6401,1.5444,1.5578,1.5337,1.5271,1.5565,1.5591,1.5564,1.5629,1.5214,1.4905,1.4675,1.4592,1.44,1.4292,1.4425,1.4558,1.4714,1.4956,1.5403,1.6066,1.6621,1.7237,1.7792,1.8385,1.8871,1.9132,1.9292,1.9089,1.8618,1.8771,1.8626,1.8251,1.8408,1.8625,1.8867,1.8082,1.7396,1.6602,1.5303,1.3866,1.2553,1.2033,1.124,1.0326,1.006,0.9661,0.9256,0.8984,0.8723,0.859,0.859,0.859,0.86,0.8655,0.872,0.8802,0.891,0.9041,0.915,0.9198,0.9209,0.9209,0.9209,0.9209,0.9209,0.9209,0.922,0.9204,0.9144,0.9133,0.0,0.9133,0.9182,0.9237,0.9296,0.9416,0.9405,0.9209,0.9313,0.0,0.9378,0.9275,0.9323,0.9563,0.9579,0.9639,0.9753,0.8487,0.7317,0.6577,0.6587,0.5489,0.3447,0.2038,0.0784,0.0,-0.0794,-0.1286,-0.1464,-0.2305,-0.2665,-0.2692,-0.2692,-0.2692,-0.2692,-0.2692,-0.2692,-0.2692,2.4902,2.4336,2.3615,2.2926,2.1055,1.9314,1.8149,1.6629,1.5737,1.5792,1.5618,1.5551,1.5805,1.5832,1.5832,1.5832,1.5681,1.5395,1.4796,1.4762,1.4618,1.4413,1.4727,1.4908,1.4956,1.5427,1.5922,1.6404,1.6968,1.7566,1.8072,1.8402,1.8876,1.9372,1.9412,1.9207,1.8835,1.8924,1.8875,1.8686,1.8722,1.8879,1.9072,1.8816,1.8816,1.8419,1.6073,1.4903,1.425,1.2033,1.1115,1.0585,1.0326,0.9927,0.9661,0.925,0.8851,0.859,0.859,0.86,0.8638,0.8747,0.8796,0.8878,0.9084,0.915,0.9188,0.9285,0.9302,0.9302,0.9302,0.9302,0.9291,0.9258,0.9188,0.9122,0.9084,0.0,0.9133,0.9133,0.9237,0.9302,0.9302,0.94,0.9465,0.9487,0.9487,0.9541,0.9661,0.9454,0.9443,0.9688,0.9677,0.9731,0.9862,0.9981,1.0041,1.0041,1.0063,0.8797,0.6427,0.5958,0.5019,0.3456,0.1431,0.0322,-0.0163,-0.1816,-0.2669,-0.2692,-0.2692,-0.2692,-0.2692,-0.2692,-0.2692,-0.2692,2.4512,2.4121,2.3719,2.3596,2.2078,2.0404,1.9405,1.801,1.6706,1.5913,1.5792,1.5778,1.5832,1.5832,1.5832,1.5832,1.6059,1.5809,1.5096,1.5035,1.498,1.498,1.5451,1.5813,1.603,1.6356,1.6658,1.696,1.7578,1.797,1.8351,1.8945,1.9319,1.9372,1.9626,1.9391,1.886,1.9356,1.9237,1.871,1.8927,1.9036,1.8944,1.7765,1.7367,1.7238,1.685,1.5163,1.321,1.3997,1.2684,1.0585,1.0326,0.9927,0.9661,0.925,0.8851,0.859,0.859,0.8666,0.8747,0.8764,0.8927,0.909,0.9128,0.9209,0.928,0.9302,0.9302,0.9302,0.9302,0.9302,0.9237,0.9041,0.9079,0.9063,0.8856,0.0,0.9133,0.9133,0.9237,0.9302,0.9302,0.9318,0.9378,0.9476,0.9487,0.9541,0.9661,0.9536,0.9568,0.9802,0.972,0.9775,0.9987,1.0014,1.0025,1.0025,1.0041,0.9735,0.9256,0.69,0.5673,0.5408,0.1932,0.0489,0.033,-0.1836,-0.2688,-0.2692,-0.2692,-0.2692,-0.2692,-0.2692,-0.2692,-0.2692,2.4043,2.373,2.3427,2.339,2.206,2.0602,1.933,1.8056,1.6951,1.5927,1.5832,1.5885,1.6046,1.5925,1.5952,1.6273,1.6175,1.598,1.5725,1.5708,1.5626,1.5318,1.5825,1.6223,1.6501,1.6779,1.6972,1.7092,1.77,1.8184,1.8415,1.8881,1.9322,1.9613,1.9509,1.9494,1.9318,1.9324,1.9136,1.8903,1.9024,1.9072,1.9072,1.8419,1.815,1.8022,1.7238,1.6193,1.4893,1.4119,1.2947,1.1637,1.0717,1.0193,0.9927,0.9522,0.9035,0.8687,0.8687,0.8774,0.8883,0.8948,0.9052,0.915,0.9209,0.9264,0.9302,0.9302,0.9302,0.9302,0.9302,0.9302,0.9247,0.9079,0.9095,0.0,0.0,0.9024,0.9133,0.9133,0.9237,0.9329,0.9394,0.9345,0.9356,0.9476,0.9487,0.9541,0.9661,0.9552,0.9622,0.9927,0.9883,0.9911,1.0019,1.0019,1.0019,1.0019,1.003,1.003,1.003,0.8618,0.8041,0.7815,0.5158,0.3263,0.1818,-0.0,-0.1512,-0.2692,-0.2692,-0.2692,-0.2692,-0.2692,-0.2692,-0.2692,2.3574,2.3379,2.3066,2.3127,2.2094,2.0872,1.9513,1.8611,1.7591,1.6292,1.6116,1.6225,1.6343,1.6072,1.6139,1.666,1.6355,1.6295,1.6508,1.6639,1.6373,1.5785,1.6247,1.6658,1.6875,1.708,1.7177,1.7177,1.7744,1.8232,1.8517,1.8868,1.9377,1.9787,1.9614,1.9537,1.9562,1.9362,1.9132,1.9072,1.9072,1.9072,1.9072,1.9072,1.9072,1.8944,1.7893,1.7238,1.6721,1.4511,1.3341,1.2553,1.1505,1.0717,1.0199,0.9965,0.9414,0.8988,0.8818,0.8899,0.9014,0.9111,0.9155,0.9198,0.9285,0.9302,0.9302,0.9302,0.9302,0.9302,0.9302,0.9302,0.9258,0.9117,0.0,0.0,0.0,0.9057,0.9144,0.9171,0.9253,0.934,0.9432,0.9356,0.9345,0.9438,0.947,0.9541,0.9661,0.9579,0.9666,0.997,1.0003,1.0019,1.0019,1.0019,1.0019,1.0019,1.0019,1.0019,1.0019,1.0052,0.9976,0.9616,0.777,0.5894,0.3813,0.1839,-0.0504,-0.2692,-0.2692,-0.2692,-0.2692,-0.2692,-0.2692,-0.2692,2.3184,2.3164,2.3057,2.3096,2.2637,2.198,2.0962,2.0421,1.9347,1.7419,1.7232,1.6985,1.6343,1.6259,1.6366,1.6673,1.6941,1.7105,1.7095,1.7629,1.7482,1.6671,1.7098,1.7406,1.7418,1.7443,1.7455,1.7455,1.8064,1.8555,1.8928,1.9404,1.9681,1.9728,2.0002,1.976,1.9187,1.9435,1.9431,1.9072,1.9072,1.9072,1.9072,1.9072,1.9072,1.9072,1.8944,1.815,1.698,1.6721,1.4903,1.2816,1.2684,1.1505,1.0219,1.0341,1.0028,0.9501,0.897,0.903,0.9122,0.9133,0.9215,0.9296,0.9302,0.9302,0.9302,0.9302,0.9302,0.9302,0.9302,0.9302,0.9231,0.9003,0.0,0.0,0.897,0.9057,0.9171,0.928,0.9296,0.9307,0.9318,0.9307,0.9307,0.9318,0.9421,0.9541,0.9661,0.9661,0.9715,0.9845,0.996,1.0019,1.0019,1.0019,1.0019,1.0019,1.0019,1.0019,1.0025,1.0139,1.0259,1.0217,0.8027,0.6797,0.587,0.2853,-0.0,-0.2692,-0.2692,-0.2692,-0.2692,-0.2692,-0.2692,-0.2692,2.3144,2.3144,2.3057,2.2706,2.253,2.198,2.0782,1.9877,1.8888,1.7512,1.6933,1.6691,1.6612,1.654,1.6727,1.7208,1.7181,1.7355,1.7635,1.8031,1.8151,1.7818,1.7799,1.7843,1.7843,1.7608,1.7479,1.7479,1.8357,1.8733,1.8967,1.9507,1.9863,2.0028,1.9623,1.9512,1.9422,1.9279,1.92,1.9072,1.9072,1.9072,1.9072,1.9072,1.9072,1.9072,1.9072,1.8816,1.815,1.7238,1.5684,1.4015,1.3203,1.1918,1.0637,1.0599,1.0321,0.9989,0.9587,0.9347,0.9237,0.9237,0.9269,0.9302,0.9302,0.9302,0.9302,0.9302,0.9302,0.9302,0.9302,0.9302,0.9253,0.909,0.0,0.9198,0.9079,0.9166,0.9258,0.9296,0.9302,0.9334,0.941,0.9351,0.9334,0.941,0.953,0.9622,0.9666,0.9807,0.9873,0.984,0.9954,1.0019,1.0019,1.0019,1.0019,1.0019,1.0019,1.0019,1.0025,1.0144,1.0269,1.0394,0.9682,0.8132,0.6211,0.5038,0.2015,-0.185,-0.2524,-0.2692,-0.2692,-0.2692,-0.2692,-0.2692,2.3144,2.3242,2.3252,2.2897,2.2809,2.2363,2.1338,2.052,1.951,1.8115,1.7654,1.7288,1.6908,1.6847,1.7048,1.7542,1.7395,1.7542,1.8143,1.8557,1.8717,1.8519,1.8311,1.8077,1.8077,1.796,1.788,1.7966,1.8627,1.9163,1.9356,1.9672,1.9918,2.019,1.955,1.9271,1.9456,1.92,1.9072,1.9072,1.9072,1.9072,1.9072,1.9072,1.9072,1.9072,1.9072,1.9072,1.8944,1.8022,1.6774,1.542,1.4095,1.2442,1.0926,1.0894,1.0652,1.0376,0.9976,0.9706,0.9402,0.9296,0.9302,0.9302,0.9302,0.9302,0.9302,0.9302,0.9302,0.9302,0.9302,0.9302,0.928,0.9198,0.9253,0.9275,0.9198,0.9253,0.9302,0.9302,0.9302,0.9334,0.9421,0.9351,0.9356,0.9476,0.9601,0.9704,0.9775,0.9932,0.9981,0.99,0.9976,1.0019,1.0019,1.0019,1.0019,1.0019,1.0019,1.0019,1.0025,1.0188,1.0307,1.0394,1.0552,0.9506,0.7733,0.7737,0.4369,-0.101,-0.1683,-0.202,-0.2188,-0.2188,-0.2524,-0.2692,2.3144,2.3496,2.3789,2.3789,2.3609,2.3338,2.3157,2.2884,2.1859,1.9493,1.9606,1.917,1.7422,1.7257,1.7275,1.7555,1.7582,1.7836,1.845,1.9038,1.9243,1.8881,1.8532,1.8415,1.8415,1.8428,1.8555,1.8835,1.9192,1.9611,2.0185,2.0185,2.0216,2.0106,1.9711,1.9456,1.9072,1.9072,1.9072,1.9072,1.9072,1.9072,1.9072,1.9072,1.9072,1.9072,1.9072,1.9072,1.9072,1.9084,1.8335,1.7082,1.5604,1.3333,1.1199,1.0927,1.0722,1.0531,1.0096,0.9792,0.9587,0.9419,0.9302,0.9302,0.9302,0.9302,0.9302,0.9302,0.9302,0.9302,0.9302,0.9302,0.9302,0.9302,0.9302,0.9302,0.9302,0.9302,0.9302,0.9302,0.9302,0.9302,0.9302,0.9307,0.9356,0.9476,0.9601,0.9775,1.0008,1.0019,1.0019,1.0019,1.0019,1.0019,1.0019,1.0019,1.0019,1.0019,1.0019,1.0019,1.003,1.0275,1.0384,1.04,1.0655,1.0775,1.0624,1.0645,0.6405,0.0,0.0,-0.0505,-0.1346,-0.1346,-0.185,-0.2524,2.3144,2.3242,2.3252,2.3163,2.3236,2.3338,2.3157,2.2557,2.1878,2.1216,2.0557,1.9744,1.8441,1.8451,1.831,1.7674,1.7582,1.7836,1.845,1.8851,1.9145,1.9229,1.8648,1.8415,1.8415,1.8133,1.8151,1.8237,1.8863,1.9385,1.9799,1.9751,2.0017,2.0488,1.9839,1.9571,1.9456,1.9456,1.9328,1.9072,1.9072,1.9072,1.9072,1.9072,1.9072,1.9072,1.9072,1.9072,1.9108,1.9289,1.8484,1.7002,1.4873,1.371,1.2894,1.1674,1.1302,1.108,1.0407,1.0215,0.9871,0.9419,0.9302,0.9302,0.9302,0.9302,0.9302,0.9302,0.9302,0.9302,0.9302,0.9302,0.9302,0.9302,0.9302,0.9302,0.9302,0.9302,0.9302,0.9302,0.9302,0.9302,0.9302,0.9383,0.941,0.9362,0.9552,0.9775,1.0008,1.0019,1.0019,1.0019,1.0019,1.0019,1.0019,1.0019,1.0019,1.0019,1.0019,1.0063,1.0155,1.0313,1.0438,1.053,1.0693,1.078,1.0645,1.0651,0.6405,0.0,0.0,-0.0168,-0.0337,-0.0337,-0.1347,-0.2695,2.3144,2.3418,2.3563,2.3473,2.3822,2.3929,2.3651,2.3204,2.2572,2.1996,2.1542,2.0861,1.9765,1.9728,1.9435,1.8304,1.7901,1.7916,1.829,1.8704,1.9052,1.9359,1.8998,1.8816,1.8946,1.886,1.893,1.9044,1.9509,1.9975,2.0216,2.0131,2.0221,2.0602,1.9966,1.9571,1.9571,1.9456,1.9328,1.9072,1.9072,1.9072,1.9072,1.9072,1.9072,1.9072,1.9072,1.9145,1.9253,1.941,1.8668,1.7276,1.5283,1.4297,1.3491,1.1952,1.1382,1.1121,1.0754,1.0426,1.0082,0.9695,0.9446,0.9302,0.9302,0.9302,0.9302,0.9302,0.9302,0.9302,0.9302,0.9302,0.9302,0.9302,0.9302,0.9302,0.9302,0.9302,0.9302,0.9302,0.9302,0.9302,0.9302,0.9372,0.9421,0.9449,0.9671,0.9873,1.0014,1.0019,1.0019,1.0019,1.0019,1.0019,1.0019,1.0019,1.0019,1.0019,1.0019,1.0085,1.021,1.0329,1.0454,1.0415,0.9692,0.9249,0.9268,0.876,0.6059,0.2017,0.0505,0.0,0.0,0.0,-0.0674,-0.1685,2.3203,2.3848,2.4414,2.4414,2.4785,2.4983,2.4412,2.4354,2.3777,2.238,2.2412,2.2215,2.12,2.0979,2.0467,1.9332,1.8462,1.8023,1.809,1.8611,1.9065,1.9399,1.9457,1.9628,1.988,2.0013,2.0279,2.0557,2.0571,2.0855,2.1109,2.0729,2.0602,2.0602,1.9966,1.9571,1.9584,1.9328,1.9072,1.9072,1.9072,1.9072,1.9084,1.9096,1.9108,1.912,1.9145,1.9301,1.9507,1.9531,1.8921,1.7824,1.6486,1.5008,1.3332,1.1804,1.1192,1.0893,1.0754,1.0448,0.9998,0.9959,0.959,0.9302,0.9302,0.9302,0.9302,0.9302,0.9302,0.9302,0.9302,0.9302,0.9302,0.9302,0.9302,0.9302,0.9302,0.9302,0.9302,0.9302,0.9302,0.9302,0.9302,0.9313,0.9421,0.9666,0.9883,1.0008,1.0019,1.0019,1.0019,1.0019,1.0019,1.0019,1.0019,1.0019,1.0019,1.0019,1.0019,1.009,1.0221,1.0335,1.0454,1.0415,0.8348,0.7547,0.7379,0.6376,0.5876,0.5538,0.2182,0.0504,0.0,0.0,0.0,0.0,2.3711,2.4062,2.4414,2.4414,2.4785,2.5059,2.4983,2.4871,2.4594,2.43,2.398,2.3438,2.2316,2.1404,2.0467,1.9332,1.8268,1.7889,1.8357,1.8731,1.9158,1.9679,2.0201,2.0481,2.0481,2.0041,1.9859,1.991,2.0155,2.0423,2.0729,2.0361,2.0361,2.0615,2.0234,1.9839,1.9571,1.9571,1.9328,1.9072,1.9072,1.9072,1.9096,1.9301,1.9386,1.941,1.9627,1.9748,1.982,2.0038,1.9347,1.8057,1.6545,1.5008,1.3332,1.1804,1.126,1.1158,1.092,1.0524,1.0113,0.9988,0.959,0.9302,0.9302,0.9302,0.9302,0.9302,0.9302,0.9302,0.9302,0.9302,0.9302,0.9302,0.9302,0.9302,0.9302,0.9302,0.9302,0.9302,0.9302,0.9302,0.9302,0.9389,0.9546,0.978,0.9851,0.9916,1.0014,1.0019,1.0019,1.0019,1.0019,1.0019,1.0019,1.0019,1.0019,1.0019,1.0019,1.0134,1.0346,1.0373,1.0509,1.0721,1.0242,0.9923,0.9933,0.9598,0.9598,0.9431,0.8751,0.4873,0.0,0.0,0.0,0.0,2.4141,2.4434,2.4727,2.4727,2.5098,2.5391,2.5198,2.5179,2.5039,2.4726,2.4548,2.4053,2.3438,2.282,2.186,2.0373,1.9252,1.8521,1.8464,1.8891,1.9332,1.9786,2.0361,2.0735,2.0882,2.0506,2.0367,2.0367,2.0537,2.0602,2.0856,2.0615,2.0602,2.0856,2.0361,1.9979,1.9839,1.9456,1.92,1.9072,1.9072,1.9157,1.9277,1.941,1.9555,1.9688,1.9833,1.9965,2.011,2.0376,1.9565,1.8121,1.6554,1.507,1.3444,1.1825,1.1335,1.1287,1.1087,1.0825,1.0432,1.0281,0.9879,0.959,0.9302,0.9302,0.9302,0.9302,0.9302,0.9302,0.9302,0.9302,0.9302,0.9302,0.9302,0.9302,0.9302,0.9302,0.9302,0.9302,0.9302,0.9302,0.9302,0.9465,0.9622,0.9748,0.9862,0.9954,1.0019,1.0019,1.0019,1.0019,1.0019,1.0019,1.0019,1.0019,1.0052,1.0106,1.0106,1.0204,1.0389,1.0443,1.0574,1.0748,1.0748,1.0753,1.0764,1.0764,1.0764,1.077,1.0775,0.8407,0.4698,0.1343,0.0,0.0,2.4551,2.4883,2.5176,2.5176,2.5488,2.5645,2.543,2.5333,2.5039,2.4627,2.4529,2.435,2.4251,2.4108,2.3248,2.1474,2.0408,1.9513,1.8877,1.9233,1.9546,1.9786,2.0414,2.0842,2.1029,2.1082,2.1109,2.1109,2.1109,2.1109,2.1109,2.1109,2.1109,2.0982,2.0488,2.0106,1.9979,1.9456,1.9224,1.9145,1.9145,1.9301,1.9543,1.9591,1.9748,1.9953,2.0002,2.0158,2.0376,2.0593,1.9541,1.784,1.6554,1.484,1.3239,1.1847,1.1389,1.1389,1.1389,1.1127,1.0747,1.0575,1.0311,0.9879,0.959,0.9446,0.9302,0.9302,0.9302,0.9302,0.9302,0.9302,0.9302,0.9302,0.9302,0.9302,0.9302,0.9302,0.9302,0.9302,0.9302,0.9302,0.9302,0.9508,0.965,0.9666,0.9889,1.0019,1.0019,1.0041,1.0041,1.0019,1.0019,1.0019,1.0019,1.0041,1.0101,1.0204,1.0242,1.0318,1.0416,1.0514,1.0623,1.0737,1.0737,1.0737,1.0737,1.0737,1.0737,1.0737,1.0753,1.0759,0.9918,0.3357,0.0504,0.0168,2.5059,2.5332,2.5644,2.5644,2.5703,2.5645,2.5645,2.5235,2.4941,2.4843,2.4449,2.4251,2.4152,2.3639,2.2808,2.1595,2.0727,2.0281,2.0381,1.9979,1.976,1.98,2.0601,2.0949,2.0735,2.0975,2.1109,2.1109,2.1109,2.1109,2.1109,2.1109,2.0982,2.0602,2.0602,2.0221,1.9711,1.9584,1.9463,1.941,1.941,1.9579,1.9857,2.0086,2.0195,2.0255,2.0484,2.0593,2.0617,2.0653,1.8821,1.6413,1.6131,1.4048,1.1698,1.1537,1.1389,1.1389,1.1389,1.1206,1.1018,1.0894,1.0606,1.0455,1.0311,0.9735,0.9302,0.9302,0.9302,0.9302,0.9302,0.9302,0.9302,0.9302,0.9302,0.9302,0.9302,0.9302,0.9302,0.9302,0.9302,0.9302,0.9302,0.9432,0.9557,0.9661,0.9889,1.0019,1.0019,1.0123,1.0128,1.0025,1.0019,1.0019,1.0019,1.0128,1.0188,1.0204,1.0411,1.0514,1.053,1.0547,1.0623,1.0737,1.0737,1.0737,1.0737,1.0737,1.0737,1.0737,1.0737,1.0748,1.0257,0.6211,0.2686,0.0504,2.5488,2.5605,2.5742,2.5742,2.5742,2.5742,2.5742,2.5528,2.5333,2.5137,2.4843,2.4548,2.435,2.4198,2.3773,2.3011,2.2116,2.138,2.1053,2.0247,1.9867,2.004,2.0575,2.0882,2.0922,2.0882,2.0869,2.0869,2.1029,2.1109,2.1109,2.1109,2.0982,2.0856,2.0729,2.0475,2.0106,1.9873,1.9764,1.9756,1.9771,1.9869,2.0122,2.0231,2.0364,2.0509,2.0629,2.0665,2.0665,2.0665,1.9251,1.7268,1.6413,1.4523,1.2641,1.1803,1.1518,1.1518,1.1518,1.1422,1.1332,1.1044,1.0894,1.075,1.0599,1.0167,0.9879,0.9735,0.9446,0.9302,0.9302,0.9302,0.9302,0.9302,0.9302,0.9302,0.9302,0.9302,0.9302,0.9302,0.9302,0.9302,0.9302,0.9476,0.9612,0.9666,0.9949,1.0123,1.0123,1.0172,1.0177,1.0123,1.0057,1.0019,1.0019,1.0074,1.0172,1.0307,1.0411,1.0492,1.0558,1.0623,1.0688,1.0737,1.0737,1.0737,1.0737,1.0737,1.0737,1.0737,1.0737,1.0748,1.043,0.8905,0.7391,0.5882]}]]